| time (UTC) | temp F | wind direction | speed knots | gust knots | rain 1hr in | rain 24hr in | rain mn in | humidity % | barometer mb |
| 20260831010434 | 79 | 193 | 1.7 | 2.6 | 0.00 | 0.00 | 0.00 | 71 | 1016.4 |
| 20260831010332 | 79 | 195 | 2.6 | 2.6 | 0.00 | 0.00 | 0.00 | 71 | 1016.4 |
| 20260831010243 | 79 | 195 | 1.7 | 2.6 | 0.00 | 0.00 | 0.00 | 71 | 1016.4 |
| 20260831010153 | 79 | 196 | 1.7 | 2.6 | 0.00 | 0.00 | 0.00 | 71 | 1016.4 |
| 20260831010031 | 79 | 195 | 1.7 | 2.6 | 0.00 | 0.00 | 0.00 | 71 | 1016.4 |
| 20260831005950 | 79 | 195 | 2.6 | 2.6 | 0.00 | 0.00 | 0.00 | 70 | 1016.4 |
| 20260831005827 | 79 | 195 | 1.7 | 2.6 | 0.00 | 0.00 | 0.00 | 70 | 1016.4 |
| 20260831005749 | 79 | 193 | 1.7 | 2.6 | 0.00 | 0.00 | 0.00 | 70 | 1016.2 |
| 20260831005628 | 79 | 195 | 1.7 | 2.6 | 0.00 | 0.00 | 0.00 | 70 | 1016.2 |
| 20260831005527 | 79 | 196 | 1.7 | 2.6 | 0.00 | 0.00 | 0.00 | 70 | 1016.2 |
| 20260831005428 | 79 | 195 | 1.7 | 2.6 | 0.00 | 0.00 | 0.00 | 70 | 1016.2 |
| 20260831005329 | 79 | 195 | 1.7 | 2.6 | 0.00 | 0.00 | 0.00 | 70 | 1016.2 |
| 20260831005231 | 79 | 193 | 1.7 | 2.6 | 0.00 | 0.00 | 0.00 | 70 | 1016.2 |
| 20260831005129 | 79 | 191 | 1.7 | 2.6 | 0.00 | 0.00 | 0.00 | 70 | 1016.2 |
| 20260831005031 | 79 | 195 | 1.7 | 2.6 | 0.00 | 0.00 | 0.00 | 70 | 1016.2 |
| 20260831004931 | 79 | 193 | 1.7 | 2.6 | 0.00 | 0.00 | 0.00 | 69 | 1016.2 |
| 20260831004829 | 79 | 195 | 1.7 | 2.6 | 0.00 | 0.00 | 0.00 | 69 | 1016.2 |
| 20260831004740 | 79 | 195 | 1.7 | 2.6 | 0.00 | 0.00 | 0.00 | 69 | 1016.2 |
| 20260831004649 | 79 | 195 | 1.7 | 2.6 | 0.00 | 0.00 | 0.00 | 69 | 1016.2 |
| 20260831004526 | 80 | 195 | 1.7 | 2.6 | 0.00 | 0.00 | 0.00 | 69 | 1016.2 |
| 20260831004424 | 80 | 195 | 1.7 | 2.6 | 0.00 | 0.00 | 0.00 | 69 | 1016.2 |
| 20260831004327 | 80 | 195 | 1.7 | 2.6 | 0.00 | 0.00 | 0.00 | 69 | 1016.2 |
| 20260831004228 | 80 | 195 | 1.7 | 2.6 | 0.00 | 0.00 | 0.00 | 69 | 1016.1 |
| 20260831004127 | 80 | 196 | 1.7 | 2.6 | 0.00 | 0.00 | 0.00 | 69 | 1016.1 |
| 20260831004025 | 80 | 195 | 1.7 | 2.6 | 0.00 | 0.00 | 0.00 | 69 | 1016.1 |
| 20260831003924 | 80 | 195 | 1.7 | 2.6 | 0.00 | 0.00 | 0.00 | 69 | 1016.1 |
| 20260831003821 | 80 | 192 | 0.9 | 2.6 | 0.00 | 0.00 | 0.00 | 69 | 1016.1 |
| 20260831003724 | 80 | 195 | 1.7 | 2.6 | 0.00 | 0.00 | 0.00 | 69 | 1016.1 |
| 20260831003631 | 80 | 193 | 0.9 | 2.6 | 0.00 | 0.00 | 0.00 | 69 | 1016.1 |
| 20260831003530 | 80 | 195 | 0.9 | 2.6 | 0.00 | 0.00 | 0.00 | 69 | 1016.1 |
| 20260831003429 | 80 | 195 | 1.7 | 2.6 | 0.00 | 0.00 | 0.00 | 69 | 1016.1 |
| 20260831003329 | 80 | 195 | 1.7 | 2.6 | 0.00 | 0.00 | 0.00 | 69 | 1016.1 |
| 20260831003247 | 80 | 195 | 2.6 | 2.6 | 0.00 | 0.00 | 0.00 | 68 | 1016.1 |
| 20260831003157 | 80 | 195 | 1.7 | 2.6 | 0.00 | 0.00 | 0.00 | 68 | 1016.1 |
| 20260831003034 | 80 | 195 | 0.9 | 2.6 | 0.00 | 0.00 | 0.00 | 69 | 1016.1 |
| 20260831002938 | 80 | 195 | 0.9 | 2.6 | 0.00 | 0.00 | 0.00 | 69 | 1016.1 |
| 20260831002836 | 80 | 195 | 0.9 | 2.6 | 0.00 | 0.00 | 0.00 | 69 | 1016.1 |
| 20260831002734 | 80 | 189 | 0.0 | 2.6 | 0.00 | 0.00 | 0.00 | 69 | 1016.2 |
| 20260831002632 | 80 | 193 | 0.0 | 1.7 | 0.00 | 0.00 | 0.00 | 68 | 1016.2 |
| 20260831002533 | 80 | 195 | 0.0 | 1.7 | 0.00 | 0.00 | 0.00 | 68 | 1016.2 |
| 20260831002433 | 80 | 195 | 0.0 | 1.7 | 0.00 | 0.00 | 0.00 | 69 | 1016.2 |
| 20260831002352 | 80 | 195 | 0.0 | 1.7 | 0.00 | 0.00 | 0.00 | 69 | 1016.2 |
| 20260831002228 | 80 | 193 | 0.0 | 1.7 | 0.00 | 0.00 | 0.00 | 69 | 1016.2 |
| 20260831002132 | 80 | 192 | 0.0 | 1.7 | 0.00 | 0.00 | 0.00 | 69 | 1016.2 |
| 20260831002031 | 80 | 195 | 0.9 | 1.7 | 0.00 | 0.00 | 0.00 | 69 | 1016.2 |
| 20260831001953 | 80 | 195 | 0.9 | 1.7 | 0.00 | 0.00 | 0.00 | 68 | 1016.2 |
| 20260831001830 | 80 | 196 | 0.0 | 1.7 | 0.00 | 0.00 | 0.00 | 68 | 1016.2 |
| 20260831001730 | 80 | 195 | 0.9 | 2.6 | 0.00 | 0.00 | 0.00 | 68 | 1016.2 |
| 20260831001700 | 80 | 195 | 0.9 | 2.6 | 0.00 | 0.00 | 0.00 | 68 | 1016.2 |
| 20260831001537 | 80 | 193 | 0.9 | 2.6 | 0.00 | 0.00 | 0.00 | 68 | 1016.2 |
| 20260831001441 | 80 | 195 | 0.0 | 2.6 | 0.00 | 0.00 | 0.00 | 68 | 1016.2 |
| 20260831001339 | 80 | 192 | 0.0 | 2.6 | 0.00 | 0.00 | 0.00 | 68 | 1016.2 |
| 20260831001238 | 80 | 195 | 0.0 | 2.6 | 0.00 | 0.00 | 0.00 | 68 | 1016.3 |
| 20260831001136 | 80 | 196 | 0.9 | 2.6 | 0.00 | 0.00 | 0.00 | 68 | 1016.3 |
| 20260831001035 | 80 | 195 | 0.9 | 2.6 | 0.00 | 0.00 | 0.00 | 68 | 1016.3 |
| 20260831000934 | 80 | 195 | 0.9 | 2.6 | 0.00 | 0.00 | 0.00 | 68 | 1016.3 |
| 20260831000833 | 81 | 189 | 0.9 | 2.6 | 0.00 | 0.00 | 0.00 | 68 | 1016.3 |
| 20260831000736 | 81 | 195 | 0.9 | 2.6 | 0.00 | 0.00 | 0.00 | 68 | 1016.3 |
| 20260831000636 | 81 | 196 | 0.9 | 1.7 | 0.00 | 0.00 | 0.00 | 68 | 1016.3 |
| 20260831000534 | 81 | 193 | 0.0 | 1.7 | 0.00 | 0.00 | 0.00 | 68 | 1016.3 |
| 20260831000432 | 81 | 196 | 0.0 | 1.7 | 0.00 | 0.00 | 0.00 | 68 | 1016.3 |
| 20260831000332 | 81 | 195 | 0.0 | 1.7 | 0.00 | 0.00 | 0.00 | 68 | 1016.3 |
| 20260831000241 | 81 | 195 | 0.0 | 2.6 | 0.00 | 0.00 | 0.00 | 67 | 1016.3 |
| 20260831000150 | 81 | 193 | 0.0 | 2.6 | 0.00 | 0.00 | 0.00 | 67 | 1016.3 |
| 20260831000029 | 81 | 189 | 0.9 | 2.6 | 0.00 | 0.00 | 0.00 | 67 | 1016.3 |
| 20260830235951 | 81 | 195 | 0.0 | 2.6 | 0.00 | 0.00 | 0.00 | 67 | 1016.3 |
| 20260830235828 | 81 | 195 | 0.0 | 2.6 | 0.00 | 0.00 | 0.00 | 67 | 1016.3 |
| 20260830235748 | 81 | 195 | 0.0 | 2.6 | 0.00 | 0.00 | 0.00 | 67 | 1016.3 |
| 20260830235646 | 81 | 193 | 0.0 | 2.6 | 0.00 | 0.00 | 0.00 | 67 | 1016.3 |
| 20260830235544 | 81 | 195 | 0.9 | 2.6 | 0.00 | 0.00 | 0.00 | 67 | 1016.3 |
| 20260830235442 | 81 | 195 | 0.9 | 2.6 | 0.00 | 0.00 | 0.00 | 66 | 1016.3 |
| 20260830235342 | 81 | 195 | 0.9 | 2.6 | 0.00 | 0.00 | 0.00 | 66 | 1016.3 |
| 20260830235237 | 81 | 195 | 0.9 | 2.6 | 0.00 | 0.00 | 0.00 | 66 | 1016.3 |
| 20260830235138 | 81 | 195 | 0.9 | 2.6 | 0.00 | 0.00 | 0.00 | 66 | 1016.3 |
| 20260830235037 | 81 | 196 | 0.9 | 2.6 | 0.00 | 0.00 | 0.00 | 66 | 1016.3 |
| 20260830234934 | 81 | 193 | 1.7 | 2.6 | 0.00 | 0.00 | 0.00 | 66 | 1016.3 |
| 20260830234834 | 81 | 195 | 1.7 | 2.6 | 0.00 | 0.00 | 0.00 | 66 | 1016.3 |
| 20260830234734 | 81 | 195 | 0.0 | 2.6 | 0.00 | 0.00 | 0.00 | 66 | 1016.3 |
| 20260830234703 | 81 | 195 | 0.9 | 2.6 | 0.00 | 0.00 | 0.00 | 66 | 1016.3 |
| 20260830234601 | 81 | 193 | 0.9 | 2.6 | 0.00 | 0.00 | 0.00 | 66 | 1016.3 |
| 20260830234443 | 81 | 195 | 1.7 | 2.6 | 0.00 | 0.00 | 0.00 | 66 | 1016.3 |
| 20260830234343 | 81 | 192 | 1.7 | 2.6 | 0.00 | 0.00 | 0.00 | 66 | 1016.3 |
| 20260830234242 | 81 | 195 | 0.9 | 2.6 | 0.00 | 0.00 | 0.00 | 66 | 1016.5 |
| 20260830234141 | 81 | 196 | 0.9 | 1.7 | 0.00 | 0.00 | 0.00 | 65 | 1016.5 |
| 20260830234040 | 81 | 193 | 1.7 | 1.7 | 0.00 | 0.00 | 0.00 | 65 | 1016.5 |
| 20260830233937 | 81 | 193 | 1.7 | 2.6 | 0.00 | 0.00 | 0.00 | 65 | 1016.5 |
| 20260830233834 | 81 | 195 | 0.9 | 2.6 | 0.00 | 0.00 | 0.00 | 65 | 1016.5 |
| 20260830233739 | 81 | 195 | 0.9 | 2.6 | 0.00 | 0.00 | 0.00 | 65 | 1016.5 |
| 20260830233639 | 81 | 195 | 0.9 | 2.6 | 0.00 | 0.00 | 0.00 | 65 | 1016.5 |
| 20260830233537 | 81 | 195 | 0.9 | 2.6 | 0.00 | 0.00 | 0.00 | 65 | 1016.5 |
| 20260830233456 | 82 | 196 | 0.9 | 2.6 | 0.00 | 0.00 | 0.00 | 65 | 1016.5 |
| 20260830233416 | 82 | 195 | 0.9 | 2.6 | 0.00 | 0.00 | 0.00 | 65 | 1016.5 |
| 20260830233315 | 82 | 195 | 0.0 | 2.6 | 0.00 | 0.00 | 0.00 | 65 | 1016.5 |
| 20260830233224 | 82 | 196 | 0.9 | 5.2 | 0.00 | 0.00 | 0.00 | 65 | 1016.5 |
| 20260830233039 | 82 | 195 | 0.9 | 5.2 | 0.00 | 0.00 | 0.00 | 65 | 1016.5 |
| 20260830232938 | 82 | 195 | 0.9 | 5.2 | 0.00 | 0.00 | 0.00 | 65 | 1016.5 |
| 20260830232841 | 82 | 195 | 0.9 | 5.2 | 0.00 | 0.00 | 0.00 | 65 | 1016.5 |
| 20260830232739 | 82 | 195 | 0.0 | 5.2 | 0.00 | 0.00 | 0.00 | 65 | 1016.4 |
| 20260830232637 | 82 | 193 | 0.9 | 5.2 | 0.00 | 0.00 | 0.00 | 64 | 1016.4 |
| 20260830232537 | 82 | 195 | 0.9 | 5.2 | 0.00 | 0.00 | 0.00 | 64 | 1016.4 |
| 20260830232434 | 82 | 195 | 0.9 | 5.2 | 0.00 | 0.00 | 0.00 | 64 | 1016.4 |
| 20260830232332 | 82 | 189 | 2.6 | 5.2 | 0.00 | 0.00 | 0.00 | 64 | 1016.4 |
| 20260830232235 | 82 | 200 | 1.7 | 4.3 | 0.00 | 0.00 | 0.00 | 64 | 1016.4 |
| 20260830232153 | 82 | 199 | 0.9 | 4.3 | 0.00 | 0.00 | 0.00 | 64 | 1016.4 |
| 20260830232030 | 82 | 199 | 0.9 | 4.3 | 0.00 | 0.00 | 0.00 | 64 | 1016.4 |
| 20260830231929 | 82 | 199 | 0.0 | 4.3 | 0.00 | 0.00 | 0.00 | 65 | 1016.4 |
| 20260830231829 | 82 | 199 | 1.7 | 4.3 | 0.00 | 0.00 | 0.00 | 65 | 1016.4 |
| 20260830231727 | 82 | 200 | 0.9 | 4.3 | 0.00 | 0.00 | 0.00 | 64 | 1016.4 |
| 20260830231656 | 82 | 199 | 2.6 | 4.3 | 0.00 | 0.00 | 0.00 | 64 | 1016.4 |
| 20260830231535 | 82 | 203 | 1.7 | 4.3 | 0.00 | 0.00 | 0.00 | 64 | 1016.4 |
| 20260830231437 | 82 | 208 | 1.7 | 2.6 | 0.00 | 0.00 | 0.00 | 64 | 1016.4 |
| 20260830231339 | 82 | 208 | 1.7 | 2.6 | 0.00 | 0.00 | 0.00 | 64 | 1016.4 |
| 20260830231236 | 82 | 212 | 0.9 | 1.7 | 0.00 | 0.00 | 0.00 | 64 | 1016.2 |
| 20260830231136 | 82 | 212 | 0.0 | 2.6 | 0.00 | 0.00 | 0.00 | 64 | 1016.2 |
| 20260830231035 | 82 | 212 | 0.0 | 2.6 | 0.00 | 0.00 | 0.00 | 63 | 1016.2 |
| 20260830230934 | 82 | 210 | 0.0 | 2.6 | 0.00 | 0.00 | 0.00 | 63 | 1016.2 |
| 20260830230853 | 82 | 212 | 0.0 | 2.6 | 0.00 | 0.00 | 0.00 | 63 | 1016.2 |
| 20260830230730 | 82 | 212 | 0.0 | 2.6 | 0.00 | 0.00 | 0.00 | 63 | 1016.2 |
| 20260830230633 | 82 | 212 | 0.9 | 2.6 | 0.00 | 0.00 | 0.00 | 63 | 1016.2 |
| 20260830230532 | 83 | 212 | 0.0 | 2.6 | 0.00 | 0.00 | 0.00 | 63 | 1016.2 |
| 20260830230453 | 83 | 210 | 0.0 | 2.6 | 0.00 | 0.00 | 0.00 | 63 | 1016.2 |
| 20260830230350 | 83 | 212 | 0.9 | 2.6 | 0.00 | 0.00 | 0.00 | 63 | 1016.2 |
| 20260830230229 | 83 | 213 | 1.7 | 2.6 | 0.00 | 0.00 | 0.00 | 63 | 1016.2 |
| 20260830230201 | 83 | 216 | 0.9 | 2.6 | 0.00 | 0.00 | 0.00 | 64 | 1016.2 |
| 20260830230058 | 83 | 217 | 0.9 | 2.6 | 0.00 | 0.00 | 0.00 | 63 | 1016.2 |
| 20260830225937 | 83 | 213 | 1.7 | 2.6 | 0.00 | 0.00 | 0.00 | 64 | 1016.2 |
| 20260830225840 | 83 | 217 | 0.9 | 2.6 | 0.00 | 0.00 | 0.00 | 64 | 1016.2 |
| 20260830225740 | 83 | 213 | 0.0 | 2.6 | 0.00 | 0.00 | 0.00 | 64 | 1016.1 |
| 20260830225639 | 83 | 219 | 0.9 | 2.6 | 0.00 | 0.00 | 0.00 | 64 | 1016.1 |
| 20260830225538 | 83 | 217 | 0.9 | 2.6 | 0.00 | 0.00 | 0.00 | 64 | 1016.1 |
| 20260830225436 | 83 | 215 | 0.0 | 4.3 | 0.00 | 0.00 | 0.00 | 64 | 1016.1 |
| 20260830225335 | 83 | 217 | 0.0 | 4.3 | 0.00 | 0.00 | 0.00 | 64 | 1016.1 |
| 20260830225234 | 83 | 219 | 0.0 | 4.3 | 0.00 | 0.00 | 0.00 | 64 | 1016.1 |
| 20260830225137 | 83 | 219 | 0.9 | 4.3 | 0.00 | 0.00 | 0.00 | 64 | 1016.1 |
| 20260830225037 | 83 | 217 | 0.9 | 4.3 | 0.00 | 0.00 | 0.00 | 63 | 1016.1 |
| 20260830224955 | 83 | 219 | 0.9 | 4.3 | 0.00 | 0.00 | 0.00 | 63 | 1016.1 |
| 20260830224852 | 83 | 219 | 0.9 | 5.2 | 0.00 | 0.00 | 0.00 | 63 | 1016.1 |
| 20260830224750 | 83 | 220 | 0.0 | 7.0 | 0.00 | 0.00 | 0.00 | 62 | 1016.1 |
| 20260830224720 | 83 | 219 | 0.9 | 7.0 | 0.00 | 0.00 | 0.00 | 62 | 1016.1 |
| 20260830224537 | 83 | 213 | 1.7 | 7.0 | 0.00 | 0.00 | 0.00 | 62 | 1016.1 |
| 20260830224435 | 83 | 205 | 1.7 | 7.0 | 0.00 | 0.00 | 0.00 | 62 | 1016.1 |
| 20260830224337 | 83 | 202 | 0.9 | 7.0 | 0.00 | 0.00 | 0.00 | 63 | 1016.1 |
| 20260830224235 | 83 | 203 | 0.9 | 7.0 | 0.00 | 0.00 | 0.00 | 63 | 1016.0 |
| 20260830224134 | 83 | 202 | 3.5 | 7.0 | 0.00 | 0.00 | 0.00 | 62 | 1016.0 |
| 20260830224054 | 83 | 202 | 3.5 | 7.0 | 0.00 | 0.00 | 0.00 | 62 | 1016.0 |
| 20260830223931 | 83 | 199 | 5.2 | 7.0 | 0.00 | 0.00 | 0.00 | 63 | 1016.0 |
| 20260830223850 | 83 | 202 | 3.5 | 6.1 | 0.00 | 0.00 | 0.00 | 64 | 1016.0 |
| 20260830223728 | 83 | 193 | 1.7 | 6.1 | 0.00 | 0.00 | 0.00 | 63 | 1016.0 |
| 20260830223626 | 83 | 193 | 4.3 | 6.1 | 0.00 | 0.00 | 0.00 | 64 | 1016.0 |
| 20260830223529 | 83 | 191 | 1.7 | 6.1 | 0.00 | 0.00 | 0.00 | 64 | 1016.0 |
| 20260830223429 | 83 | 185 | 2.6 | 6.1 | 0.00 | 0.00 | 0.00 | 62 | 1016.0 |
| 20260830223327 | 83 | 165 | 0.0 | 5.2 | 0.00 | 0.00 | 0.00 | 63 | 1016.0 |
| 20260830223246 | 83 | 167 | 0.9 | 5.2 | 0.00 | 0.00 | 0.00 | 62 | 1016.0 |
| 20260830223217 | 83 | 164 | 0.9 | 5.2 | 0.00 | 0.00 | 0.00 | 62 | 1016.0 |
| 20260830223033 | 83 | 161 | 0.9 | 5.2 | 0.00 | 0.00 | 0.00 | 62 | 1016.0 |
| 20260830222931 | 83 | 162 | 1.7 | 5.2 | 0.00 | 0.00 | 0.00 | 62 | 1016.0 |
| 20260830222835 | 83 | 157 | 1.7 | 5.2 | 0.00 | 0.00 | 0.00 | 62 | 1016.0 |
| 20260830222734 | 83 | 158 | 2.6 | 5.2 | 0.00 | 0.00 | 0.00 | 62 | 1016.2 |
| 20260830222654 | 83 | 162 | 2.6 | 5.2 | 0.00 | 0.00 | 0.00 | 62 | 1016.2 |
| 20260830222531 | 83 | 168 | 3.5 | 5.2 | 0.00 | 0.00 | 0.00 | 63 | 1016.2 |
| 20260830222429 | 83 | 172 | 1.7 | 5.2 | 0.00 | 0.00 | 0.00 | 63 | 1016.2 |
| 20260830222330 | 83 | 171 | 3.5 | 5.2 | 0.00 | 0.00 | 0.00 | 63 | 1016.2 |
| 20260830222228 | 83 | 176 | 2.6 | 5.2 | 0.00 | 0.00 | 0.00 | 63 | 1016.2 |
| 20260830222133 | 83 | 182 | 2.6 | 5.2 | 0.00 | 0.00 | 0.00 | 63 | 1016.2 |
| 20260830222053 | 83 | 184 | 1.7 | 5.2 | 0.00 | 0.00 | 0.00 | 63 | 1016.2 |
| 20260830221930 | 83 | 189 | 0.9 | 5.2 | 0.00 | 0.00 | 0.00 | 62 | 1016.2 |
| 20260830221828 | 83 | 188 | 0.0 | 5.2 | 0.00 | 0.00 | 0.00 | 63 | 1016.2 |
| 20260830221747 | 83 | 191 | 2.6 | 5.2 | 0.00 | 0.00 | 0.00 | 62 | 1016.2 |
| 20260830221657 | 83 | 192 | 2.6 | 5.2 | 0.00 | 0.00 | 0.00 | 62 | 1016.2 |
| 20260830221534 | 83 | 179 | 0.9 | 5.2 | 0.00 | 0.00 | 0.00 | 62 | 1016.2 |
| 20260830221433 | 83 | 182 | 2.6 | 5.2 | 0.00 | 0.00 | 0.00 | 62 | 1016.2 |
| 20260830221336 | 83 | 178 | 2.6 | 3.5 | 0.00 | 0.00 | 0.00 | 62 | 1016.2 |
| 20260830221235 | 83 | 182 | 1.7 | 5.2 | 0.00 | 0.00 | 0.00 | 62 | 1016.2 |
| 20260830221137 | 83 | 182 | 0.0 | 5.2 | 0.00 | 0.00 | 0.00 | 62 | 1016.2 |
| 20260830221035 | 83 | 182 | 0.9 | 5.2 | 0.00 | 0.00 | 0.00 | 62 | 1016.2 |
| 20260830220954 | 83 | 164 | 0.9 | 5.2 | 0.00 | 0.00 | 0.00 | 61 | 1016.2 |
| 20260830220831 | 83 | 154 | 0.0 | 5.2 | 0.00 | 0.00 | 0.00 | 61 | 1016.2 |
| 20260830220729 | 83 | 154 | 0.9 | 5.2 | 0.00 | 0.00 | 0.00 | 60 | 1016.2 |
| 20260830220650 | 83 | 151 | 0.0 | 6.1 | 0.00 | 0.00 | 0.00 | 61 | 1016.2 |
| 20260830220531 | 83 | 151 | 0.9 | 7.8 | 0.00 | 0.00 | 0.00 | 61 | 1016.2 |
| 20260830220430 | 83 | 154 | 1.7 | 7.8 | 0.00 | 0.00 | 0.00 | 62 | 1016.2 |
| 20260830220329 | 83 | 152 | 2.6 | 7.8 | 0.00 | 0.00 | 0.00 | 62 | 1016.2 |
| 20260830220229 | 83 | 150 | 3.5 | 7.8 | 0.00 | 0.00 | 0.00 | 62 | 1016.2 |
| 20260830220200 | 83 | 144 | 3.5 | 7.8 | 0.00 | 0.00 | 0.00 | 62 | 1016.2 |
| 20260830220055 | 83 | 196 | 0.9 | 7.8 | 0.00 | 0.00 | 0.00 | 62 | 1016.2 |
| 20260830215937 | 83 | 196 | 0.9 | 7.8 | 0.00 | 0.00 | 0.00 | 62 | 1016.2 |
| 20260830215838 | 83 | 193 | 4.3 | 7.8 | 0.00 | 0.00 | 0.00 | 62 | 1016.2 |
| 20260830215740 | 83 | 213 | 5.2 | 7.8 | 0.00 | 0.00 | 0.00 | 62 | 1016.3 |
| 20260830215639 | 83 | 210 | 4.3 | 7.8 | 0.00 | 0.00 | 0.00 | 61 | 1016.3 |
| 20260830215538 | 83 | 147 | 0.9 | 6.1 | 0.00 | 0.00 | 0.00 | 61 | 1016.3 |
| 20260830215437 | 83 | 144 | 0.9 | 6.1 | 0.00 | 0.00 | 0.00 | 61 | 1016.3 |
| 20260830215336 | 83 | 145 | 1.7 | 6.1 | 0.00 | 0.00 | 0.00 | 62 | 1016.3 |
| 20260830215254 | 83 | 143 | 2.6 | 6.1 | 0.00 | 0.00 | 0.00 | 62 | 1016.3 |
| 20260830215152 | 83 | 143 | 1.7 | 6.1 | 0.00 | 0.00 | 0.00 | 62 | 1016.3 |
| 20260830215050 | 83 | 141 | 1.7 | 6.1 | 0.00 | 0.00 | 0.00 | 62 | 1016.3 |
| 20260830214947 | 83 | 127 | 4.3 | 6.1 | 0.00 | 0.00 | 0.00 | 62 | 1016.3 |
| 20260830214828 | 83 | 152 | 2.6 | 5.2 | 0.00 | 0.00 | 0.00 | 61 | 1016.3 |
| 20260830214727 | 83 | 158 | 1.7 | 5.2 | 0.00 | 0.00 | 0.00 | 61 | 1016.3 |
| 20260830214657 | 83 | 151 | 1.7 | 5.2 | 0.00 | 0.00 | 0.00 | 61 | 1016.3 |
| 20260830214536 | 83 | 148 | 3.5 | 5.2 | 0.00 | 0.00 | 0.00 | 61 | 1016.3 |
| 20260830214434 | 83 | 191 | 0.9 | 5.2 | 0.00 | 0.00 | 0.00 | 61 | 1016.3 |
| 20260830214354 | 83 | 193 | 1.7 | 5.2 | 0.00 | 0.00 | 0.00 | 62 | 1016.3 |
| 20260830214233 | 83 | 192 | 0.9 | 5.2 | 0.00 | 0.00 | 0.00 | 61 | 1016.1 |
| 20260830214136 | 83 | 192 | 0.0 | 5.2 | 0.00 | 0.00 | 0.00 | 61 | 1016.1 |
| 20260830214035 | 83 | 189 | 0.9 | 5.2 | 0.00 | 0.00 | 0.00 | 61 | 1016.1 |
| 20260830213934 | 83 | 193 | 1.7 | 5.2 | 0.00 | 0.00 | 0.00 | 62 | 1016.1 |
| 20260830213834 | 84 | 193 | 0.9 | 5.2 | 0.00 | 0.00 | 0.00 | 62 | 1016.1 |
| 20260830213733 | 84 | 192 | 0.9 | 5.2 | 0.00 | 0.00 | 0.00 | 61 | 1016.1 |
| 20260830213633 | 84 | 192 | 1.7 | 6.1 | 0.00 | 0.00 | 0.00 | 62 | 1016.1 |
| 20260830213532 | 84 | 178 | 2.6 | 6.1 | 0.00 | 0.00 | 0.00 | 62 | 1016.1 |
| 20260830213435 | 84 | 174 | 2.6 | 6.1 | 0.00 | 0.00 | 0.00 | 63 | 1016.1 |
| 20260830213335 | 84 | 200 | 0.9 | 6.1 | 0.00 | 0.00 | 0.00 | 63 | 1016.1 |
| 20260830213254 | 84 | 205 | 0.0 | 6.1 | 0.00 | 0.00 | 0.00 | 62 | 1016.1 |
| 20260830213204 | 84 | 202 | 0.9 | 6.1 | 0.00 | 0.00 | 0.00 | 62 | 1016.1 |
| 20260830213041 | 84 | 199 | 0.9 | 6.1 | 0.00 | 0.00 | 0.00 | 62 | 1016.1 |
| 20260830212939 | 84 | 196 | 2.6 | 6.1 | 0.00 | 0.00 | 0.00 | 62 | 1016.1 |
| 20260830212836 | 84 | 212 | 5.2 | 6.1 | 0.00 | 0.00 | 0.00 | 62 | 1016.1 |
| 20260830212738 | 84 | 196 | 3.5 | 6.1 | 0.00 | 0.00 | 0.00 | 62 | 1016.3 |
| 20260830212637 | 84 | 167 | 0.9 | 5.2 | 0.00 | 0.00 | 0.00 | 62 | 1016.3 |
| 20260830212536 | 84 | 161 | 1.7 | 6.1 | 0.00 | 0.00 | 0.00 | 62 | 1016.3 |
| 20260830212435 | 84 | 164 | 0.0 | 6.1 | 0.00 | 0.00 | 0.00 | 62 | 1016.3 |
| 20260830212334 | 84 | 164 | 2.6 | 6.1 | 0.00 | 0.00 | 0.00 | 62 | 1016.3 |
| 20260830212232 | 84 | 169 | 1.7 | 6.1 | 0.00 | 0.00 | 0.00 | 61 | 1016.3 |
| 20260830212131 | 84 | 213 | 0.9 | 6.1 | 0.00 | 0.00 | 0.00 | 61 | 1016.3 |
| 20260830212033 | 84 | 215 | 2.6 | 6.1 | 0.00 | 0.00 | 0.00 | 62 | 1016.3 |
| 20260830211933 | 84 | 208 | 1.7 | 6.1 | 0.00 | 0.00 | 0.00 | 62 | 1016.3 |
| 20260830211831 | 84 | 203 | 1.7 | 6.1 | 0.00 | 0.00 | 0.00 | 61 | 1016.3 |
| 20260830211730 | 84 | 226 | 1.7 | 6.1 | 0.00 | 0.00 | 0.00 | 61 | 1016.3 |
| 20260830211700 | 84 | 210 | 2.6 | 6.1 | 0.00 | 0.00 | 0.00 | 62 | 1016.3 |
| 20260830211539 | 84 | 196 | 2.6 | 6.1 | 0.00 | 0.00 | 0.00 | 62 | 1016.3 |
| 20260830211437 | 84 | 200 | 1.7 | 6.1 | 0.00 | 0.00 | 0.00 | 62 | 1016.3 |
| 20260830211341 | 84 | 209 | 1.7 | 6.1 | 0.00 | 0.00 | 0.00 | 61 | 1016.3 |
| 20260830211238 | 84 | 155 | 2.6 | 6.1 | 0.00 | 0.00 | 0.00 | 61 | 1016.4 |
| 20260830211139 | 84 | 155 | 2.6 | 6.1 | 0.00 | 0.00 | 0.00 | 60 | 1016.4 |
| 20260830211039 | 84 | 157 | 1.7 | 6.1 | 0.00 | 0.00 | 0.00 | 60 | 1016.4 |
| 20260830210937 | 84 | 155 | 2.6 | 6.1 | 0.00 | 0.00 | 0.00 | 60 | 1016.4 |
| 20260830210837 | 84 | 128 | 3.5 | 6.1 | 0.00 | 0.00 | 0.00 | 60 | 1016.4 |
| 20260830210739 | 84 | 119 | 3.5 | 6.1 | 0.00 | 0.00 | 0.00 | 62 | 1016.4 |
| 20260830210638 | 84 | 124 | 3.5 | 6.1 | 0.00 | 0.00 | 0.00 | 63 | 1016.4 |
| 20260830210558 | 84 | 116 | 1.7 | 7.0 | 0.00 | 0.00 | 0.00 | 62 | 1016.4 |
| 20260830210435 | 84 | 109 | 1.7 | 7.0 | 0.00 | 0.00 | 0.00 | 62 | 1016.4 |
| 20260830210355 | 84 | 107 | 1.7 | 7.0 | 0.00 | 0.00 | 0.00 | 61 | 1016.4 |
| 20260830210253 | 84 | 113 | 1.7 | 7.0 | 0.00 | 0.00 | 0.00 | 62 | 1016.4 |
| 20260830210203 | 84 | 107 | 1.7 | 7.0 | 0.00 | 0.00 | 0.00 | 62 | 1016.4 |
| 20260830210039 | 84 | 110 | 1.7 | 7.0 | 0.00 | 0.00 | 0.00 | 62 | 1016.4 |
| 20260830205958 | 84 | 175 | 2.6 | 7.0 | 0.00 | 0.00 | 0.00 | 62 | 1016.4 |
| 20260830205840 | 84 | 208 | 2.6 | 7.0 | 0.00 | 0.00 | 0.00 | 63 | 1016.4 |
| 20260830205739 | 84 | 195 | 3.5 | 7.0 | 0.00 | 0.00 | 0.00 | 62 | 1016.5 |
| 20260830205637 | 84 | 198 | 0.9 | 7.0 | 0.00 | 0.00 | 0.00 | 62 | 1016.5 |
| 20260830205556 | 84 | 199 | 0.0 | 7.0 | 0.00 | 0.00 | 0.00 | 62 | 1016.5 |
| 20260830205433 | 84 | 196 | 1.7 | 7.0 | 0.00 | 0.00 | 0.00 | 61 | 1016.5 |
| 20260830205332 | 84 | 195 | 0.0 | 7.0 | 0.00 | 0.00 | 0.00 | 61 | 1016.5 |
| 20260830205232 | 84 | 196 | 1.7 | 7.0 | 0.00 | 0.00 | 0.00 | 61 | 1016.5 |
| 20260830205127 | 84 | 192 | 3.5 | 7.0 | 0.00 | 0.00 | 0.00 | 61 | 1016.5 |
| 20260830205050 | 84 | 186 | 1.7 | 7.0 | 0.00 | 0.00 | 0.00 | 61 | 1016.5 |
| 20260830204948 | 84 | 196 | 3.5 | 7.0 | 0.00 | 0.00 | 0.00 | 60 | 1016.5 |
| 20260830204826 | 84 | 189 | 2.6 | 5.2 | 0.00 | 0.00 | 0.00 | 60 | 1016.5 |
| 20260830204725 | 84 | 181 | 1.7 | 6.1 | 0.00 | 0.00 | 0.00 | 60 | 1016.5 |
| 20260830204654 | 84 | 179 | 1.7 | 6.1 | 0.00 | 0.00 | 0.00 | 61 | 1016.5 |
| 20260830204533 | 84 | 178 | 2.6 | 6.1 | 0.00 | 0.00 | 0.00 | 62 | 1016.5 |
| 20260830204431 | 84 | 195 | 2.6 | 6.1 | 0.00 | 0.00 | 0.00 | 61 | 1016.5 |
| 20260830204349 | 84 | 88 | 2.6 | 6.1 | 0.00 | 0.00 | 0.00 | 61 | 1016.5 |
| 20260830204226 | 84 | 51 | 2.6 | 7.0 | 0.00 | 0.00 | 0.00 | 61 | 1016.8 |
| 20260830204148 | 84 | 48 | 1.7 | 7.0 | 0.00 | 0.00 | 0.00 | 60 | 1016.8 |
| 20260830204046 | 84 | 49 | 0.0 | 7.0 | 0.00 | 0.00 | 0.00 | 61 | 1016.8 |
| 20260830203943 | 84 | 49 | 1.7 | 7.0 | 0.00 | 0.00 | 0.00 | 61 | 1016.8 |
| 20260830203841 | 84 | 49 | 2.6 | 7.0 | 0.00 | 0.00 | 0.00 | 60 | 1016.8 |
| 20260830203740 | 84 | 114 | 2.6 | 7.0 | 0.00 | 0.00 | 0.00 | 60 | 1016.8 |
| 20260830203638 | 83 | 114 | 2.6 | 7.0 | 0.00 | 0.00 | 0.00 | 61 | 1016.8 |
| 20260830203534 | 83 | 109 | 3.5 | 7.0 | 0.00 | 0.00 | 0.00 | 61 | 1016.8 |
| 20260830203453 | 83 | 97 | 5.2 | 7.0 | 0.00 | 0.00 | 0.00 | 62 | 1016.8 |
| 20260830203350 | 83 | 141 | 2.6 | 5.2 | 0.00 | 0.00 | 0.00 | 62 | 1016.8 |
| 20260830203231 | 83 | 203 | 0.9 | 5.2 | 0.00 | 0.00 | 0.00 | 62 | 1016.8 |
| 20260830203202 | 83 | 202 | 0.9 | 5.2 | 0.00 | 0.00 | 0.00 | 62 | 1016.8 |
| 20260830203100 | 83 | 202 | 2.6 | 5.2 | 0.00 | 0.00 | 0.00 | 62 | 1016.8 |
| 20260830202938 | 83 | 133 | 0.0 | 4.3 | 0.00 | 0.00 | 0.00 | 61 | 1016.8 |
| 20260830202835 | 83 | 134 | 0.9 | 4.3 | 0.00 | 0.00 | 0.00 | 62 | 1016.8 |
| 20260830202734 | 83 | 134 | 1.7 | 5.2 | 0.00 | 0.00 | 0.00 | 62 | 1016.8 |
| 20260830202653 | 84 | 92 | 0.0 | 5.2 | 0.00 | 0.00 | 0.00 | 62 | 1016.8 |
| 20260830202531 | 84 | 89 | 0.0 | 5.2 | 0.00 | 0.00 | 0.00 | 61 | 1016.8 |
| 20260830202433 | 84 | 90 | 0.0 | 5.2 | 0.00 | 0.00 | 0.00 | 60 | 1016.8 |
| 20260830202332 | 84 | 92 | 0.0 | 7.0 | 0.00 | 0.00 | 0.00 | 60 | 1016.8 |
| 20260830202231 | 84 | 92 | 0.9 | 7.0 | 0.00 | 0.00 | 0.00 | 60 | 1016.8 |
| 20260830202150 | 84 | 90 | 1.7 | 7.0 | 0.00 | 0.00 | 0.00 | 59 | 1016.8 |
| 20260830202028 | 84 | 89 | 0.9 | 7.0 | 0.00 | 0.00 | 0.00 | 59 | 1016.8 |
| 20260830201926 | 84 | 90 | 2.6 | 7.0 | 0.00 | 0.00 | 0.00 | 60 | 1016.8 |
| 20260830201843 | 84 | 86 | 2.6 | 7.0 | 0.00 | 0.00 | 0.00 | 60 | 1016.8 |
| 20260830201754 | 84 | 96 | 0.0 | 7.0 | 0.00 | 0.00 | 0.00 | 59 | 1016.8 |
| 20260830201646 | 84 | 96 | 2.6 | 7.0 | 0.00 | 0.00 | 0.00 | 59 | 1016.8 |
| 20260830201543 | 84 | 96 | 4.3 | 7.0 | 0.00 | 0.00 | 0.00 | 60 | 1016.8 |
| 20260830201444 | 84 | 76 | 4.3 | 6.1 | 0.00 | 0.00 | 0.00 | 61 | 1016.8 |
| 20260830201343 | 84 | 110 | 4.3 | 6.1 | 0.00 | 0.00 | 0.00 | 61 | 1016.8 |
| 20260830201301 | 84 | 110 | 2.6 | 6.1 | 0.00 | 0.00 | 0.00 | 61 | 1017.0 |
| 20260830201159 | 84 | 172 | 0.0 | 6.1 | 0.00 | 0.00 | 0.00 | 60 | 1017.0 |
| 20260830201056 | 84 | 175 | 0.0 | 6.1 | 0.00 | 0.00 | 0.00 | 59 | 1017.0 |
| 20260830200934 | 84 | 174 | 0.0 | 6.1 | 0.00 | 0.00 | 0.00 | 60 | 1017.0 |
| 20260830200834 | 84 | 175 | 0.0 | 6.1 | 0.00 | 0.00 | 0.00 | 61 | 1017.0 |
| 20260830200736 | 84 | 175 | 0.9 | 6.1 | 0.00 | 0.00 | 0.00 | 62 | 1017.0 |
| 20260830200640 | 84 | 175 | 3.5 | 6.1 | 0.00 | 0.00 | 0.00 | 62 | 1017.0 |
| 20260830200538 | 84 | 162 | 1.7 | 6.1 | 0.00 | 0.00 | 0.00 | 62 | 1017.0 |
| 20260830200436 | 84 | 119 | 2.6 | 5.2 | 0.00 | 0.00 | 0.00 | 61 | 1017.0 |
| 20260830200354 | 84 | 116 | 3.5 | 5.2 | 0.00 | 0.00 | 0.00 | 60 | 1017.0 |
| 20260830200232 | 84 | 113 | 1.7 | 5.2 | 0.00 | 0.00 | 0.00 | 60 | 1017.0 |
| 20260830200202 | 84 | 110 | 0.9 | 5.2 | 0.00 | 0.00 | 0.00 | 60 | 1017.0 |
| 20260830200037 | 84 | 112 | 0.9 | 5.2 | 0.00 | 0.00 | 0.00 | 59 | 1017.0 |
| 20260830195939 | 84 | 113 | 0.0 | 5.2 | 0.00 | 0.00 | 0.00 | 59 | 1017.0 |
| 20260830195838 | 84 | 113 | 1.7 | 6.1 | 0.00 | 0.00 | 0.00 | 60 | 1017.0 |
| 20260830195757 | 84 | 112 | 3.5 | 6.1 | 0.00 | 0.00 | 0.00 | 59 | 1017.2 |
| 20260830195655 | 84 | 112 | 1.7 | 6.1 | 0.00 | 0.00 | 0.00 | 60 | 1017.2 |
| 20260830195553 | 84 | 110 | 2.6 | 6.1 | 0.00 | 0.00 | 0.00 | 60 | 1017.2 |
| 20260830195432 | 84 | 106 | 0.9 | 6.1 | 0.00 | 0.00 | 0.00 | 59 | 1017.2 |
| 20260830195350 | 84 | 106 | 0.9 | 6.1 | 0.00 | 0.00 | 0.00 | 60 | 1017.2 |
| 20260830195229 | 84 | 106 | 0.0 | 6.1 | 0.00 | 0.00 | 0.00 | 60 | 1017.2 |
| 20260830195128 | 84 | 106 | 0.0 | 7.0 | 0.00 | 0.00 | 0.00 | 60 | 1017.2 |
| 20260830195031 | 84 | 104 | 3.5 | 7.0 | 0.00 | 0.00 | 0.00 | 61 | 1017.2 |
| 20260830194931 | 84 | 127 | 3.5 | 7.0 | 0.00 | 0.00 | 0.00 | 60 | 1017.2 |
| 20260830194829 | 84 | 168 | 3.5 | 7.0 | 0.00 | 0.00 | 0.00 | 60 | 1017.2 |
| 20260830194728 | 84 | 148 | 4.3 | 7.0 | 0.00 | 0.00 | 0.00 | 59 | 1017.2 |
| 20260830194658 | 84 | 157 | 4.3 | 7.0 | 0.00 | 0.00 | 0.00 | 59 | 1017.2 |
| 20260830194555 | 84 | 144 | 4.3 | 7.0 | 0.00 | 0.00 | 0.00 | 60 | 1017.2 |
| 20260830194457 | 84 | 134 | 4.3 | 7.0 | 0.00 | 0.00 | 0.00 | 61 | 1017.2 |
| 20260830194336 | 84 | 157 | 5.2 | 7.0 | 0.00 | 0.00 | 0.00 | 62 | 1017.2 |
| 20260830194239 | 84 | 155 | 4.3 | 7.0 | 0.00 | 0.00 | 0.00 | 62 | 1017.2 |
| 20260830194139 | 84 | 199 | 1.7 | 6.1 | 0.00 | 0.00 | 0.00 | 62 | 1017.2 |
| 20260830194038 | 84 | 203 | 0.9 | 5.2 | 0.00 | 0.00 | 0.00 | 61 | 1017.2 |
| 20260830193937 | 84 | 200 | 0.9 | 5.2 | 0.00 | 0.00 | 0.00 | 61 | 1017.2 |
| 20260830193835 | 84 | 157 | 0.9 | 5.2 | 0.00 | 0.00 | 0.00 | 60 | 1017.2 |
| 20260830193733 | 84 | 150 | 3.5 | 5.2 | 0.00 | 0.00 | 0.00 | 62 | 1017.2 |
| 20260830193636 | 84 | 152 | 2.6 | 5.2 | 0.00 | 0.00 | 0.00 | 61 | 1017.2 |
| 20260830193555 | 84 | 158 | 1.7 | 5.2 | 0.00 | 0.00 | 0.00 | 61 | 1017.2 |
| 20260830193453 | 84 | 164 | 1.7 | 5.2 | 0.00 | 0.00 | 0.00 | 60 | 1017.2 |
| 20260830193331 | 84 | 161 | 3.5 | 5.2 | 0.00 | 0.00 | 0.00 | 59 | 1017.2 |
| 20260830193241 | 84 | 145 | 0.9 | 5.2 | 0.00 | 0.00 | 0.00 | 59 | 1017.2 |
| 20260830193151 | 84 | 144 | 0.9 | 5.2 | 0.00 | 0.00 | 0.00 | 61 | 1017.2 |
| 20260830193047 | 84 | 143 | 1.7 | 5.2 | 0.00 | 0.00 | 0.00 | 61 | 1017.2 |
| 20260830192944 | 85 | 141 | 1.7 | 5.2 | 0.00 | 0.00 | 0.00 | 61 | 1017.2 |
| 20260830192841 | 85 | 140 | 0.9 | 6.1 | 0.00 | 0.00 | 0.00 | 61 | 1017.2 |
| 20260830192739 | 85 | 137 | 1.7 | 7.0 | 0.00 | 0.00 | 0.00 | 61 | 1017.4 |
| 20260830192643 | 85 | 133 | 1.7 | 7.0 | 0.00 | 0.00 | 0.00 | 60 | 1017.4 |
| 20260830192541 | 85 | 131 | 3.5 | 7.0 | 0.00 | 0.00 | 0.00 | 60 | 1017.4 |
| 20260830192438 | 85 | 143 | 2.6 | 7.0 | 0.00 | 0.00 | 0.00 | 62 | 1017.4 |
| 20260830192336 | 85 | 136 | 2.6 | 7.0 | 0.00 | 0.00 | 0.00 | 59 | 1017.4 |
| 20260830192255 | 85 | 104 | 2.6 | 7.0 | 0.00 | 0.00 | 0.00 | 58 | 1017.4 |
| 20260830192153 | 85 | 103 | 3.5 | 7.0 | 0.00 | 0.00 | 0.00 | 58 | 1017.4 |
| 20260830192033 | 85 | 95 | 3.5 | 7.0 | 0.00 | 0.00 | 0.00 | 59 | 1017.4 |
| 20260830191951 | 85 | 95 | 4.3 | 7.0 | 0.00 | 0.00 | 0.00 | 59 | 1017.4 |
| 20260830191833 | 85 | 79 | 1.7 | 7.0 | 0.00 | 0.00 | 0.00 | 60 | 1017.4 |
| 20260830191753 | 85 | 158 | 0.9 | 7.0 | 0.00 | 0.00 | 0.00 | 60 | 1017.4 |
| 20260830191702 | 85 | 158 | 1.7 | 7.0 | 0.00 | 0.00 | 0.00 | 60 | 1017.4 |
| 20260830191538 | 85 | 151 | 0.9 | 7.0 | 0.00 | 0.00 | 0.00 | 60 | 1017.4 |
| 20260830191457 | 85 | 152 | 1.7 | 7.0 | 0.00 | 0.00 | 0.00 | 59 | 1017.4 |
| 20260830191355 | 85 | 141 | 2.6 | 7.0 | 0.00 | 0.00 | 0.00 | 60 | 1017.4 |
| 20260830191232 | 85 | 138 | 4.3 | 7.0 | 0.00 | 0.00 | 0.00 | 60 | 1017.4 |
| 20260830191132 | 85 | 136 | 5.2 | 7.0 | 0.00 | 0.00 | 0.00 | 60 | 1017.4 |
| 20260830191029 | 85 | 116 | 5.2 | 7.8 | 0.00 | 0.00 | 0.00 | 59 | 1017.4 |
| 20260830190931 | 85 | 154 | 2.6 | 7.8 | 0.00 | 0.00 | 0.00 | 60 | 1017.4 |
| 20260830190831 | 85 | 150 | 5.2 | 7.8 | 0.00 | 0.00 | 0.00 | 61 | 1017.4 |
| 20260830190729 | 85 | 157 | 2.6 | 7.8 | 0.00 | 0.00 | 0.00 | 61 | 1017.4 |
| 20260830190628 | 85 | 189 | 2.6 | 7.8 | 0.00 | 0.00 | 0.00 | 61 | 1017.4 |
| 20260830190528 | 85 | 185 | 2.6 | 7.8 | 0.00 | 0.00 | 0.00 | 60 | 1017.4 |
| 20260830190427 | 85 | 154 | 2.6 | 7.8 | 0.00 | 0.00 | 0.00 | 60 | 1017.4 |
| 20260830190329 | 85 | 168 | 3.5 | 7.8 | 0.00 | 0.00 | 0.00 | 60 | 1017.4 |
| 20260830190229 | 85 | 178 | 1.7 | 7.8 | 0.00 | 0.00 | 0.00 | 61 | 1017.4 |
| 20260830190158 | 85 | 178 | 0.9 | 7.8 | 0.00 | 0.00 | 0.00 | 61 | 1017.4 |
| 20260830190035 | 85 | 42 | 0.9 | 7.8 | 0.00 | 0.00 | 0.00 | 61 | 1017.4 |
| 20260830185933 | 85 | 41 | 1.7 | 7.8 | 0.00 | 0.00 | 0.00 | 61 | 1017.4 |
| 20260830185832 | 85 | 80 | 1.7 | 8.7 | 0.00 | 0.00 | 0.00 | 60 | 1017.4 |
| 20260830185729 | 85 | 80 | 5.2 | 8.7 | 0.00 | 0.00 | 0.00 | 60 | 1017.6 |
| 20260830185647 | 85 | 158 | 0.9 | 8.7 | 0.00 | 0.00 | 0.00 | 60 | 1017.6 |
| 20260830185529 | 85 | 160 | 0.9 | 8.7 | 0.00 | 0.00 | 0.00 | 59 | 1017.6 |
| 20260830185428 | 85 | 154 | 2.6 | 8.7 | 0.00 | 0.00 | 0.00 | 61 | 1017.6 |
| 20260830185326 | 85 | 131 | 4.3 | 8.7 | 0.00 | 0.00 | 0.00 | 61 | 1017.6 |
| 20260830185228 | 85 | 120 | 5.2 | 8.7 | 0.00 | 0.00 | 0.00 | 62 | 1017.6 |
| 20260830185129 | 85 | 181 | 5.2 | 8.7 | 0.00 | 0.00 | 0.00 | 60 | 1017.6 |
| 20260830185029 | 85 | 210 | 5.2 | 8.7 | 0.00 | 0.00 | 0.00 | 61 | 1017.6 |
| 20260830184927 | 85 | 150 | 4.3 | 7.0 | 0.00 | 0.00 | 0.00 | 61 | 1017.6 |
| 20260830184831 | 85 | 162 | 4.3 | 7.0 | 0.00 | 0.00 | 0.00 | 61 | 1017.6 |
| 20260830184740 | 85 | 182 | 4.3 | 7.0 | 0.00 | 0.00 | 0.00 | 62 | 1017.6 |
| 20260830184649 | 85 | 114 | 4.3 | 7.0 | 0.00 | 0.00 | 0.00 | 61 | 1017.6 |
| 20260830184527 | 85 | 124 | 5.2 | 7.0 | 0.00 | 0.00 | 0.00 | 62 | 1017.6 |
| 20260830184425 | 85 | 185 | 3.5 | 7.0 | 0.00 | 0.00 | 0.00 | 60 | 1017.6 |
| 20260830184343 | 85 | 96 | 1.7 | 7.0 | 0.00 | 0.00 | 0.00 | 59 | 1017.6 |
| 20260830184302 | 85 | 116 | 3.5 | 7.0 | 0.00 | 0.00 | 0.00 | 59 | 1017.9 |
| 20260830184159 | 85 | 127 | 2.6 | 7.0 | 0.00 | 0.00 | 0.00 | 58 | 1017.9 |
| 20260830184037 | 85 | 110 | 0.0 | 7.0 | 0.00 | 0.00 | 0.00 | 58 | 1017.9 |
| 20260830183940 | 85 | 109 | 1.7 | 7.0 | 0.00 | 0.00 | 0.00 | 59 | 1017.9 |
| 20260830183839 | 85 | 110 | 3.5 | 7.0 | 0.00 | 0.00 | 0.00 | 61 | 1017.9 |
| 20260830183739 | 85 | 123 | 2.6 | 6.1 | 0.00 | 0.00 | 0.00 | 59 | 1017.9 |
| 20260830183639 | 85 | 124 | 1.7 | 7.0 | 0.00 | 0.00 | 0.00 | 60 | 1017.9 |
| 20260830183536 | 85 | 114 | 1.7 | 7.0 | 0.00 | 0.00 | 0.00 | 61 | 1017.9 |
| 20260830183454 | 85 | 184 | 1.7 | 7.0 | 0.00 | 0.00 | 0.00 | 62 | 1017.9 |
| 20260830183331 | 85 | 184 | 1.7 | 7.0 | 0.00 | 0.00 | 0.00 | 62 | 1017.9 |
| 20260830183204 | 85 | 202 | 0.9 | 7.0 | 0.00 | 0.00 | 0.00 | 61 | 1017.9 |
| 20260830183101 | 85 | 164 | 2.6 | 7.0 | 0.00 | 0.00 | 0.00 | 61 | 1017.9 |
| 20260830182938 | 85 | 168 | 3.5 | 7.0 | 0.00 | 0.00 | 0.00 | 61 | 1017.9 |
| 20260830182837 | 85 | 162 | 4.3 | 7.0 | 0.00 | 0.00 | 0.00 | 60 | 1017.9 |
| 20260830182734 | 85 | 145 | 4.3 | 7.0 | 0.00 | 0.00 | 0.00 | 60 | 1018.1 |
| 20260830182632 | 85 | 147 | 3.5 | 7.0 | 0.00 | 0.00 | 0.00 | 61 | 1018.1 |
| 20260830182549 | 85 | 148 | 3.5 | 7.0 | 0.00 | 0.00 | 0.00 | 62 | 1018.1 |
| 20260830182432 | 85 | 130 | 4.3 | 7.0 | 0.00 | 0.00 | 0.00 | 62 | 1018.1 |
| 20260830182331 | 85 | 150 | 3.5 | 7.0 | 0.00 | 0.00 | 0.00 | 62 | 1018.1 |
| 20260830182229 | 85 | 202 | 2.6 | 7.0 | 0.00 | 0.00 | 0.00 | 62 | 1018.1 |
| 20260830182129 | 85 | 160 | 0.9 | 7.0 | 0.00 | 0.00 | 0.00 | 62 | 1018.1 |
| 20260830182029 | 85 | 136 | 1.7 | 8.7 | 0.00 | 0.00 | 0.00 | 61 | 1018.1 |
| 20260830181926 | 85 | 130 | 5.2 | 8.7 | 0.00 | 0.00 | 0.00 | 61 | 1018.1 |
| 20260830181825 | 85 | 133 | 3.5 | 8.7 | 0.00 | 0.00 | 0.00 | 62 | 1018.1 |
| 20260830181738 | 85 | 136 | 3.5 | 8.7 | 0.00 | 0.00 | 0.00 | 62 | 1018.1 |
| 20260830181647 | 85 | 145 | 2.6 | 8.7 | 0.00 | 0.00 | 0.00 | 61 | 1018.1 |
| 20260830181524 | 85 | 188 | 2.6 | 8.7 | 0.00 | 0.00 | 0.00 | 63 | 1018.1 |
| 20260830181442 | 85 | 184 | 3.5 | 8.7 | 0.00 | 0.00 | 0.00 | 63 | 1018.1 |
| 20260830181341 | 85 | 200 | 3.5 | 8.7 | 0.00 | 0.00 | 0.00 | 63 | 1018.1 |
| 20260830181300 | 85 | 158 | 3.5 | 8.7 | 0.00 | 0.00 | 0.00 | 62 | 1018.3 |
| 20260830181137 | 85 | 117 | 2.6 | 8.7 | 0.00 | 0.00 | 0.00 | 62 | 1018.3 |
| 20260830181034 | 85 | 158 | 4.3 | 7.8 | 0.00 | 0.00 | 0.00 | 63 | 1018.3 |
| 20260830180954 | 85 | 181 | 3.5 | 7.8 | 0.00 | 0.00 | 0.00 | 63 | 1018.3 |
| 20260830180832 | 85 | 152 | 3.5 | 7.8 | 0.00 | 0.00 | 0.00 | 62 | 1018.3 |
| 20260830180734 | 85 | 138 | 4.3 | 7.8 | 0.00 | 0.00 | 0.00 | 61 | 1018.3 |
| 20260830180633 | 85 | 92 | 4.3 | 7.8 | 0.00 | 0.00 | 0.00 | 60 | 1018.3 |
| 20260830180532 | 85 | 119 | 0.9 | 7.8 | 0.00 | 0.00 | 0.00 | 61 | 1018.3 |
| 20260830180451 | 85 | 120 | 0.9 | 7.8 | 0.00 | 0.00 | 0.00 | 62 | 1018.3 |
| 20260830180328 | 85 | 120 | 2.6 | 7.8 | 0.00 | 0.00 | 0.00 | 62 | 1018.3 |
| 20260830180238 | 85 | 106 | 3.5 | 7.8 | 0.00 | 0.00 | 0.00 | 64 | 1018.3 |
| 20260830180147 | 85 | 93 | 3.5 | 10.4 | 0.00 | 0.00 | 0.00 | 63 | 1018.3 |
| 20260830180028 | 85 | 85 | 5.2 | 10.4 | 0.00 | 0.00 | 0.00 | 62 | 1018.3 |
| 20260830175927 | 84 | 80 | 3.5 | 10.4 | 0.00 | 0.00 | 0.00 | 62 | 1018.3 |
| 20260830175825 | 84 | 116 | 2.6 | 10.4 | 0.00 | 0.00 | 0.00 | 62 | 1018.3 |
| 20260830175742 | 84 | 114 | 1.7 | 10.4 | 0.00 | 0.00 | 0.00 | 62 | 1018.5 |
| 20260830175641 | 84 | 120 | 2.6 | 10.4 | 0.00 | 0.00 | 0.00 | 62 | 1018.5 |
| 20260830175540 | 84 | 114 | 2.6 | 10.4 | 0.00 | 0.00 | 0.00 | 62 | 1018.5 |
| 20260830175459 | 84 | 130 | 2.6 | 10.4 | 0.00 | 0.00 | 0.00 | 61 | 1018.5 |
| 20260830175335 | 84 | 127 | 5.2 | 10.4 | 0.00 | 0.00 | 0.00 | 61 | 1018.5 |
| 20260830175239 | 84 | 134 | 6.1 | 10.4 | 0.00 | 0.00 | 0.00 | 62 | 1018.5 |
| 20260830175139 | 84 | 114 | 3.5 | 7.8 | 0.00 | 0.00 | 0.00 | 62 | 1018.5 |
| 20260830175037 | 84 | 144 | 5.2 | 7.8 | 0.00 | 0.00 | 0.00 | 64 | 1018.5 |
| 20260830174934 | 84 | 136 | 4.3 | 7.8 | 0.00 | 0.00 | 0.00 | 62 | 1018.5 |
| 20260830174833 | 84 | 76 | 2.6 | 7.0 | 0.00 | 0.00 | 0.00 | 63 | 1018.5 |
| 20260830174731 | 84 | 51 | 0.9 | 7.0 | 0.00 | 0.00 | 0.00 | 62 | 1018.5 |
| 20260830174700 | 84 | 51 | 1.7 | 7.0 | 0.00 | 0.00 | 0.00 | 62 | 1018.5 |
| 20260830174542 | 84 | 51 | 5.2 | 7.0 | 0.00 | 0.00 | 0.00 | 65 | 1018.5 |
| 20260830174442 | 84 | 116 | 3.5 | 8.7 | 0.00 | 0.00 | 0.00 | 66 | 1018.5 |
| 20260830174340 | 84 | 171 | 3.5 | 8.7 | 0.00 | 0.00 | 0.00 | 66 | 1018.5 |
| 20260830174239 | 84 | 191 | 2.6 | 8.7 | 0.00 | 0.00 | 0.00 | 66 | 1018.6 |
| 20260830174159 | 84 | 113 | 2.6 | 8.7 | 0.00 | 0.00 | 0.00 | 65 | 1018.6 |
| 20260830174036 | 84 | 113 | 4.3 | 8.7 | 0.00 | 0.00 | 0.00 | 65 | 1018.6 |
| 20260830173934 | 84 | 99 | 3.5 | 8.7 | 0.00 | 0.00 | 0.00 | 65 | 1018.6 |
| 20260830173836 | 84 | 195 | 3.5 | 8.7 | 0.00 | 0.00 | 0.00 | 65 | 1018.6 |
| 20260830173736 | 84 | 121 | 5.2 | 9.6 | 0.00 | 0.00 | 0.00 | 62 | 1018.6 |
| 20260830173632 | 84 | 112 | 5.2 | 10.4 | 0.00 | 0.00 | 0.00 | 63 | 1018.6 |
| 20260830173530 | 84 | 116 | 3.5 | 10.4 | 0.00 | 0.00 | 0.00 | 64 | 1018.6 |
| 20260830173425 | 84 | 161 | 3.5 | 10.4 | 0.00 | 0.00 | 0.00 | 64 | 1018.6 |
| 20260830173346 | 84 | 215 | 1.7 | 10.4 | 0.00 | 0.00 | 0.00 | 65 | 1018.6 |
| 20260830173227 | 84 | 216 | 2.6 | 10.4 | 0.00 | 0.00 | 0.00 | 64 | 1018.6 |
| 20260830173157 | 84 | 216 | 1.7 | 10.4 | 0.00 | 0.00 | 0.00 | 65 | 1018.6 |
| 20260830173037 | 84 | 217 | 3.5 | 10.4 | 0.00 | 0.00 | 0.00 | 65 | 1018.6 |
| 20260830172936 | 84 | 219 | 6.1 | 11.3 | 0.00 | 0.00 | 0.00 | 64 | 1018.6 |
| 20260830172856 | 84 | 124 | 7.8 | 11.3 | 0.00 | 0.00 | 0.00 | 64 | 1018.6 |
| 20260830172734 | 84 | 119 | 6.1 | 11.3 | 0.00 | 0.00 | 0.00 | 65 | 1018.9 |
| 20260830172632 | 84 | 151 | 3.5 | 11.3 | 0.00 | 0.00 | 0.00 | 66 | 1018.9 |
| 20260830172531 | 84 | 133 | 4.3 | 11.3 | 0.00 | 0.00 | 0.00 | 65 | 1018.9 |
| 20260830172430 | 84 | 106 | 4.3 | 11.3 | 0.00 | 0.00 | 0.00 | 64 | 1018.9 |
| 20260830172333 | 84 | 123 | 4.3 | 11.3 | 0.00 | 0.00 | 0.00 | 63 | 1018.9 |
| 20260830172253 | 84 | 96 | 4.3 | 11.3 | 0.00 | 0.00 | 0.00 | 65 | 1018.9 |
| 20260830172150 | 84 | 137 | 7.8 | 11.3 | 0.00 | 0.00 | 0.00 | 64 | 1018.9 |
| 20260830172029 | 84 | 99 | 5.2 | 11.3 | 0.00 | 0.00 | 0.00 | 64 | 1018.9 |
| 20260830171928 | 84 | 82 | 0.9 | 11.3 | 0.00 | 0.00 | 0.00 | 63 | 1018.9 |
| 20260830171826 | 84 | 78 | 2.6 | 11.3 | 0.00 | 0.00 | 0.00 | 64 | 1018.9 |
| 20260830171746 | 84 | 79 | 2.6 | 11.3 | 0.00 | 0.00 | 0.00 | 64 | 1018.9 |
| 20260830171716 | 84 | 86 | 0.9 | 11.3 | 0.00 | 0.00 | 0.00 | 64 | 1018.9 |
| 20260830171532 | 84 | 116 | 2.6 | 11.3 | 0.00 | 0.00 | 0.00 | 64 | 1018.9 |
| 20260830171436 | 84 | 131 | 1.7 | 11.3 | 0.00 | 0.00 | 0.00 | 65 | 1018.9 |
| 20260830171333 | 84 | 128 | 4.3 | 11.3 | 0.00 | 0.00 | 0.00 | 64 | 1018.9 |
| 20260830171253 | 84 | 121 | 4.3 | 11.3 | 0.00 | 0.00 | 0.00 | 64 | 1018.9 |
| 20260830171130 | 84 | 88 | 3.5 | 9.6 | 0.00 | 0.00 | 0.00 | 65 | 1018.9 |
| 20260830171051 | 84 | 106 | 3.5 | 9.6 | 0.00 | 0.00 | 0.00 | 64 | 1018.9 |
| 20260830170928 | 84 | 113 | 2.6 | 9.6 | 0.00 | 0.00 | 0.00 | 64 | 1018.9 |
| 20260830170826 | 84 | 157 | 1.7 | 11.3 | 0.00 | 0.00 | 0.00 | 65 | 1018.9 |
| 20260830170745 | 83 | 152 | 3.5 | 11.3 | 0.00 | 0.00 | 0.00 | 66 | 1018.9 |
| 20260830170630 | 83 | 172 | 2.6 | 11.3 | 0.00 | 0.00 | 0.00 | 66 | 1018.9 |
| 20260830170549 | 83 | 96 | 4.3 | 11.3 | 0.00 | 0.00 | 0.00 | 65 | 1018.9 |
| 20260830170426 | 83 | 110 | 7.0 | 11.3 | 0.00 | 0.00 | 0.00 | 63 | 1018.9 |
| 20260830170326 | 83 | 110 | 3.5 | 11.3 | 0.00 | 0.00 | 0.00 | 64 | 1018.9 |
| 20260830170236 | 83 | 89 | 5.2 | 11.3 | 0.00 | 0.00 | 0.00 | 64 | 1018.9 |
| 20260830170146 | 83 | 106 | 7.0 | 11.3 | 0.00 | 0.00 | 0.00 | 65 | 1018.9 |
| 20260830170043 | 83 | 110 | 8.7 | 11.3 | 0.00 | 0.00 | 0.00 | 66 | 1018.9 |
| 20260830165940 | 83 | 127 | 5.2 | 7.8 | 0.00 | 0.00 | 0.00 | 66 | 1018.9 |
| 20260830165843 | 83 | 162 | 4.3 | 10.4 | 0.00 | 0.00 | 0.00 | 67 | 1018.9 |
| 20260830165742 | 83 | 124 | 3.5 | 10.4 | 0.00 | 0.00 | 0.00 | 67 | 1019.1 |
| 20260830165641 | 83 | 162 | 2.6 | 10.4 | 0.00 | 0.00 | 0.00 | 68 | 1019.1 |
| 20260830165539 | 83 | 158 | 4.3 | 10.4 | 0.00 | 0.00 | 0.00 | 67 | 1019.1 |
| 20260830165437 | 83 | 151 | 5.2 | 10.4 | 0.00 | 0.00 | 0.00 | 67 | 1019.1 |
| 20260830165334 | 83 | 136 | 3.5 | 10.4 | 0.00 | 0.00 | 0.00 | 67 | 1019.1 |
| 20260830165233 | 83 | 130 | 3.5 | 10.4 | 0.00 | 0.00 | 0.00 | 67 | 1019.1 |
| 20260830165132 | 83 | 109 | 4.3 | 10.4 | 0.00 | 0.00 | 0.00 | 67 | 1019.1 |
| 20260830165034 | 83 | 121 | 7.0 | 10.4 | 0.00 | 0.00 | 0.00 | 68 | 1019.1 |
| 20260830164932 | 83 | 124 | 1.7 | 9.6 | 0.00 | 0.00 | 0.00 | 68 | 1019.1 |
| 20260830164832 | 83 | 162 | 4.3 | 9.6 | 0.00 | 0.00 | 0.00 | 68 | 1019.1 |
| 20260830164751 | 82 | 181 | 3.5 | 9.6 | 0.00 | 0.00 | 0.00 | 68 | 1019.1 |
| 20260830164700 | 82 | 193 | 3.5 | 9.6 | 0.00 | 0.00 | 0.00 | 68 | 1019.1 |
| 20260830164538 | 82 | 75 | 2.6 | 9.6 | 0.00 | 0.00 | 0.00 | 67 | 1019.1 |
| 20260830164438 | 82 | 75 | 4.3 | 9.6 | 0.00 | 0.00 | 0.00 | 67 | 1019.1 |
| 20260830164340 | 82 | 80 | 3.5 | 8.7 | 0.00 | 0.00 | 0.00 | 68 | 1019.1 |
| 20260830164239 | 82 | 96 | 5.2 | 8.7 | 0.00 | 0.00 | 0.00 | 68 | 1019.2 |
| 20260830164136 | 82 | 136 | 6.1 | 11.3 | 0.00 | 0.00 | 0.00 | 67 | 1019.2 |
| 20260830164034 | 82 | 109 | 4.3 | 11.3 | 0.00 | 0.00 | 0.00 | 68 | 1019.2 |
| 20260830163952 | 82 | 109 | 2.6 | 11.3 | 0.00 | 0.00 | 0.00 | 68 | 1019.2 |
| 20260830163849 | 82 | 107 | 4.3 | 11.3 | 0.00 | 0.00 | 0.00 | 68 | 1019.2 |
| 20260830163728 | 82 | 151 | 1.7 | 11.3 | 0.00 | 0.00 | 0.00 | 67 | 1019.2 |
| 20260830163626 | 82 | 151 | 0.9 | 11.3 | 0.00 | 0.00 | 0.00 | 68 | 1019.2 |
| 20260830163531 | 82 | 151 | 5.2 | 11.3 | 0.00 | 0.00 | 0.00 | 69 | 1019.2 |
| 20260830163430 | 82 | 169 | 4.3 | 11.3 | 0.00 | 0.00 | 0.00 | 69 | 1019.2 |
| 20260830163349 | 82 | 90 | 7.8 | 11.3 | 0.00 | 0.00 | 0.00 | 69 | 1019.2 |
| 20260830163227 | 82 | 73 | 2.6 | 6.1 | 0.00 | 0.00 | 0.00 | 69 | 1019.2 |
| 20260830163157 | 82 | 100 | 3.5 | 6.1 | 0.00 | 0.00 | 0.00 | 70 | 1019.2 |
| 20260830163035 | 82 | 114 | 3.5 | 6.1 | 0.00 | 0.00 | 0.00 | 69 | 1019.2 |
| 20260830162933 | 82 | 126 | 3.5 | 6.1 | 0.00 | 0.00 | 0.00 | 70 | 1019.2 |
| 20260830162832 | 81 | 126 | 1.7 | 7.8 | 0.00 | 0.00 | 0.00 | 69 | 1019.2 |
| 20260830162734 | 81 | 144 | 1.7 | 7.8 | 0.00 | 0.00 | 0.00 | 69 | 1019.3 |
| 20260830162632 | 81 | 138 | 0.9 | 7.8 | 0.00 | 0.00 | 0.00 | 70 | 1019.3 |
| 20260830162531 | 81 | 137 | 4.3 | 7.8 | 0.00 | 0.00 | 0.00 | 70 | 1019.3 |
| 20260830162430 | 81 | 124 | 2.6 | 7.8 | 0.00 | 0.00 | 0.00 | 69 | 1019.3 |
| 20260830162350 | 81 | 120 | 1.7 | 7.8 | 0.00 | 0.00 | 0.00 | 69 | 1019.3 |
| 20260830162228 | 81 | 119 | 4.3 | 7.8 | 0.00 | 0.00 | 0.00 | 70 | 1019.3 |
| 20260830162127 | 81 | 116 | 4.3 | 7.8 | 0.00 | 0.00 | 0.00 | 71 | 1019.3 |
| 20260830162030 | 81 | 99 | 5.2 | 7.8 | 0.00 | 0.00 | 0.00 | 71 | 1019.3 |
| 20260830161929 | 81 | 141 | 2.6 | 9.6 | 0.00 | 0.00 | 0.00 | 71 | 1019.3 |
| 20260830161828 | 81 | 196 | 2.6 | 9.6 | 0.00 | 0.00 | 0.00 | 71 | 1019.3 |
| 20260830161727 | 81 | 192 | 2.6 | 9.6 | 0.00 | 0.00 | 0.00 | 71 | 1019.3 |
| 20260830161656 | 81 | 179 | 1.7 | 9.6 | 0.00 | 0.00 | 0.00 | 71 | 1019.3 |
| 20260830161431 | 81 | 96 | 2.6 | 9.6 | 0.00 | 0.00 | 0.00 | 71 | 1019.3 |
| 20260830161333 | 81 | 97 | 4.3 | 9.6 | 0.00 | 0.00 | 0.00 | 71 | 1019.3 |
| 20260830161231 | 81 | 85 | 3.5 | 9.6 | 0.00 | 0.00 | 0.00 | 71 | 1019.4 |
| 20260830161132 | 81 | 107 | 6.1 | 9.6 | 0.00 | 0.00 | 0.00 | 71 | 1019.4 |
| 20260830161029 | 81 | 126 | 7.0 | 8.7 | 0.00 | 0.00 | 0.00 | 71 | 1019.4 |
| 20260830160929 | 81 | 103 | 2.6 | 7.0 | 0.00 | 0.00 | 0.00 | 72 | 1019.4 |
| 20260830160828 | 81 | 191 | 1.7 | 7.0 | 0.00 | 0.00 | 0.00 | 72 | 1019.4 |
| 20260830160731 | 81 | 143 | 3.5 | 8.7 | 0.00 | 0.00 | 0.00 | 72 | 1019.4 |
| 20260830160631 | 81 | 117 | 3.5 | 8.7 | 0.00 | 0.00 | 0.00 | 73 | 1019.4 |
| 20260830160530 | 81 | 106 | 3.5 | 8.7 | 0.00 | 0.00 | 0.00 | 72 | 1019.4 |
| 20260830160429 | 81 | 76 | 5.2 | 8.7 | 0.00 | 0.00 | 0.00 | 73 | 1019.4 |
| 20260830160326 | 81 | 83 | 3.5 | 8.7 | 0.00 | 0.00 | 0.00 | 73 | 1019.4 |
| 20260830160225 | 81 | 141 | 3.5 | 8.7 | 0.00 | 0.00 | 0.00 | 73 | 1019.4 |
| 20260830160155 | 81 | 137 | 5.2 | 8.7 | 0.00 | 0.00 | 0.00 | 73 | 1019.4 |
| 20260830160033 | 80 | 195 | 3.5 | 8.7 | 0.00 | 0.00 | 0.00 | 73 | 1019.4 |
| 20260830155938 | 80 | 124 | 3.5 | 8.7 | 0.00 | 0.00 | 0.00 | 73 | 1019.4 |
| 20260830155837 | 80 | 116 | 4.3 | 8.7 | 0.00 | 0.00 | 0.00 | 72 | 1019.4 |
| 20260830155734 | 80 | 124 | 0.9 | 8.7 | 0.00 | 0.00 | 0.00 | 72 | 1019.4 |
| 20260830155633 | 80 | 123 | 1.7 | 8.7 | 0.00 | 0.00 | 0.00 | 72 | 1019.4 |
| 20260830155532 | 80 | 117 | 4.3 | 8.7 | 0.00 | 0.00 | 0.00 | 72 | 1019.4 |
| 20260830155432 | 80 | 127 | 4.3 | 8.7 | 0.00 | 0.00 | 0.00 | 71 | 1019.4 |
| 20260830155334 | 80 | 116 | 3.5 | 8.7 | 0.00 | 0.00 | 0.00 | 71 | 1019.4 |
| 20260830155235 | 80 | 113 | 5.2 | 8.7 | 0.00 | 0.00 | 0.00 | 72 | 1019.4 |
| 20260830155134 | 80 | 136 | 6.1 | 8.7 | 0.00 | 0.00 | 0.00 | 72 | 1019.4 |
| 20260830155031 | 80 | 110 | 6.1 | 8.7 | 0.00 | 0.00 | 0.00 | 73 | 1019.4 |
| 20260830154930 | 80 | 124 | 6.1 | 8.7 | 0.00 | 0.00 | 0.00 | 73 | 1019.4 |
| 20260830154829 | 80 | 128 | 6.1 | 11.3 | 0.00 | 0.00 | 0.00 | 74 | 1019.4 |
| 20260830154739 | 80 | 112 | 6.1 | 11.3 | 0.00 | 0.00 | 0.00 | 73 | 1019.4 |
| 20260830154650 | 80 | 134 | 6.1 | 11.3 | 0.00 | 0.00 | 0.00 | 74 | 1019.4 |
| 20260830154528 | 80 | 95 | 5.2 | 11.3 | 0.00 | 0.00 | 0.00 | 74 | 1019.4 |
| 20260830154448 | 80 | 157 | 3.5 | 11.3 | 0.00 | 0.00 | 0.00 | 74 | 1019.4 |
| 20260830154325 | 80 | 151 | 0.9 | 11.3 | 0.00 | 0.00 | 0.00 | 74 | 1019.4 |
| 20260830154226 | 80 | 151 | 0.9 | 11.3 | 0.00 | 0.00 | 0.00 | 75 | 1019.5 |
| 20260830154145 | 80 | 148 | 5.2 | 11.3 | 0.00 | 0.00 | 0.00 | 75 | 1019.5 |
| 20260830154026 | 79 | 152 | 7.8 | 11.3 | 0.00 | 0.00 | 0.00 | 75 | 1019.5 |
| 20260830153926 | 79 | 134 | 5.2 | 9.6 | 0.00 | 0.00 | 0.00 | 74 | 1019.5 |
| 20260830153829 | 79 | 104 | 4.3 | 9.6 | 0.00 | 0.00 | 0.00 | 74 | 1019.5 |
| 20260830153747 | 79 | 145 | 2.6 | 11.3 | 0.00 | 0.00 | 0.00 | 76 | 1019.5 |
| 20260830153626 | 79 | 134 | 6.1 | 11.3 | 0.00 | 0.00 | 0.00 | 76 | 1019.5 |
| 20260830153524 | 79 | 137 | 4.3 | 11.3 | 0.00 | 0.00 | 0.00 | 76 | 1019.5 |
| 20260830153444 | 79 | 127 | 4.3 | 11.3 | 0.00 | 0.00 | 0.00 | 76 | 1019.5 |
| 20260830153341 | 79 | 107 | 2.6 | 11.3 | 0.00 | 0.00 | 0.00 | 77 | 1019.5 |
| 20260830153240 | 79 | 100 | 5.2 | 11.3 | 0.00 | 0.00 | 0.00 | 77 | 1019.5 |
| 20260830153210 | 79 | 127 | 3.5 | 11.3 | 0.00 | 0.00 | 0.00 | 77 | 1019.5 |
| 20260830153030 | 79 | 168 | 5.2 | 11.3 | 0.00 | 0.00 | 0.00 | 77 | 1019.5 |
| 20260830152928 | 79 | 107 | 6.1 | 11.3 | 0.00 | 0.00 | 0.00 | 76 | 1019.5 |
| 20260830152825 | 79 | 126 | 3.5 | 8.7 | 0.00 | 0.00 | 0.00 | 78 | 1019.5 |
| 20260830152743 | 79 | 96 | 2.6 | 8.7 | 0.00 | 0.00 | 0.00 | 78 | 1019.4 |
| 20260830152641 | 79 | 86 | 1.7 | 8.7 | 0.00 | 0.00 | 0.00 | 79 | 1019.4 |
| 20260830152540 | 79 | 83 | 2.6 | 8.7 | 0.00 | 0.00 | 0.00 | 78 | 1019.4 |
| 20260830152459 | 79 | 78 | 5.2 | 8.7 | 0.00 | 0.00 | 0.00 | 78 | 1019.4 |
| 20260830152357 | 78 | 76 | 5.2 | 8.7 | 0.00 | 0.00 | 0.00 | 80 | 1019.4 |
| 20260830152233 | 78 | 86 | 2.6 | 8.7 | 0.00 | 0.00 | 0.00 | 80 | 1019.4 |
| 20260830152135 | 78 | 136 | 5.2 | 8.7 | 0.00 | 0.00 | 0.00 | 80 | 1019.4 |
| 20260830152034 | 78 | 113 | 5.2 | 8.7 | 0.00 | 0.00 | 0.00 | 80 | 1019.4 |
| 20260830151931 | 78 | 127 | 2.6 | 8.7 | 0.00 | 0.00 | 0.00 | 80 | 1019.4 |
| 20260830151851 | 78 | 128 | 1.7 | 8.7 | 0.00 | 0.00 | 0.00 | 80 | 1019.4 |
| 20260830151747 | 78 | 92 | 4.3 | 8.7 | 0.00 | 0.00 | 0.00 | 81 | 1019.4 |
| 20260830151655 | 78 | 110 | 4.3 | 8.7 | 0.00 | 0.00 | 0.00 | 81 | 1019.4 |
| 20260830151532 | 78 | 143 | 5.2 | 8.7 | 0.00 | 0.00 | 0.00 | 81 | 1019.4 |
| 20260830151430 | 78 | 131 | 5.2 | 8.7 | 0.00 | 0.00 | 0.00 | 82 | 1019.4 |
| 20260830151349 | 78 | 138 | 2.6 | 8.7 | 0.00 | 0.00 | 0.00 | 82 | 1019.4 |
| 20260830151230 | 78 | 133 | 4.3 | 8.7 | 0.00 | 0.00 | 0.00 | 82 | 1019.4 |
| 20260830151129 | 77 | 138 | 0.9 | 7.8 | 0.00 | 0.00 | 0.00 | 83 | 1019.4 |
| 20260830151028 | 77 | 141 | 3.5 | 7.8 | 0.00 | 0.00 | 0.00 | 83 | 1019.4 |
| 20260830150926 | 77 | 66 | 2.6 | 7.8 | 0.00 | 0.00 | 0.00 | 83 | 1019.4 |
| 20260830150843 | 77 | 72 | 5.2 | 7.8 | 0.00 | 0.00 | 0.00 | 83 | 1019.4 |
| 20260830150740 | 77 | 88 | 2.6 | 7.8 | 0.00 | 0.00 | 0.00 | 84 | 1019.4 |
| 20260830150637 | 77 | 168 | 0.9 | 7.8 | 0.00 | 0.00 | 0.00 | 84 | 1019.4 |
| 20260830150438 | 77 | 145 | 4.3 | 7.8 | 0.00 | 0.00 | 0.00 | 84 | 1019.4 |
| 20260830150336 | 77 | 127 | 4.3 | 7.8 | 0.00 | 0.00 | 0.00 | 84 | 1019.4 |
| 20260830150255 | 77 | 175 | 2.6 | 5.2 | 0.00 | 0.00 | 0.00 | 84 | 1019.4 |
| 20260830150205 | 77 | 182 | 2.6 | 6.1 | 0.00 | 0.00 | 0.00 | 84 | 1019.4 |
| 20260830150042 | 77 | 174 | 2.6 | 6.1 | 0.00 | 0.00 | 0.00 | 84 | 1019.4 |
| 20260830145939 | 77 | 168 | 1.7 | 6.1 | 0.00 | 0.00 | 0.00 | 84 | 1019.4 |
| 20260830145838 | 77 | 162 | 1.7 | 6.1 | 0.00 | 0.00 | 0.00 | 84 | 1019.4 |
| 20260830145741 | 77 | 155 | 0.9 | 6.1 | 0.00 | 0.00 | 0.00 | 84 | 1019.5 |
| 20260830145640 | 77 | 155 | 0.0 | 6.1 | 0.00 | 0.00 | 0.00 | 84 | 1019.5 |
| 20260830145538 | 77 | 155 | 0.9 | 6.1 | 0.00 | 0.00 | 0.00 | 85 | 1019.5 |
| 20260830145437 | 77 | 152 | 2.6 | 6.1 | 0.00 | 0.00 | 0.00 | 85 | 1019.5 |
| 20260830145334 | 77 | 154 | 3.5 | 6.1 | 0.00 | 0.00 | 0.00 | 85 | 1019.5 |
| 20260830145232 | 77 | 155 | 2.6 | 6.1 | 0.00 | 0.00 | 0.00 | 85 | 1019.5 |
| 20260830145129 | 76 | 151 | 3.5 | 6.1 | 0.00 | 0.00 | 0.00 | 85 | 1019.5 |
| 20260830145031 | 76 | 186 | 1.7 | 6.1 | 0.00 | 0.00 | 0.00 | 85 | 1019.5 |
| 20260830144933 | 76 | 188 | 1.7 | 7.0 | 0.00 | 0.00 | 0.00 | 85 | 1019.5 |
| 20260830144853 | 76 | 186 | 2.6 | 7.0 | 0.00 | 0.00 | 0.00 | 85 | 1019.5 |
| 20260830144801 | 76 | 188 | 1.7 | 7.0 | 0.00 | 0.00 | 0.00 | 85 | 1019.5 |
| 20260830144650 | 76 | 189 | 1.7 | 7.0 | 0.00 | 0.00 | 0.00 | 85 | 1019.5 |
| 20260830144528 | 76 | 178 | 0.0 | 7.0 | 0.00 | 0.00 | 0.00 | 85 | 1019.5 |
| 20260830144426 | 76 | 178 | 2.6 | 7.0 | 0.00 | 0.00 | 0.00 | 86 | 1019.5 |
| 20260830144346 | 76 | 169 | 4.3 | 7.0 | 0.00 | 0.00 | 0.00 | 86 | 1019.5 |
| 20260830144244 | 76 | 144 | 4.3 | 7.0 | 0.00 | 0.00 | 0.00 | 86 | 1019.5 |
| 20260830144127 | 76 | 138 | 6.1 | 7.0 | 0.00 | 0.00 | 0.00 | 86 | 1019.5 |
| 20260830144026 | 76 | 157 | 4.3 | 6.1 | 0.00 | 0.00 | 0.00 | 86 | 1019.5 |
| 20260830143925 | 76 | 104 | 3.5 | 5.2 | 0.00 | 0.00 | 0.00 | 86 | 1019.5 |
| 20260830143824 | 76 | 162 | 0.9 | 5.2 | 0.00 | 0.00 | 0.00 | 86 | 1019.5 |
| 20260830143742 | 76 | 160 | 0.9 | 6.1 | 0.00 | 0.00 | 0.00 | 86 | 1019.5 |
| 20260830143700 | 76 | 182 | 2.6 | 6.1 | 0.00 | 0.00 | 0.00 | 86 | 1019.5 |
| 20260830143539 | 76 | 165 | 2.6 | 6.1 | 0.00 | 0.00 | 0.00 | 86 | 1019.5 |
| 20260830143457 | 76 | 121 | 0.9 | 6.1 | 0.00 | 0.00 | 0.00 | 86 | 1019.5 |
| 20260830143354 | 76 | 121 | 0.9 | 6.1 | 0.00 | 0.00 | 0.00 | 86 | 1019.5 |
| 20260830143234 | 76 | 120 | 1.7 | 6.1 | 0.00 | 0.00 | 0.00 | 86 | 1019.5 |
| 20260830143205 | 76 | 121 | 2.6 | 6.1 | 0.00 | 0.00 | 0.00 | 86 | 1019.5 |
| 20260830143042 | 75 | 124 | 2.6 | 6.1 | 0.00 | 0.00 | 0.00 | 86 | 1019.5 |
| 20260830142940 | 75 | 123 | 2.6 | 6.1 | 0.00 | 0.00 | 0.00 | 86 | 1019.5 |
| 20260830142840 | 75 | 119 | 4.3 | 6.1 | 0.00 | 0.00 | 0.00 | 86 | 1019.5 |
| 20260830142739 | 75 | 128 | 1.7 | 5.2 | 0.00 | 0.00 | 0.00 | 86 | 1019.5 |
| 20260830142639 | 75 | 130 | 0.9 | 5.2 | 0.00 | 0.00 | 0.00 | 87 | 1019.5 |
| 20260830142541 | 75 | 131 | 1.7 | 5.2 | 0.00 | 0.00 | 0.00 | 86 | 1019.5 |
| 20260830142440 | 75 | 130 | 1.7 | 5.2 | 0.00 | 0.00 | 0.00 | 86 | 1019.5 |
| 20260830142340 | 75 | 130 | 1.7 | 6.1 | 0.00 | 0.00 | 0.00 | 86 | 1019.5 |
| 20260830142238 | 75 | 127 | 1.7 | 6.1 | 0.00 | 0.00 | 0.00 | 86 | 1019.5 |
| 20260830142137 | 75 | 124 | 1.7 | 6.1 | 0.00 | 0.00 | 0.00 | 86 | 1019.5 |
| 20260830142036 | 75 | 127 | 1.7 | 7.0 | 0.00 | 0.00 | 0.00 | 86 | 1019.5 |
| 20260830141935 | 75 | 124 | 3.5 | 7.8 | 0.00 | 0.00 | 0.00 | 86 | 1019.5 |
| 20260830141857 | 75 | 150 | 1.7 | 8.7 | 0.00 | 0.00 | 0.00 | 86 | 1019.5 |
| 20260830141816 | 75 | 158 | 2.6 | 8.7 | 0.00 | 0.00 | 0.00 | 86 | 1019.5 |
| 20260830141726 | 75 | 152 | 2.6 | 8.7 | 0.00 | 0.00 | 0.00 | 86 | 1019.5 |
| 20260830141542 | 75 | 145 | 2.6 | 8.7 | 0.00 | 0.00 | 0.00 | 86 | 1019.5 |
| 20260830141441 | 75 | 121 | 2.6 | 8.7 | 0.00 | 0.00 | 0.00 | 86 | 1019.5 |
| 20260830141341 | 75 | 119 | 1.7 | 8.7 | 0.00 | 0.00 | 0.00 | 86 | 1019.5 |
| 20260830141238 | 75 | 114 | 5.2 | 8.7 | 0.00 | 0.00 | 0.00 | 87 | 1019.5 |
| 20260830141138 | 75 | 121 | 4.3 | 8.7 | 0.00 | 0.00 | 0.00 | 87 | 1019.5 |
| 20260830141041 | 75 | 97 | 3.5 | 8.7 | 0.00 | 0.00 | 0.00 | 87 | 1019.5 |
| 20260830140941 | 75 | 136 | 2.6 | 8.7 | 0.00 | 0.00 | 0.00 | 87 | 1019.5 |
| 20260830140840 | 75 | 137 | 4.3 | 8.7 | 0.00 | 0.00 | 0.00 | 87 | 1019.5 |
| 20260830140736 | 75 | 138 | 4.3 | 8.7 | 0.00 | 0.00 | 0.00 | 87 | 1019.5 |
| 20260830140655 | 75 | 137 | 5.2 | 8.7 | 0.00 | 0.00 | 0.00 | 87 | 1019.5 |
| 20260830140552 | 75 | 141 | 5.2 | 8.7 | 0.00 | 0.00 | 0.00 | 87 | 1019.5 |
| 20260830140428 | 75 | 133 | 4.3 | 8.7 | 0.00 | 0.00 | 0.00 | 87 | 1019.5 |
| 20260830140328 | 75 | 155 | 6.1 | 8.7 | 0.00 | 0.00 | 0.00 | 87 | 1019.5 |
| 20260830140230 | 75 | 138 | 4.3 | 7.0 | 0.00 | 0.00 | 0.00 | 87 | 1019.5 |
| 20260830140201 | 75 | 137 | 2.6 | 7.0 | 0.00 | 0.00 | 0.00 | 87 | 1019.5 |
| 20260830140038 | 75 | 127 | 1.7 | 7.0 | 0.00 | 0.00 | 0.00 | 87 | 1019.5 |
| 20260830135937 | 75 | 121 | 4.3 | 7.0 | 0.00 | 0.00 | 0.00 | 87 | 1019.5 |
| 20260830135836 | 75 | 137 | 3.5 | 7.0 | 0.00 | 0.00 | 0.00 | 87 | 1019.5 |
| 20260830135738 | 75 | 152 | 0.9 | 7.0 | 0.00 | 0.00 | 0.00 | 87 | 1019.4 |
| 20260830135635 | 75 | 141 | 3.5 | 7.0 | 0.00 | 0.00 | 0.00 | 87 | 1019.4 |
| 20260830135534 | 75 | 130 | 4.3 | 7.0 | 0.00 | 0.00 | 0.00 | 87 | 1019.4 |
| 20260830135440 | 75 | 143 | 3.5 | 6.1 | 0.00 | 0.00 | 0.00 | 87 | 1019.4 |
| 20260830135336 | 75 | 127 | 4.3 | 6.1 | 0.00 | 0.00 | 0.00 | 88 | 1019.4 |
| 20260830135255 | 75 | 128 | 4.3 | 6.1 | 0.00 | 0.00 | 0.00 | 88 | 1019.4 |
| 20260830135132 | 75 | 154 | 4.3 | 6.1 | 0.00 | 0.00 | 0.00 | 88 | 1019.4 |
| 20260830135031 | 75 | 152 | 3.5 | 6.1 | 0.00 | 0.00 | 0.00 | 88 | 1019.4 |
| 20260830134931 | 75 | 137 | 3.5 | 7.0 | 0.00 | 0.00 | 0.00 | 88 | 1019.4 |
| 20260830134847 | 75 | 158 | 2.6 | 7.0 | 0.00 | 0.00 | 0.00 | 88 | 1019.4 |
| 20260830134739 | 75 | 137 | 4.3 | 7.0 | 0.00 | 0.00 | 0.00 | 88 | 1019.4 |
| 20260830134651 | 75 | 161 | 5.2 | 7.0 | 0.00 | 0.00 | 0.00 | 88 | 1019.4 |
| 20260830134529 | 75 | 157 | 4.3 | 7.0 | 0.00 | 0.00 | 0.00 | 88 | 1019.4 |
| 20260830134448 | 75 | 178 | 4.3 | 7.0 | 0.00 | 0.00 | 0.00 | 88 | 1019.4 |
| 20260830134406 | 75 | 162 | 4.3 | 7.0 | 0.00 | 0.00 | 0.00 | 88 | 1019.4 |
| 20260830134244 | 75 | 151 | 4.3 | 7.0 | 0.00 | 0.00 | 0.00 | 88 | 1019.4 |
| 20260830134142 | 75 | 160 | 4.3 | 7.0 | 0.00 | 0.00 | 0.00 | 88 | 1019.4 |
| 20260830134041 | 75 | 168 | 3.5 | 7.0 | 0.00 | 0.00 | 0.00 | 88 | 1019.4 |
| 20260830133959 | 75 | 178 | 1.7 | 6.1 | 0.00 | 0.00 | 0.00 | 88 | 1019.4 |
| 20260830133836 | 75 | 172 | 2.6 | 7.0 | 0.00 | 0.00 | 0.00 | 88 | 1019.4 |
| 20260830133740 | 75 | 176 | 4.3 | 7.0 | 0.00 | 0.00 | 0.00 | 88 | 1019.4 |
| 20260830133637 | 75 | 174 | 4.3 | 7.0 | 0.00 | 0.00 | 0.00 | 88 | 1019.4 |
| 20260830133535 | 75 | 158 | 4.3 | 7.0 | 0.00 | 0.00 | 0.00 | 88 | 1019.4 |
| 20260830133433 | 74 | 171 | 3.5 | 7.0 | 0.00 | 0.00 | 0.00 | 88 | 1019.4 |
| 20260830133332 | 74 | 165 | 2.6 | 7.0 | 0.00 | 0.00 | 0.00 | 88 | 1019.4 |
| 20260830133230 | 74 | 172 | 2.6 | 7.0 | 0.00 | 0.00 | 0.00 | 88 | 1019.4 |
| 20260830133201 | 74 | 176 | 2.6 | 7.0 | 0.00 | 0.00 | 0.00 | 88 | 1019.4 |
| 20260830133035 | 74 | 176 | 4.3 | 7.0 | 0.00 | 0.00 | 0.00 | 88 | 1019.4 |
| 20260830132937 | 74 | 184 | 4.3 | 7.0 | 0.00 | 0.00 | 0.00 | 88 | 1019.4 |
| 20260830132856 | 74 | 161 | 3.5 | 5.2 | 0.00 | 0.00 | 0.00 | 88 | 1019.4 |
| 20260830132732 | 74 | 150 | 3.5 | 5.2 | 0.00 | 0.00 | 0.00 | 88 | 1019.2 |
| 20260830132651 | 74 | 151 | 3.5 | 5.2 | 0.00 | 0.00 | 0.00 | 88 | 1019.2 |
| 20260830132527 | 74 | 158 | 3.5 | 5.2 | 0.00 | 0.00 | 0.00 | 88 | 1019.2 |
| 20260830132426 | 74 | 158 | 3.5 | 5.2 | 0.00 | 0.00 | 0.00 | 88 | 1019.2 |
| 20260830132343 | 74 | 172 | 1.7 | 5.2 | 0.00 | 0.00 | 0.00 | 88 | 1019.2 |
| 20260830132243 | 74 | 150 | 2.6 | 5.2 | 0.00 | 0.00 | 0.00 | 88 | 1019.2 |
| 20260830132202 | 74 | 151 | 3.5 | 5.2 | 0.00 | 0.00 | 0.00 | 88 | 1019.2 |
| 20260830132059 | 74 | 161 | 2.6 | 6.1 | 0.00 | 0.00 | 0.00 | 88 | 1019.2 |
| 20260830132001 | 74 | 161 | 3.5 | 6.1 | 0.00 | 0.00 | 0.00 | 88 | 1019.2 |
| 20260830131838 | 74 | 161 | 3.5 | 7.0 | 0.00 | 0.00 | 0.00 | 88 | 1019.2 |
| 20260830131756 | 74 | 161 | 1.7 | 7.0 | 0.00 | 0.00 | 0.00 | 88 | 1019.2 |
| 20260830131705 | 74 | 158 | 1.7 | 7.0 | 0.00 | 0.00 | 0.00 | 89 | 1019.2 |
| 20260830131543 | 74 | 157 | 2.6 | 7.0 | 0.00 | 0.00 | 0.00 | 89 | 1019.2 |
| 20260830131443 | 74 | 147 | 3.5 | 7.0 | 0.00 | 0.00 | 0.00 | 89 | 1019.2 |
| 20260830131402 | 74 | 148 | 2.6 | 7.0 | 0.00 | 0.00 | 0.00 | 89 | 1019.2 |
| 20260830131240 | 74 | 147 | 3.5 | 7.0 | 0.00 | 0.00 | 0.00 | 89 | 1019.0 |
| 20260830131143 | 74 | 144 | 5.2 | 7.0 | 0.00 | 0.00 | 0.00 | 89 | 1019.0 |
| 20260830131041 | 74 | 150 | 4.3 | 7.0 | 0.00 | 0.00 | 0.00 | 89 | 1019.0 |
| 20260830130941 | 74 | 152 | 2.6 | 6.1 | 0.00 | 0.00 | 0.00 | 89 | 1019.0 |
| 20260830130900 | 74 | 152 | 2.6 | 6.1 | 0.00 | 0.00 | 0.00 | 89 | 1019.0 |
| 20260830130739 | 74 | 152 | 1.7 | 7.0 | 0.00 | 0.00 | 0.00 | 89 | 1019.0 |
| 20260830130636 | 74 | 151 | 3.5 | 7.0 | 0.00 | 0.00 | 0.00 | 89 | 1019.0 |
| 20260830130555 | 74 | 155 | 3.5 | 7.0 | 0.00 | 0.00 | 0.00 | 89 | 1019.0 |
| 20260830130452 | 74 | 157 | 3.5 | 7.0 | 0.00 | 0.00 | 0.00 | 89 | 1019.0 |
| 20260830130334 | 74 | 168 | 3.5 | 7.0 | 0.00 | 0.00 | 0.00 | 89 | 1019.0 |
| 20260830130233 | 74 | 184 | 3.5 | 7.0 | 0.00 | 0.00 | 0.00 | 89 | 1019.0 |
| 20260830130203 | 74 | 155 | 3.5 | 7.0 | 0.00 | 0.00 | 0.00 | 89 | 1019.0 |
| 20260830130040 | 74 | 145 | 4.3 | 7.0 | 0.00 | 0.00 | 0.00 | 89 | 1019.0 |
| 20260830125939 | 74 | 151 | 5.2 | 7.0 | 0.00 | 0.00 | 0.00 | 89 | 1019.0 |
| 20260830125838 | 74 | 160 | 3.5 | 7.0 | 0.00 | 0.00 | 0.00 | 89 | 1019.0 |
| 20260830125736 | 74 | 181 | 2.6 | 7.0 | 0.00 | 0.00 | 0.00 | 89 | 1018.9 |
| 20260830125639 | 74 | 176 | 2.6 | 7.0 | 0.00 | 0.00 | 0.00 | 89 | 1018.9 |
| 20260830125540 | 74 | 175 | 3.5 | 7.0 | 0.00 | 0.00 | 0.00 | 89 | 1018.9 |
| 20260830125438 | 74 | 200 | 2.6 | 7.0 | 0.00 | 0.00 | 0.00 | 89 | 1018.9 |
| 20260830125358 | 74 | 186 | 3.5 | 7.0 | 0.00 | 0.00 | 0.00 | 89 | 1018.9 |
| 20260830125237 | 74 | 206 | 4.3 | 7.0 | 0.00 | 0.00 | 0.00 | 89 | 1018.9 |
| 20260830125135 | 74 | 220 | 1.7 | 6.1 | 0.00 | 0.00 | 0.00 | 89 | 1018.9 |
| 20260830125053 | 73 | 224 | 4.3 | 6.1 | 0.00 | 0.00 | 0.00 | 89 | 1018.9 |
| 20260830124931 | 73 | 206 | 5.2 | 6.1 | 0.00 | 0.00 | 0.00 | 89 | 1018.9 |
| 20260830124854 | 73 | 230 | 4.3 | 7.0 | 0.00 | 0.00 | 0.00 | 89 | 1018.9 |
| 20260830124804 | 73 | 233 | 4.3 | 7.0 | 0.00 | 0.00 | 0.00 | 89 | 1018.9 |
| 20260830124651 | 73 | 230 | 2.6 | 7.0 | 0.00 | 0.00 | 0.00 | 89 | 1018.9 |
| 20260830124532 | 73 | 226 | 1.7 | 7.0 | 0.00 | 0.00 | 0.00 | 89 | 1018.9 |
| 20260830124452 | 73 | 206 | 1.7 | 7.0 | 0.00 | 0.00 | 0.00 | 89 | 1018.9 |
| 20260830124331 | 73 | 202 | 1.7 | 7.0 | 0.00 | 0.00 | 0.00 | 89 | 1018.9 |
| 20260830124229 | 73 | 198 | 2.6 | 7.0 | 0.00 | 0.00 | 0.00 | 89 | 1018.7 |
| 20260830124127 | 73 | 200 | 2.6 | 7.0 | 0.00 | 0.00 | 0.00 | 89 | 1018.7 |
| 20260830124030 | 73 | 196 | 4.3 | 7.0 | 0.00 | 0.00 | 0.00 | 89 | 1018.7 |
| 20260830123929 | 73 | 191 | 3.5 | 7.0 | 0.00 | 0.00 | 0.00 | 89 | 1018.7 |
| 20260830123829 | 73 | 192 | 2.6 | 7.0 | 0.00 | 0.00 | 0.00 | 89 | 1018.7 |
| 20260830123730 | 73 | 171 | 2.6 | 7.0 | 0.00 | 0.00 | 0.00 | 89 | 1018.7 |
| 20260830123649 | 73 | 176 | 3.5 | 7.0 | 0.00 | 0.00 | 0.00 | 89 | 1018.7 |
| 20260830123527 | 73 | 191 | 4.3 | 7.0 | 0.00 | 0.00 | 0.00 | 89 | 1018.7 |
| 20260830123425 | 73 | 169 | 4.3 | 7.0 | 0.00 | 0.00 | 0.00 | 89 | 1018.7 |
| 20260830123328 | 73 | 186 | 4.3 | 6.1 | 0.00 | 0.00 | 0.00 | 89 | 1018.7 |
| 20260830123247 | 73 | 188 | 3.5 | 6.1 | 0.00 | 0.00 | 0.00 | 89 | 1018.7 |
| 20260830123217 | 73 | 179 | 3.5 | 6.1 | 0.00 | 0.00 | 0.00 | 89 | 1018.7 |
| 20260830123032 | 73 | 174 | 2.6 | 7.0 | 0.00 | 0.00 | 0.00 | 89 | 1018.7 |
| 20260830122932 | 73 | 189 | 1.7 | 7.0 | 0.00 | 0.00 | 0.00 | 88 | 1018.7 |
| 20260830122830 | 73 | 164 | 2.6 | 7.0 | 0.00 | 0.00 | 0.00 | 88 | 1018.7 |
| 20260830122728 | 73 | 157 | 3.5 | 7.0 | 0.00 | 0.00 | 0.00 | 88 | 1018.4 |
| 20260830122627 | 73 | 178 | 3.5 | 7.0 | 0.00 | 0.00 | 0.00 | 88 | 1018.4 |
| 20260830122551 | 73 | 168 | 2.6 | 7.0 | 0.00 | 0.00 | 0.00 | 88 | 1018.4 |
| 20260830122428 | 73 | 168 | 2.6 | 7.0 | 0.00 | 0.00 | 0.00 | 88 | 1018.4 |
| 20260830122327 | 73 | 144 | 2.6 | 8.7 | 0.00 | 0.00 | 0.00 | 88 | 1018.4 |
| 20260830122226 | 73 | 138 | 5.2 | 8.7 | 0.00 | 0.00 | 0.00 | 88 | 1018.4 |
| 20260830122128 | 73 | 168 | 3.5 | 8.7 | 0.00 | 0.00 | 0.00 | 88 | 1018.4 |
| 20260830122047 | 73 | 165 | 4.3 | 8.7 | 0.00 | 0.00 | 0.00 | 88 | 1018.4 |
| 20260830121926 | 73 | 136 | 3.5 | 8.7 | 0.00 | 0.00 | 0.00 | 88 | 1018.4 |
| 20260830121828 | 73 | 158 | 4.3 | 8.7 | 0.00 | 0.00 | 0.00 | 88 | 1018.4 |
| 20260830121726 | 73 | 161 | 3.5 | 8.7 | 0.00 | 0.00 | 0.00 | 88 | 1018.4 |
| 20260830121655 | 73 | 154 | 4.3 | 8.7 | 0.00 | 0.00 | 0.00 | 88 | 1018.4 |
| 20260830121532 | 73 | 154 | 5.2 | 8.7 | 0.00 | 0.00 | 0.00 | 88 | 1018.4 |
| 20260830121430 | 73 | 160 | 5.2 | 7.8 | 0.00 | 0.00 | 0.00 | 88 | 1018.4 |
| 20260830121329 | 73 | 172 | 2.6 | 7.0 | 0.00 | 0.00 | 0.00 | 88 | 1018.4 |
| 20260830121227 | 73 | 176 | 3.5 | 7.0 | 0.00 | 0.00 | 0.00 | 88 | 1018.3 |
| 20260830121129 | 73 | 167 | 5.2 | 7.0 | 0.00 | 0.00 | 0.00 | 88 | 1018.3 |
| 20260830121025 | 73 | 144 | 5.2 | 7.0 | 0.00 | 0.00 | 0.00 | 88 | 1018.3 |
| 20260830120943 | 73 | 165 | 4.3 | 7.0 | 0.00 | 0.00 | 0.00 | 88 | 1018.3 |
| 20260830120842 | 73 | 174 | 3.5 | 7.0 | 0.00 | 0.00 | 0.00 | 88 | 1018.3 |
| 20260830120743 | 73 | 171 | 4.3 | 7.0 | 0.00 | 0.00 | 0.00 | 88 | 1018.3 |
| 20260830120643 | 73 | 172 | 3.5 | 7.0 | 0.00 | 0.00 | 0.00 | 88 | 1018.3 |
| 20260830120543 | 73 | 160 | 4.3 | 7.0 | 0.00 | 0.00 | 0.00 | 88 | 1018.3 |
| 20260830120442 | 73 | 164 | 4.3 | 7.0 | 0.00 | 0.00 | 0.00 | 88 | 1018.3 |
| 20260830120324 | 73 | 182 | 3.5 | 7.0 | 0.00 | 0.00 | 0.00 | 88 | 1018.3 |
| 20260830120243 | 73 | 182 | 3.5 | 7.0 | 0.00 | 0.00 | 0.00 | 88 | 1018.3 |
| 20260830120153 | 73 | 144 | 4.3 | 7.0 | 0.00 | 0.00 | 0.00 | 88 | 1018.3 |
| 20260830120028 | 73 | 174 | 2.6 | 7.0 | 0.00 | 0.00 | 0.00 | 88 | 1018.3 |
| 20260830115946 | 73 | 168 | 3.5 | 7.0 | 0.00 | 0.00 | 0.00 | 88 | 1018.3 |
| 20260830115842 | 73 | 165 | 3.5 | 7.0 | 0.00 | 0.00 | 0.00 | 88 | 1018.3 |
| 20260830115741 | 73 | 167 | 4.3 | 7.0 | 0.00 | 0.00 | 0.00 | 88 | 1018.2 |
| 20260830115639 | 73 | 184 | 3.5 | 7.0 | 0.00 | 0.00 | 0.00 | 88 | 1018.2 |
| 20260830115538 | 73 | 189 | 3.5 | 8.7 | 0.00 | 0.00 | 0.00 | 88 | 1018.2 |
| 20260830115440 | 73 | 172 | 3.5 | 11.3 | 0.00 | 0.00 | 0.00 | 88 | 1018.2 |
| 20260830115338 | 73 | 165 | 3.5 | 11.3 | 0.00 | 0.00 | 0.00 | 88 | 1018.2 |
| 20260830115238 | 73 | 179 | 2.6 | 11.3 | 0.00 | 0.00 | 0.00 | 88 | 1018.2 |
| 20260830115158 | 73 | 143 | 4.3 | 11.3 | 0.00 | 0.00 | 0.00 | 88 | 1018.2 |
| 20260830115057 | 73 | 169 | 4.3 | 11.3 | 0.00 | 0.00 | 0.00 | 87 | 1018.2 |
| 20260830114935 | 73 | 174 | 4.3 | 11.3 | 0.00 | 0.00 | 0.00 | 87 | 1018.2 |
| 20260830114854 | 73 | 168 | 4.3 | 11.3 | 0.00 | 0.00 | 0.00 | 87 | 1018.2 |
| 20260830114730 | 73 | 172 | 4.3 | 11.3 | 0.00 | 0.00 | 0.00 | 87 | 1018.2 |
| 20260830114659 | 73 | 186 | 5.2 | 11.3 | 0.00 | 0.00 | 0.00 | 87 | 1018.2 |
| 20260830114541 | 73 | 192 | 5.2 | 9.6 | 0.00 | 0.00 | 0.00 | 87 | 1018.2 |
| 20260830114439 | 73 | 175 | 5.2 | 9.6 | 0.00 | 0.00 | 0.00 | 87 | 1018.2 |
| 20260830114336 | 73 | 184 | 4.3 | 9.6 | 0.00 | 0.00 | 0.00 | 87 | 1018.2 |
| 20260830114235 | 73 | 188 | 3.5 | 9.6 | 0.00 | 0.00 | 0.00 | 87 | 1018.2 |
| 20260830114133 | 73 | 181 | 4.3 | 9.6 | 0.00 | 0.00 | 0.00 | 87 | 1018.2 |
| 20260830114050 | 73 | 158 | 3.5 | 9.6 | 0.00 | 0.00 | 0.00 | 87 | 1018.2 |
| 20260830113928 | 73 | 192 | 4.3 | 9.6 | 0.00 | 0.00 | 0.00 | 87 | 1018.2 |
| 20260830113847 | 73 | 188 | 6.1 | 9.6 | 0.00 | 0.00 | 0.00 | 87 | 1018.2 |
| 20260830113805 | 73 | 158 | 4.3 | 7.8 | 0.00 | 0.00 | 0.00 | 87 | 1018.2 |
| 20260830113707 | 73 | 168 | 3.5 | 7.8 | 0.00 | 0.00 | 0.00 | 87 | 1018.2 |
| 20260830113604 | 73 | 169 | 4.3 | 7.8 | 0.00 | 0.00 | 0.00 | 87 | 1018.2 |
| 20260830113442 | 73 | 181 | 5.2 | 7.8 | 0.00 | 0.00 | 0.00 | 87 | 1018.2 |
| 20260830113341 | 73 | 168 | 4.3 | 8.7 | 0.00 | 0.00 | 0.00 | 87 | 1018.2 |
| 20260830113238 | 73 | 162 | 4.3 | 8.7 | 0.00 | 0.00 | 0.00 | 87 | 1018.2 |
| 20260830113210 | 73 | 174 | 3.5 | 8.7 | 0.00 | 0.00 | 0.00 | 87 | 1018.2 |
| 20260830113029 | 73 | 174 | 4.3 | 9.6 | 0.00 | 0.00 | 0.00 | 87 | 1018.2 |
| 20260830112926 | 73 | 167 | 4.3 | 9.6 | 0.00 | 0.00 | 0.00 | 87 | 1018.2 |
| 20260830112829 | 73 | 162 | 3.5 | 9.6 | 0.00 | 0.00 | 0.00 | 87 | 1018.2 |
| 20260830112726 | 73 | 167 | 5.2 | 9.6 | 0.00 | 0.00 | 0.00 | 87 | 1018.0 |
| 20260830112645 | 73 | 171 | 5.2 | 9.6 | 0.00 | 0.00 | 0.00 | 87 | 1018.0 |
| 20260830112604 | 73 | 158 | 5.2 | 9.6 | 0.00 | 0.00 | 0.00 | 87 | 1018.0 |
| 20260830112503 | 73 | 154 | 5.2 | 9.6 | 0.00 | 0.00 | 0.00 | 87 | 1018.0 |
| 20260830112339 | 73 | 144 | 4.3 | 9.6 | 0.00 | 0.00 | 0.00 | 87 | 1018.0 |
| 20260830112258 | 73 | 176 | 5.2 | 9.6 | 0.00 | 0.00 | 0.00 | 87 | 1018.0 |
| 20260830112135 | 73 | 169 | 5.2 | 9.6 | 0.00 | 0.00 | 0.00 | 87 | 1018.0 |
| 20260830112034 | 73 | 182 | 4.3 | 9.6 | 0.00 | 0.00 | 0.00 | 87 | 1018.0 |
| 20260830111936 | 73 | 140 | 4.3 | 9.6 | 0.00 | 0.00 | 0.00 | 87 | 1018.0 |
| 20260830111834 | 73 | 164 | 4.3 | 9.6 | 0.00 | 0.00 | 0.00 | 87 | 1018.0 |
| 20260830111733 | 73 | 152 | 5.2 | 9.6 | 0.00 | 0.00 | 0.00 | 87 | 1018.0 |
| 20260830111702 | 73 | 161 | 5.2 | 9.6 | 0.00 | 0.00 | 0.00 | 87 | 1018.0 |
| 20260830111540 | 73 | 157 | 5.2 | 9.6 | 0.00 | 0.00 | 0.00 | 87 | 1018.0 |
| 20260830111438 | 73 | 158 | 5.2 | 9.6 | 0.00 | 0.00 | 0.00 | 87 | 1018.0 |
| 20260830111338 | 73 | 165 | 7.0 | 9.6 | 0.00 | 0.00 | 0.00 | 87 | 1018.0 |
| 20260830111241 | 73 | 137 | 5.2 | 9.6 | 0.00 | 0.00 | 0.00 | 87 | 1017.6 |
| 20260830111140 | 73 | 174 | 5.2 | 9.6 | 0.00 | 0.00 | 0.00 | 87 | 1017.6 |
| 20260830111040 | 73 | 162 | 4.3 | 9.6 | 0.00 | 0.00 | 0.00 | 87 | 1017.6 |
| 20260830110938 | 73 | 179 | 4.3 | 9.6 | 0.00 | 0.00 | 0.00 | 87 | 1017.6 |
| 20260830110837 | 73 | 157 | 4.3 | 9.6 | 0.00 | 0.00 | 0.00 | 87 | 1017.6 |
| 20260830110735 | 73 | 172 | 3.5 | 9.6 | 0.00 | 0.00 | 0.00 | 87 | 1017.6 |
| 20260830110634 | 73 | 168 | 4.3 | 9.6 | 0.00 | 0.00 | 0.00 | 87 | 1017.6 |
| 20260830110536 | 73 | 169 | 4.3 | 10.4 | 0.00 | 0.00 | 0.00 | 86 | 1017.6 |
| 20260830110433 | 73 | 157 | 5.2 | 10.4 | 0.00 | 0.00 | 0.00 | 86 | 1017.6 |
| 20260830110332 | 73 | 175 | 4.3 | 10.4 | 0.00 | 0.00 | 0.00 | 86 | 1017.6 |
| 20260830110251 | 73 | 174 | 7.0 | 10.4 | 0.00 | 0.00 | 0.00 | 86 | 1017.6 |
| 20260830110222 | 73 | 154 | 6.1 | 10.4 | 0.00 | 0.00 | 0.00 | 86 | 1017.6 |
| 20260830110039 | 73 | 141 | 5.2 | 10.4 | 0.00 | 0.00 | 0.00 | 86 | 1017.6 |
| 20260830105937 | 73 | 150 | 4.3 | 10.4 | 0.00 | 0.00 | 0.00 | 86 | 1017.6 |
| 20260830105840 | 73 | 164 | 5.2 | 10.4 | 0.00 | 0.00 | 0.00 | 86 | 1017.6 |
| 20260830105739 | 73 | 165 | 6.1 | 10.4 | 0.00 | 0.00 | 0.00 | 86 | 1017.5 |
| 20260830105638 | 73 | 169 | 5.2 | 10.4 | 0.00 | 0.00 | 0.00 | 86 | 1017.5 |
| 20260830105538 | 73 | 152 | 6.1 | 10.4 | 0.00 | 0.00 | 0.00 | 86 | 1017.5 |
| 20260830105437 | 73 | 168 | 7.0 | 10.4 | 0.00 | 0.00 | 0.00 | 86 | 1017.5 |
| 20260830105335 | 73 | 167 | 6.1 | 8.7 | 0.00 | 0.00 | 0.00 | 86 | 1017.5 |
| 20260830105253 | 74 | 164 | 6.1 | 9.6 | 0.00 | 0.00 | 0.00 | 86 | 1017.5 |
| 20260830105135 | 74 | 160 | 5.2 | 9.6 | 0.00 | 0.00 | 0.00 | 86 | 1017.5 |
| 20260830105033 | 74 | 171 | 4.3 | 9.6 | 0.00 | 0.00 | 0.00 | 86 | 1017.5 |
| 20260830104931 | 74 | 171 | 3.5 | 9.6 | 0.00 | 0.00 | 0.00 | 86 | 1017.5 |
| 20260830104834 | 74 | 185 | 3.5 | 9.6 | 0.00 | 0.00 | 0.00 | 86 | 1017.5 |
| 20260830104804 | 74 | 176 | 5.2 | 9.6 | 0.00 | 0.00 | 0.00 | 86 | 1017.5 |
| 20260830104651 | 74 | 151 | 5.2 | 9.6 | 0.00 | 0.00 | 0.00 | 86 | 1017.5 |
| 20260830104529 | 74 | 152 | 4.3 | 9.6 | 0.00 | 0.00 | 0.00 | 86 | 1017.5 |
| 20260830104428 | 74 | 141 | 5.2 | 9.6 | 0.00 | 0.00 | 0.00 | 86 | 1017.5 |
| 20260830104331 | 74 | 143 | 5.2 | 10.4 | 0.00 | 0.00 | 0.00 | 86 | 1017.5 |
| 20260830104229 | 74 | 165 | 3.5 | 10.4 | 0.00 | 0.00 | 0.00 | 86 | 1017.3 |
| 20260830104128 | 74 | 155 | 4.3 | 10.4 | 0.00 | 0.00 | 0.00 | 86 | 1017.3 |
| 20260830104048 | 74 | 179 | 5.2 | 10.4 | 0.00 | 0.00 | 0.00 | 86 | 1017.3 |
| 20260830103925 | 74 | 182 | 4.3 | 10.4 | 0.00 | 0.00 | 0.00 | 86 | 1017.3 |
| 20260830103843 | 74 | 164 | 4.3 | 10.4 | 0.00 | 0.00 | 0.00 | 86 | 1017.3 |
| 20260830103744 | 74 | 161 | 5.2 | 10.4 | 0.00 | 0.00 | 0.00 | 86 | 1017.3 |
| 20260830103626 | 74 | 161 | 4.3 | 10.4 | 0.00 | 0.00 | 0.00 | 86 | 1017.3 |
| 20260830103524 | 74 | 167 | 6.1 | 10.4 | 0.00 | 0.00 | 0.00 | 86 | 1017.3 |
| 20260830103424 | 74 | 174 | 6.1 | 9.6 | 0.00 | 0.00 | 0.00 | 86 | 1017.3 |
| 20260830103325 | 74 | 164 | 6.1 | 9.6 | 0.00 | 0.00 | 0.00 | 86 | 1017.3 |
| 20260830103235 | 74 | 167 | 7.8 | 9.6 | 0.00 | 0.00 | 0.00 | 86 | 1017.3 |
| 20260830103146 | 74 | 157 | 4.3 | 9.6 | 0.00 | 0.00 | 0.00 | 86 | 1017.3 |
| 20260830103043 | 74 | 181 | 5.2 | 9.6 | 0.00 | 0.00 | 0.00 | 86 | 1017.3 |
| 20260830102927 | 74 | 167 | 5.2 | 9.6 | 0.00 | 0.00 | 0.00 | 86 | 1017.3 |
| 20260830102826 | 74 | 161 | 4.3 | 7.8 | 0.00 | 0.00 | 0.00 | 86 | 1017.3 |
| 20260830102743 | 74 | 176 | 5.2 | 7.0 | 0.00 | 0.00 | 0.00 | 86 | 1017.3 |
| 20260830102643 | 74 | 164 | 4.3 | 7.0 | 0.00 | 0.00 | 0.00 | 86 | 1017.3 |
| 20260830102602 | 74 | 160 | 4.3 | 7.0 | 0.00 | 0.00 | 0.00 | 86 | 1017.3 |
| 20260830102440 | 74 | 160 | 5.2 | 7.0 | 0.00 | 0.00 | 0.00 | 86 | 1017.3 |
| 20260830102339 | 74 | 164 | 5.2 | 8.7 | 0.00 | 0.00 | 0.00 | 86 | 1017.3 |
| 20260830102241 | 74 | 181 | 4.3 | 8.7 | 0.00 | 0.00 | 0.00 | 86 | 1017.3 |
| 20260830102159 | 74 | 141 | 5.2 | 9.6 | 0.00 | 0.00 | 0.00 | 86 | 1017.3 |
| 20260830102058 | 74 | 136 | 5.2 | 9.6 | 0.00 | 0.00 | 0.00 | 86 | 1017.3 |
| 20260830101936 | 74 | 154 | 4.3 | 9.6 | 0.00 | 0.00 | 0.00 | 86 | 1017.3 |
| 20260830101835 | 74 | 162 | 4.3 | 9.6 | 0.00 | 0.00 | 0.00 | 86 | 1017.3 |
| 20260830101743 | 74 | 191 | 5.2 | 9.6 | 0.00 | 0.00 | 0.00 | 86 | 1017.3 |
| 20260830101652 | 74 | 161 | 4.3 | 9.6 | 0.00 | 0.00 | 0.00 | 85 | 1017.3 |
| 20260830101551 | 74 | 136 | 7.0 | 10.4 | 0.00 | 0.00 | 0.00 | 85 | 1017.3 |
| 20260830101448 | 74 | 161 | 6.1 | 10.4 | 0.00 | 0.00 | 0.00 | 85 | 1017.3 |
| 20260830101330 | 74 | 161 | 7.0 | 10.4 | 0.00 | 0.00 | 0.00 | 85 | 1017.3 |
| 20260830101229 | 74 | 164 | 5.2 | 10.4 | 0.00 | 0.00 | 0.00 | 85 | 1017.0 |
| 20260830101129 | 74 | 158 | 5.2 | 10.4 | 0.00 | 0.00 | 0.00 | 85 | 1017.0 |
| 20260830101028 | 74 | 147 | 5.2 | 10.4 | 0.00 | 0.00 | 0.00 | 85 | 1017.0 |
| 20260830100930 | 74 | 172 | 6.1 | 10.4 | 0.00 | 0.00 | 0.00 | 85 | 1017.0 |
| 20260830100848 | 74 | 157 | 5.2 | 10.4 | 0.00 | 0.00 | 0.00 | 85 | 1017.0 |
| 20260830100726 | 74 | 160 | 7.0 | 10.4 | 0.00 | 0.00 | 0.00 | 85 | 1017.0 |
| 20260830100629 | 74 | 167 | 5.2 | 9.6 | 0.00 | 0.00 | 0.00 | 85 | 1017.0 |
| 20260830100532 | 74 | 121 | 6.1 | 9.6 | 0.00 | 0.00 | 0.00 | 85 | 1017.0 |
| 20260830100449 | 74 | 155 | 6.1 | 9.6 | 0.00 | 0.00 | 0.00 | 85 | 1017.0 |
| 20260830100327 | 74 | 160 | 6.1 | 9.6 | 0.00 | 0.00 | 0.00 | 85 | 1017.0 |
| 20260830100246 | 74 | 172 | 6.1 | 9.6 | 0.00 | 0.00 | 0.00 | 85 | 1017.0 |
| 20260830100156 | 74 | 148 | 4.3 | 9.6 | 0.00 | 0.00 | 0.00 | 85 | 1017.0 |
| 20260830100033 | 74 | 154 | 4.3 | 9.6 | 0.00 | 0.00 | 0.00 | 85 | 1017.0 |
| 20260830095930 | 74 | 152 | 7.0 | 9.6 | 0.00 | 0.00 | 0.00 | 85 | 1017.0 |
| 20260830095833 | 74 | 165 | 5.2 | 9.6 | 0.00 | 0.00 | 0.00 | 85 | 1017.0 |
| 20260830095731 | 74 | 167 | 4.3 | 9.6 | 0.00 | 0.00 | 0.00 | 85 | 1017.0 |
| 20260830095650 | 74 | 178 | 5.2 | 9.6 | 0.00 | 0.00 | 0.00 | 84 | 1017.0 |
| 20260830095528 | 74 | 199 | 5.2 | 9.6 | 0.00 | 0.00 | 0.00 | 84 | 1017.0 |
| 20260830095425 | 74 | 179 | 4.3 | 9.6 | 0.00 | 0.00 | 0.00 | 84 | 1017.0 |
| 20260830095345 | 74 | 168 | 5.2 | 9.6 | 0.00 | 0.00 | 0.00 | 84 | 1017.0 |
| 20260830095227 | 74 | 172 | 6.1 | 9.6 | 0.00 | 0.00 | 0.00 | 84 | 1017.0 |
| 20260830095125 | 74 | 155 | 5.2 | 8.7 | 0.00 | 0.00 | 0.00 | 84 | 1017.0 |
| 20260830095028 | 74 | 192 | 3.5 | 8.7 | 0.00 | 0.00 | 0.00 | 84 | 1017.0 |
| 20260830094928 | 74 | 176 | 4.3 | 8.7 | 0.00 | 0.00 | 0.00 | 84 | 1017.0 |
| 20260830094826 | 74 | 155 | 2.6 | 8.7 | 0.00 | 0.00 | 0.00 | 84 | 1017.0 |
| 20260830094745 | 74 | 176 | 4.3 | 8.7 | 0.00 | 0.00 | 0.00 | 84 | 1017.0 |
| 20260830094716 | 74 | 178 | 4.3 | 8.7 | 0.00 | 0.00 | 0.00 | 84 | 1017.0 |
| 20260830094554 | 74 | 171 | 5.2 | 8.7 | 0.00 | 0.00 | 0.00 | 84 | 1017.0 |
| 20260830094452 | 74 | 185 | 2.6 | 8.7 | 0.00 | 0.00 | 0.00 | 84 | 1017.0 |
| 20260830094330 | 74 | 181 | 4.3 | 8.7 | 0.00 | 0.00 | 0.00 | 84 | 1017.0 |
| 20260830094234 | 74 | 181 | 5.2 | 10.4 | 0.00 | 0.00 | 0.00 | 84 | 1017.0 |
| 20260830094152 | 74 | 155 | 5.2 | 10.4 | 0.00 | 0.00 | 0.00 | 84 | 1017.0 |
| 20260830094034 | 74 | 164 | 5.2 | 10.4 | 0.00 | 0.00 | 0.00 | 84 | 1017.0 |
| 20260830093933 | 74 | 184 | 4.3 | 10.4 | 0.00 | 0.00 | 0.00 | 84 | 1017.0 |
| 20260830093833 | 74 | 185 | 4.3 | 10.4 | 0.00 | 0.00 | 0.00 | 84 | 1017.0 |
| 20260830093731 | 74 | 186 | 4.3 | 10.4 | 0.00 | 0.00 | 0.00 | 84 | 1017.0 |
| 20260830093651 | 74 | 171 | 3.5 | 10.4 | 0.00 | 0.00 | 0.00 | 84 | 1017.0 |
| 20260830093529 | 74 | 191 | 5.2 | 10.4 | 0.00 | 0.00 | 0.00 | 84 | 1017.0 |
| 20260830093434 | 74 | 185 | 6.1 | 10.4 | 0.00 | 0.00 | 0.00 | 84 | 1017.0 |
| 20260830093333 | 74 | 192 | 4.3 | 10.4 | 0.00 | 0.00 | 0.00 | 84 | 1017.0 |
| 20260830093230 | 74 | 176 | 4.3 | 10.4 | 0.00 | 0.00 | 0.00 | 84 | 1017.0 |
| 20260830093200 | 74 | 193 | 5.2 | 10.4 | 0.00 | 0.00 | 0.00 | 84 | 1017.0 |
| 20260830093037 | 74 | 203 | 5.2 | 10.4 | 0.00 | 0.00 | 0.00 | 84 | 1017.0 |
| 20260830092935 | 74 | 188 | 5.2 | 9.6 | 0.00 | 0.00 | 0.00 | 84 | 1017.0 |
| 20260830092833 | 74 | 176 | 4.3 | 9.6 | 0.00 | 0.00 | 0.00 | 84 | 1017.0 |
| 20260830092736 | 74 | 160 | 5.2 | 9.6 | 0.00 | 0.00 | 0.00 | 84 | 1017.0 |
| 20260830092634 | 74 | 202 | 4.3 | 9.6 | 0.00 | 0.00 | 0.00 | 84 | 1017.0 |
| 20260830092538 | 74 | 200 | 4.3 | 9.6 | 0.00 | 0.00 | 0.00 | 84 | 1017.0 |
| 20260830092436 | 74 | 205 | 5.2 | 9.6 | 0.00 | 0.00 | 0.00 | 84 | 1017.0 |
| 20260830092336 | 74 | 174 | 5.2 | 9.6 | 0.00 | 0.00 | 0.00 | 84 | 1017.0 |
| 20260830092235 | 74 | 209 | 4.3 | 9.6 | 0.00 | 0.00 | 0.00 | 84 | 1017.0 |
| 20260830092138 | 74 | 186 | 5.2 | 9.6 | 0.00 | 0.00 | 0.00 | 84 | 1017.0 |
| 20260830092036 | 74 | 175 | 4.3 | 8.7 | 0.00 | 0.00 | 0.00 | 84 | 1017.0 |
| 20260830091935 | 74 | 176 | 5.2 | 9.6 | 0.00 | 0.00 | 0.00 | 84 | 1017.0 |
| 20260830091833 | 74 | 181 | 3.5 | 11.3 | 0.00 | 0.00 | 0.00 | 84 | 1017.0 |
| 20260830091731 | 74 | 165 | 5.2 | 11.3 | 0.00 | 0.00 | 0.00 | 84 | 1017.0 |
| 20260830091702 | 74 | 171 | 4.3 | 11.3 | 0.00 | 0.00 | 0.00 | 84 | 1017.0 |
| 20260830091540 | 74 | 179 | 4.3 | 11.3 | 0.00 | 0.00 | 0.00 | 84 | 1017.0 |
| 20260830091438 | 74 | 212 | 5.2 | 11.3 | 0.00 | 0.00 | 0.00 | 84 | 1017.0 |
| 20260830091341 | 74 | 185 | 5.2 | 11.3 | 0.00 | 0.00 | 0.00 | 84 | 1017.0 |
| 20260830091240 | 74 | 188 | 3.5 | 11.3 | 0.00 | 0.00 | 0.00 | 84 | 1016.9 |
| 20260830091138 | 74 | 175 | 4.3 | 11.3 | 0.00 | 0.00 | 0.00 | 84 | 1016.9 |
| 20260830091038 | 74 | 184 | 5.2 | 11.3 | 0.00 | 0.00 | 0.00 | 84 | 1016.9 |
| 20260830090938 | 74 | 186 | 6.1 | 10.4 | 0.00 | 0.00 | 0.00 | 84 | 1016.9 |
| 20260830090837 | 74 | 164 | 4.3 | 10.4 | 0.00 | 0.00 | 0.00 | 84 | 1016.9 |
| 20260830090756 | 74 | 185 | 5.2 | 10.4 | 0.00 | 0.00 | 0.00 | 84 | 1016.9 |
| 20260830090637 | 74 | 174 | 5.2 | 10.4 | 0.00 | 0.00 | 0.00 | 84 | 1016.9 |
| 20260830090534 | 74 | 158 | 5.2 | 10.4 | 0.00 | 0.00 | 0.00 | 84 | 1016.9 |
| 20260830090453 | 74 | 193 | 5.2 | 10.4 | 0.00 | 0.00 | 0.00 | 84 | 1016.9 |
| 20260830090331 | 74 | 184 | 5.2 | 10.4 | 0.00 | 0.00 | 0.00 | 84 | 1016.9 |
| 20260830090230 | 74 | 169 | 4.3 | 10.4 | 0.00 | 0.00 | 0.00 | 84 | 1016.9 |
| 20260830090202 | 74 | 212 | 4.3 | 10.4 | 0.00 | 0.00 | 0.00 | 84 | 1016.9 |
| 20260830090038 | 74 | 178 | 5.2 | 9.6 | 0.00 | 0.00 | 0.00 | 84 | 1016.9 |
| 20260830085937 | 74 | 186 | 6.1 | 9.6 | 0.00 | 0.00 | 0.00 | 84 | 1016.9 |
| 20260830085900 | 74 | 176 | 6.1 | 9.6 | 0.00 | 0.00 | 0.00 | 83 | 1016.9 |
| 20260830085739 | 74 | 181 | 4.3 | 8.7 | 0.00 | 0.00 | 0.00 | 83 | 1017.0 |
| 20260830085657 | 74 | 160 | 3.5 | 8.7 | 0.00 | 0.00 | 0.00 | 83 | 1017.0 |
| 20260830085535 | 74 | 181 | 6.1 | 8.7 | 0.00 | 0.00 | 0.00 | 83 | 1017.0 |
| 20260830085452 | 74 | 164 | 4.3 | 9.6 | 0.00 | 0.00 | 0.00 | 83 | 1017.0 |
| 20260830085329 | 74 | 184 | 4.3 | 10.4 | 0.00 | 0.00 | 0.00 | 83 | 1017.0 |
| 20260830085248 | 74 | 168 | 4.3 | 13.9 | 0.00 | 0.00 | 0.00 | 83 | 1017.0 |
| 20260830085145 | 74 | 176 | 3.5 | 13.9 | 0.00 | 0.00 | 0.00 | 83 | 1017.0 |
| 20260830085103 | 74 | 164 | 3.5 | 13.9 | 0.00 | 0.00 | 0.00 | 83 | 1017.0 |
| 20260830084824 | 74 | 167 | 4.3 | 13.9 | 0.00 | 0.00 | 0.00 | 83 | 1017.0 |
| 20260830084736 | 74 | 182 | 6.1 | 13.9 | 0.00 | 0.00 | 0.00 | 83 | 1017.0 |
| 20260830084647 | 74 | 188 | 6.1 | 13.9 | 0.00 | 0.00 | 0.00 | 83 | 1017.0 |
| 20260830084543 | 74 | 196 | 6.1 | 13.9 | 0.00 | 0.00 | 0.00 | 83 | 1017.0 |
| 20260830084443 | 74 | 191 | 4.3 | 13.9 | 0.00 | 0.00 | 0.00 | 83 | 1017.0 |
| 20260830084342 | 74 | 192 | 6.1 | 13.9 | 0.00 | 0.00 | 0.00 | 83 | 1017.0 |
| 20260830084223 | 74 | 134 | 4.3 | 12.2 | 0.00 | 0.00 | 0.00 | 83 | 1016.9 |
| 20260830084125 | 74 | 175 | 4.3 | 12.2 | 0.00 | 0.00 | 0.00 | 83 | 1016.9 |
| 20260830084043 | 74 | 176 | 5.2 | 12.2 | 0.00 | 0.00 | 0.00 | 83 | 1016.9 |
| 20260830083942 | 74 | 195 | 6.1 | 12.2 | 0.00 | 0.00 | 0.00 | 83 | 1016.9 |
| 20260830083841 | 74 | 178 | 6.1 | 12.2 | 0.00 | 0.00 | 0.00 | 83 | 1016.9 |
| 20260830083740 | 74 | 209 | 4.3 | 12.2 | 0.00 | 0.00 | 0.00 | 83 | 1016.9 |
| 20260830083639 | 74 | 165 | 4.3 | 12.2 | 0.00 | 0.00 | 0.00 | 83 | 1016.9 |
| 20260830083541 | 74 | 202 | 4.3 | 12.2 | 0.00 | 0.00 | 0.00 | 83 | 1016.9 |
| 20260830083440 | 74 | 205 | 6.1 | 12.2 | 0.00 | 0.00 | 0.00 | 83 | 1016.9 |
| 20260830083339 | 74 | 172 | 8.7 | 12.2 | 0.00 | 0.00 | 0.00 | 83 | 1016.9 |
| 20260830083235 | 74 | 200 | 7.8 | 12.2 | 0.00 | 0.00 | 0.00 | 83 | 1016.9 |
| 20260830083206 | 74 | 178 | 7.0 | 12.2 | 0.00 | 0.00 | 0.00 | 83 | 1016.9 |
| 20260830083104 | 74 | 198 | 6.1 | 12.2 | 0.00 | 0.00 | 0.00 | 83 | 1016.9 |
| 20260830082941 | 74 | 215 | 5.2 | 12.2 | 0.00 | 0.00 | 0.00 | 83 | 1016.9 |
| 20260830082840 | 74 | 196 | 4.3 | 10.4 | 0.00 | 0.00 | 0.00 | 83 | 1016.9 |
| 20260830082743 | 74 | 186 | 3.5 | 10.4 | 0.00 | 0.00 | 0.00 | 83 | 1016.9 |
| 20260830082642 | 74 | 179 | 3.5 | 10.4 | 0.00 | 0.00 | 0.00 | 83 | 1016.9 |
| 20260830082540 | 74 | 195 | 4.3 | 10.4 | 0.00 | 0.00 | 0.00 | 83 | 1016.9 |
| 20260830082457 | 74 | 191 | 3.5 | 10.4 | 0.00 | 0.00 | 0.00 | 83 | 1016.9 |
| 20260830082336 | 74 | 184 | 4.3 | 10.4 | 0.00 | 0.00 | 0.00 | 83 | 1016.9 |
| 20260830082233 | 74 | 191 | 4.3 | 10.4 | 0.00 | 0.00 | 0.00 | 83 | 1016.9 |
| 20260830082132 | 74 | 181 | 3.5 | 10.4 | 0.00 | 0.00 | 0.00 | 83 | 1016.9 |
| 20260830082035 | 74 | 198 | 5.2 | 10.4 | 0.00 | 0.00 | 0.00 | 83 | 1016.9 |
| 20260830081933 | 74 | 189 | 6.1 | 10.4 | 0.00 | 0.00 | 0.00 | 83 | 1016.9 |
| 20260830081855 | 74 | 188 | 4.3 | 9.6 | 0.00 | 0.00 | 0.00 | 83 | 1016.9 |
| 20260830081742 | 74 | 179 | 5.2 | 9.6 | 0.00 | 0.00 | 0.00 | 83 | 1016.9 |
| 20260830081651 | 74 | 191 | 4.3 | 9.6 | 0.00 | 0.00 | 0.00 | 83 | 1016.9 |
| 20260830081531 | 74 | 175 | 5.2 | 10.4 | 0.00 | 0.00 | 0.00 | 83 | 1016.9 |
| 20260830081430 | 74 | 160 | 6.1 | 10.4 | 0.00 | 0.00 | 0.00 | 83 | 1016.9 |
| 20260830081329 | 74 | 167 | 4.3 | 10.4 | 0.00 | 0.00 | 0.00 | 83 | 1016.9 |
| 20260830081226 | 74 | 193 | 3.5 | 10.4 | 0.00 | 0.00 | 0.00 | 83 | 1016.7 |
| 20260830081130 | 74 | 200 | 5.2 | 10.4 | 0.00 | 0.00 | 0.00 | 83 | 1016.7 |
| 20260830081029 | 74 | 192 | 5.2 | 10.4 | 0.00 | 0.00 | 0.00 | 83 | 1016.7 |
| 20260830080928 | 74 | 188 | 4.3 | 10.4 | 0.00 | 0.00 | 0.00 | 83 | 1016.7 |
| 20260830080828 | 74 | 176 | 5.2 | 10.4 | 0.00 | 0.00 | 0.00 | 83 | 1016.7 |
| 20260830080747 | 74 | 169 | 5.2 | 10.4 | 0.00 | 0.00 | 0.00 | 83 | 1016.7 |
| 20260830080626 | 74 | 179 | 4.3 | 10.4 | 0.00 | 0.00 | 0.00 | 83 | 1016.7 |
| 20260830080525 | 74 | 184 | 5.2 | 10.4 | 0.00 | 0.00 | 0.00 | 83 | 1016.7 |
| 20260830080427 | 74 | 174 | 4.3 | 10.4 | 0.00 | 0.00 | 0.00 | 84 | 1016.7 |
| 20260830080327 | 74 | 172 | 5.2 | 10.4 | 0.00 | 0.00 | 0.00 | 84 | 1016.7 |
| 20260830080237 | 74 | 191 | 7.0 | 10.4 | 0.00 | 0.00 | 0.00 | 84 | 1016.7 |
| 20260830080146 | 74 | 179 | 4.3 | 10.4 | 0.00 | 0.00 | 0.00 | 83 | 1016.7 |
| 20260830080044 | 75 | 196 | 5.2 | 10.4 | 0.00 | 0.00 | 0.00 | 83 | 1016.7 |
| 20260830080002 | 75 | 178 | 7.0 | 9.6 | 0.00 | 0.00 | 0.00 | 84 | 1016.7 |
| 20260830075840 | 75 | 193 | 5.2 | 9.6 | 0.00 | 0.00 | 0.00 | 83 | 1016.7 |
| 20260830075724 | 75 | 178 | 6.1 | 9.6 | 0.00 | 0.00 | 0.00 | 84 | 1016.8 |
| 20260830075643 | 75 | 167 | 6.1 | 9.6 | 0.00 | 0.00 | 0.00 | 84 | 1016.8 |
| 20260830075521 | 75 | 191 | 5.2 | 9.6 | 0.00 | 0.00 | 0.00 | 83 | 1016.8 |
| 20260830075443 | 75 | 176 | 5.2 | 9.6 | 0.00 | 0.00 | 0.00 | 83 | 1016.8 |
| 20260830075401 | 75 | 192 | 5.2 | 9.6 | 0.00 | 0.00 | 0.00 | 84 | 1016.8 |
| 20260830075239 | 75 | 160 | 5.2 | 9.6 | 0.00 | 0.00 | 0.00 | 84 | 1016.8 |
| 20260830075138 | 75 | 181 | 5.2 | 10.4 | 0.00 | 0.00 | 0.00 | 83 | 1016.8 |
| 20260830075035 | 75 | 161 | 6.1 | 10.4 | 0.00 | 0.00 | 0.00 | 83 | 1016.8 |
| 20260830074937 | 75 | 195 | 6.1 | 10.4 | 0.00 | 0.00 | 0.00 | 83 | 1016.8 |
| 20260830074836 | 75 | 191 | 6.1 | 10.4 | 0.00 | 0.00 | 0.00 | 83 | 1016.8 |
| 20260830074755 | 75 | 164 | 6.1 | 10.4 | 0.00 | 0.00 | 0.00 | 83 | 1016.8 |
| 20260830074703 | 75 | 168 | 6.1 | 10.4 | 0.00 | 0.00 | 0.00 | 83 | 1016.8 |
| 20260830074600 | 75 | 189 | 5.2 | 10.4 | 0.00 | 0.00 | 0.00 | 83 | 1016.8 |
| 20260830074439 | 75 | 165 | 5.2 | 10.4 | 0.00 | 0.00 | 0.00 | 83 | 1016.8 |
| 20260830074339 | 75 | 185 | 5.2 | 10.4 | 0.00 | 0.00 | 0.00 | 83 | 1016.8 |
| 20260830074238 | 75 | 178 | 6.1 | 9.6 | 0.00 | 0.00 | 0.00 | 83 | 1016.8 |
| 20260830074140 | 75 | 161 | 5.2 | 9.6 | 0.00 | 0.00 | 0.00 | 83 | 1016.8 |
| 20260830074039 | 75 | 182 | 4.3 | 9.6 | 0.00 | 0.00 | 0.00 | 83 | 1016.8 |
| 20260830073939 | 75 | 174 | 4.3 | 9.6 | 0.00 | 0.00 | 0.00 | 83 | 1016.8 |
| 20260830073840 | 75 | 196 | 5.2 | 11.3 | 0.00 | 0.00 | 0.00 | 83 | 1016.8 |
| 20260830073737 | 75 | 184 | 5.2 | 11.3 | 0.00 | 0.00 | 0.00 | 83 | 1016.8 |
| 20260830073636 | 75 | 161 | 4.3 | 11.3 | 0.00 | 0.00 | 0.00 | 83 | 1016.8 |
| 20260830073555 | 75 | 150 | 4.3 | 11.3 | 0.00 | 0.00 | 0.00 | 83 | 1016.8 |
| 20260830073437 | 75 | 195 | 4.3 | 11.3 | 0.00 | 0.00 | 0.00 | 83 | 1016.8 |
| 20260830073334 | 75 | 162 | 4.3 | 11.3 | 0.00 | 0.00 | 0.00 | 83 | 1016.8 |
| 20260830073253 | 75 | 158 | 3.5 | 11.3 | 0.00 | 0.00 | 0.00 | 83 | 1016.8 |
| 20260830073222 | 75 | 175 | 4.3 | 11.3 | 0.00 | 0.00 | 0.00 | 83 | 1016.8 |
| 20260830073058 | 75 | 158 | 7.0 | 11.3 | 0.00 | 0.00 | 0.00 | 83 | 1016.8 |
| 20260830072933 | 75 | 145 | 6.1 | 11.3 | 0.00 | 0.00 | 0.00 | 83 | 1016.8 |
| 20260830072833 | 75 | 169 | 6.1 | 10.4 | 0.00 | 0.00 | 0.00 | 83 | 1016.8 |
| 20260830072732 | 75 | 174 | 5.2 | 10.4 | 0.00 | 0.00 | 0.00 | 83 | 1016.9 |
| 20260830072630 | 75 | 182 | 5.2 | 10.4 | 0.00 | 0.00 | 0.00 | 83 | 1016.9 |
| 20260830072552 | 75 | 172 | 5.2 | 10.4 | 0.00 | 0.00 | 0.00 | 83 | 1016.9 |
| 20260830072430 | 75 | 145 | 6.1 | 10.4 | 0.00 | 0.00 | 0.00 | 83 | 1016.9 |
| 20260830072331 | 75 | 152 | 7.0 | 10.4 | 0.00 | 0.00 | 0.00 | 83 | 1016.9 |
| 20260830072228 | 75 | 162 | 4.3 | 10.4 | 0.00 | 0.00 | 0.00 | 83 | 1016.9 |
| 20260830072127 | 75 | 195 | 5.2 | 10.4 | 0.00 | 0.00 | 0.00 | 83 | 1016.9 |
| 20260830072028 | 75 | 150 | 3.5 | 10.4 | 0.00 | 0.00 | 0.00 | 83 | 1016.9 |
| 20260830071927 | 75 | 169 | 5.2 | 10.4 | 0.00 | 0.00 | 0.00 | 83 | 1016.9 |
| 20260830071829 | 75 | 147 | 3.5 | 10.4 | 0.00 | 0.00 | 0.00 | 83 | 1016.9 |
| 20260830071729 | 75 | 160 | 5.2 | 10.4 | 0.00 | 0.00 | 0.00 | 83 | 1016.9 |
| 20260830071658 | 75 | 179 | 6.1 | 10.4 | 0.00 | 0.00 | 0.00 | 83 | 1016.9 |
| 20260830071537 | 75 | 174 | 5.2 | 10.4 | 0.00 | 0.00 | 0.00 | 83 | 1016.9 |
| 20260830071435 | 75 | 161 | 6.1 | 10.4 | 0.00 | 0.00 | 0.00 | 83 | 1016.9 |
| 20260830071354 | 75 | 158 | 6.1 | 10.4 | 0.00 | 0.00 | 0.00 | 83 | 1016.9 |
| 20260830071232 | 75 | 162 | 6.1 | 10.4 | 0.00 | 0.00 | 0.00 | 83 | 1017.0 |
| 20260830071136 | 75 | 213 | 6.1 | 10.4 | 0.00 | 0.00 | 0.00 | 83 | 1017.0 |
| 20260830071035 | 75 | 178 | 5.2 | 10.4 | 0.00 | 0.00 | 0.00 | 83 | 1017.0 |
| 20260830070933 | 75 | 174 | 4.3 | 10.4 | 0.00 | 0.00 | 0.00 | 83 | 1017.0 |
| 20260830070831 | 75 | 144 | 5.2 | 10.4 | 0.00 | 0.00 | 0.00 | 83 | 1017.0 |
| 20260830070729 | 75 | 158 | 7.0 | 10.4 | 0.00 | 0.00 | 0.00 | 83 | 1017.0 |
| 20260830070628 | 75 | 164 | 5.2 | 10.4 | 0.00 | 0.00 | 0.00 | 83 | 1017.0 |
| 20260830070527 | 75 | 171 | 6.1 | 10.4 | 0.00 | 0.00 | 0.00 | 83 | 1017.0 |
| 20260830070431 | 75 | 150 | 5.2 | 10.4 | 0.00 | 0.00 | 0.00 | 83 | 1017.0 |
| 20260830070329 | 75 | 154 | 4.3 | 10.4 | 0.00 | 0.00 | 0.00 | 83 | 1017.0 |
| 20260830070239 | 75 | 162 | 8.7 | 10.4 | 0.00 | 0.00 | 0.00 | 83 | 1017.0 |
| 20260830070149 | 75 | 150 | 6.1 | 10.4 | 0.00 | 0.00 | 0.00 | 83 | 1017.0 |
| 20260830070026 | 75 | 162 | 6.1 | 10.4 | 0.00 | 0.00 | 0.00 | 83 | 1017.0 |
| 20260830065925 | 75 | 158 | 6.1 | 10.4 | 0.00 | 0.00 | 0.00 | 83 | 1017.0 |
| 20260830065843 | 75 | 184 | 7.0 | 11.3 | 0.00 | 0.00 | 0.00 | 83 | 1017.0 |
| 20260830065726 | 75 | 144 | 6.1 | 11.3 | 0.00 | 0.00 | 0.00 | 83 | 1017.0 |
| 20260830065625 | 75 | 158 | 6.1 | 11.3 | 0.00 | 0.00 | 0.00 | 83 | 1017.0 |
| 20260830065524 | 75 | 165 | 5.2 | 11.3 | 0.00 | 0.00 | 0.00 | 83 | 1017.0 |
| 20260830065442 | 75 | 151 | 5.2 | 11.3 | 0.00 | 0.00 | 0.00 | 83 | 1017.0 |
| 20260830065342 | 75 | 152 | 5.2 | 11.3 | 0.00 | 0.00 | 0.00 | 82 | 1017.0 |
| 20260830065241 | 75 | 191 | 5.2 | 11.3 | 0.00 | 0.00 | 0.00 | 82 | 1017.0 |
| 20260830065159 | 75 | 167 | 6.1 | 11.3 | 0.00 | 0.00 | 0.00 | 82 | 1017.0 |
| 20260830065056 | 75 | 176 | 6.1 | 11.3 | 0.00 | 0.00 | 0.00 | 82 | 1017.0 |
| 20260830064938 | 75 | 161 | 5.2 | 11.3 | 0.00 | 0.00 | 0.00 | 82 | 1017.0 |
| 20260830064838 | 75 | 152 | 6.1 | 11.3 | 0.00 | 0.00 | 0.00 | 82 | 1017.0 |
| 20260830064738 | 75 | 154 | 6.1 | 11.3 | 0.00 | 0.00 | 0.00 | 82 | 1017.0 |
| 20260830064646 | 75 | 160 | 6.1 | 11.3 | 0.00 | 0.00 | 0.00 | 82 | 1017.0 |
| 20260830064543 | 75 | 148 | 5.2 | 10.4 | 0.00 | 0.00 | 0.00 | 82 | 1017.0 |
| 20260830064442 | 75 | 130 | 5.2 | 10.4 | 0.00 | 0.00 | 0.00 | 82 | 1017.0 |
| 20260830064341 | 75 | 136 | 4.3 | 10.4 | 0.00 | 0.00 | 0.00 | 82 | 1017.0 |
| 20260830064244 | 75 | 179 | 4.3 | 10.4 | 0.00 | 0.00 | 0.00 | 82 | 1017.0 |
| 20260830064203 | 75 | 179 | 4.3 | 10.4 | 0.00 | 0.00 | 0.00 | 82 | 1017.0 |
| 20260830064041 | 75 | 127 | 6.1 | 10.4 | 0.00 | 0.00 | 0.00 | 82 | 1017.0 |
| 20260830063938 | 75 | 184 | 4.3 | 9.6 | 0.00 | 0.00 | 0.00 | 82 | 1017.0 |
| 20260830063838 | 75 | 162 | 5.2 | 9.6 | 0.00 | 0.00 | 0.00 | 82 | 1017.0 |
| 20260830063757 | 75 | 164 | 5.2 | 9.6 | 0.00 | 0.00 | 0.00 | 82 | 1017.0 |
| 20260830063634 | 75 | 165 | 4.3 | 9.6 | 0.00 | 0.00 | 0.00 | 81 | 1017.0 |
| 20260830063533 | 75 | 172 | 4.3 | 9.6 | 0.00 | 0.00 | 0.00 | 81 | 1017.0 |
| 20260830063436 | 75 | 161 | 5.2 | 9.6 | 0.00 | 0.00 | 0.00 | 81 | 1017.0 |
| 20260830063334 | 75 | 169 | 4.3 | 9.6 | 0.00 | 0.00 | 0.00 | 81 | 1017.0 |
| 20260830063253 | 75 | 143 | 4.3 | 9.6 | 0.00 | 0.00 | 0.00 | 81 | 1017.0 |
| 20260830063203 | 75 | 144 | 5.2 | 9.6 | 0.00 | 0.00 | 0.00 | 81 | 1017.0 |
| 20260830063039 | 75 | 158 | 3.5 | 9.6 | 0.00 | 0.00 | 0.00 | 81 | 1017.0 |
| 20260830062940 | 75 | 157 | 6.1 | 9.6 | 0.00 | 0.00 | 0.00 | 81 | 1017.0 |
| 20260830062839 | 75 | 175 | 5.2 | 10.4 | 0.00 | 0.00 | 0.00 | 81 | 1017.0 |
| 20260830062738 | 75 | 171 | 5.2 | 10.4 | 0.00 | 0.00 | 0.00 | 81 | 1017.1 |
| 20260830062640 | 75 | 158 | 5.2 | 10.4 | 0.00 | 0.00 | 0.00 | 81 | 1017.1 |
| 20260830062540 | 75 | 167 | 5.2 | 10.4 | 0.00 | 0.00 | 0.00 | 81 | 1017.1 |
| 20260830062439 | 75 | 150 | 4.3 | 11.3 | 0.00 | 0.00 | 0.00 | 81 | 1017.1 |
| 20260830062338 | 75 | 172 | 4.3 | 11.3 | 0.00 | 0.00 | 0.00 | 81 | 1017.1 |
| 20260830062234 | 75 | 152 | 5.2 | 11.3 | 0.00 | 0.00 | 0.00 | 81 | 1017.1 |
| 20260830062132 | 75 | 162 | 5.2 | 11.3 | 0.00 | 0.00 | 0.00 | 81 | 1017.1 |
| 20260830062052 | 75 | 121 | 6.1 | 11.3 | 0.00 | 0.00 | 0.00 | 81 | 1017.1 |
| 20260830061936 | 75 | 144 | 5.2 | 11.3 | 0.00 | 0.00 | 0.00 | 81 | 1017.1 |
| 20260830061834 | 75 | 154 | 6.1 | 11.3 | 0.00 | 0.00 | 0.00 | 81 | 1017.1 |
| 20260830061733 | 75 | 144 | 6.1 | 11.3 | 0.00 | 0.00 | 0.00 | 81 | 1017.1 |
| 20260830061704 | 75 | 141 | 7.0 | 11.3 | 0.00 | 0.00 | 0.00 | 81 | 1017.1 |
| 20260830061541 | 75 | 147 | 4.3 | 9.6 | 0.00 | 0.00 | 0.00 | 81 | 1017.1 |
| 20260830061441 | 75 | 134 | 5.2 | 9.6 | 0.00 | 0.00 | 0.00 | 81 | 1017.1 |
| 20260830061339 | 75 | 155 | 5.2 | 9.6 | 0.00 | 0.00 | 0.00 | 81 | 1017.1 |
| 20260830061242 | 75 | 144 | 6.1 | 9.6 | 0.00 | 0.00 | 0.00 | 81 | 1017.1 |
| 20260830061141 | 75 | 144 | 5.2 | 9.6 | 0.00 | 0.00 | 0.00 | 81 | 1017.1 |
| 20260830061040 | 75 | 150 | 6.1 | 9.6 | 0.00 | 0.00 | 0.00 | 81 | 1017.1 |
| 20260830060938 | 75 | 154 | 5.2 | 8.7 | 0.00 | 0.00 | 0.00 | 81 | 1017.1 |
| 20260830060837 | 75 | 158 | 5.2 | 8.7 | 0.00 | 0.00 | 0.00 | 81 | 1017.1 |
| 20260830060736 | 75 | 165 | 6.1 | 8.7 | 0.00 | 0.00 | 0.00 | 80 | 1017.1 |
| 20260830060639 | 75 | 152 | 4.3 | 8.7 | 0.00 | 0.00 | 0.00 | 80 | 1017.1 |
| 20260830060541 | 75 | 157 | 4.3 | 8.7 | 0.00 | 0.00 | 0.00 | 80 | 1017.1 |
| 20260830060500 | 75 | 155 | 5.2 | 8.7 | 0.00 | 0.00 | 0.00 | 81 | 1017.1 |
| 20260830060357 | 75 | 148 | 4.3 | 8.7 | 0.00 | 0.00 | 0.00 | 81 | 1017.1 |
| 20260830060316 | 75 | 161 | 4.3 | 8.7 | 0.00 | 0.00 | 0.00 | 80 | 1017.1 |
| 20260830060225 | 75 | 147 | 6.1 | 9.6 | 0.00 | 0.00 | 0.00 | 80 | 1017.1 |
| 20260830060041 | 75 | 131 | 5.2 | 9.6 | 0.00 | 0.00 | 0.00 | 80 | 1017.1 |
| 20260830055940 | 75 | 131 | 4.3 | 9.6 | 0.00 | 0.00 | 0.00 | 80 | 1017.1 |
| 20260830055838 | 75 | 160 | 5.2 | 9.6 | 0.00 | 0.00 | 0.00 | 80 | 1017.1 |
| 20260830055740 | 75 | 145 | 4.3 | 9.6 | 0.00 | 0.00 | 0.00 | 80 | 1017.1 |
| 20260830055700 | 75 | 158 | 3.5 | 9.6 | 0.00 | 0.00 | 0.00 | 80 | 1017.1 |
| 20260830055538 | 75 | 147 | 2.6 | 9.6 | 0.00 | 0.00 | 0.00 | 80 | 1017.1 |
| 20260830055437 | 75 | 168 | 4.3 | 9.6 | 0.00 | 0.00 | 0.00 | 80 | 1017.1 |
| 20260830055336 | 75 | 162 | 7.0 | 9.6 | 0.00 | 0.00 | 0.00 | 80 | 1017.1 |
| 20260830055238 | 75 | 136 | 7.0 | 9.6 | 0.00 | 0.00 | 0.00 | 80 | 1017.1 |
| 20260830055157 | 75 | 155 | 4.3 | 9.6 | 0.00 | 0.00 | 0.00 | 80 | 1017.1 |
| 20260830055055 | 75 | 147 | 5.2 | 9.6 | 0.00 | 0.00 | 0.00 | 80 | 1017.1 |
| 20260830054935 | 75 | 145 | 4.3 | 9.6 | 0.00 | 0.00 | 0.00 | 80 | 1017.1 |
| 20260830054835 | 75 | 168 | 4.3 | 9.6 | 0.00 | 0.00 | 0.00 | 80 | 1017.1 |
| 20260830054733 | 75 | 157 | 5.2 | 9.6 | 0.00 | 0.00 | 0.00 | 80 | 1017.1 |
| 20260830054702 | 75 | 150 | 5.2 | 9.6 | 0.00 | 0.00 | 0.00 | 80 | 1017.1 |
| 20260830054559 | 75 | 160 | 6.1 | 9.6 | 0.00 | 0.00 | 0.00 | 80 | 1017.1 |
| 20260830054438 | 75 | 150 | 5.2 | 9.6 | 0.00 | 0.00 | 0.00 | 80 | 1017.1 |
| 20260830054337 | 75 | 144 | 6.1 | 9.6 | 0.00 | 0.00 | 0.00 | 80 | 1017.1 |
| 20260830054236 | 75 | 137 | 5.2 | 9.6 | 0.00 | 0.00 | 0.00 | 80 | 1017.2 |
| 20260830054137 | 75 | 145 | 6.1 | 9.6 | 0.00 | 0.00 | 0.00 | 80 | 1017.2 |
| 20260830054035 | 75 | 152 | 4.3 | 10.4 | 0.00 | 0.00 | 0.00 | 80 | 1017.2 |
| 20260830053935 | 75 | 138 | 3.5 | 10.4 | 0.00 | 0.00 | 0.00 | 80 | 1017.2 |
| 20260830053834 | 75 | 121 | 7.0 | 10.4 | 0.00 | 0.00 | 0.00 | 80 | 1017.2 |
| 20260830053732 | 75 | 141 | 5.2 | 10.4 | 0.00 | 0.00 | 0.00 | 80 | 1017.2 |
| 20260830053631 | 75 | 133 | 4.3 | 10.4 | 0.00 | 0.00 | 0.00 | 80 | 1017.2 |
| 20260830053530 | 75 | 131 | 6.1 | 10.4 | 0.00 | 0.00 | 0.00 | 80 | 1017.2 |
| 20260830053432 | 75 | 121 | 7.0 | 10.4 | 0.00 | 0.00 | 0.00 | 80 | 1017.2 |
| 20260830053352 | 75 | 144 | 6.1 | 10.4 | 0.00 | 0.00 | 0.00 | 80 | 1017.2 |
| 20260830053300 | 75 | 138 | 7.8 | 10.4 | 0.00 | 0.00 | 0.00 | 80 | 1017.2 |
| 20260830053149 | 75 | 138 | 6.1 | 10.4 | 0.00 | 0.00 | 0.00 | 80 | 1017.2 |
| 20260830053025 | 75 | 145 | 4.3 | 9.6 | 0.00 | 0.00 | 0.00 | 80 | 1017.2 |
| 20260830052943 | 75 | 140 | 6.1 | 9.6 | 0.00 | 0.00 | 0.00 | 80 | 1017.2 |
| 20260830052841 | 75 | 137 | 6.1 | 9.6 | 0.00 | 0.00 | 0.00 | 80 | 1017.2 |
| 20260830052739 | 75 | 133 | 4.3 | 9.6 | 0.00 | 0.00 | 0.00 | 80 | 1017.4 |
| 20260830052637 | 76 | 145 | 5.2 | 9.6 | 0.00 | 0.00 | 0.00 | 80 | 1017.4 |
| 20260830052540 | 76 | 140 | 5.2 | 9.6 | 0.00 | 0.00 | 0.00 | 80 | 1017.4 |
| 20260830052440 | 76 | 134 | 6.1 | 9.6 | 0.00 | 0.00 | 0.00 | 80 | 1017.4 |
| 20260830052339 | 76 | 148 | 5.2 | 9.6 | 0.00 | 0.00 | 0.00 | 80 | 1017.4 |
| 20260830052237 | 76 | 143 | 6.1 | 9.6 | 0.00 | 0.00 | 0.00 | 80 | 1017.4 |
| 20260830052136 | 76 | 151 | 4.3 | 9.6 | 0.00 | 0.00 | 0.00 | 80 | 1017.4 |
| 20260830052034 | 76 | 137 | 5.2 | 9.6 | 0.00 | 0.00 | 0.00 | 80 | 1017.4 |
| 20260830051936 | 76 | 143 | 4.3 | 9.6 | 0.00 | 0.00 | 0.00 | 80 | 1017.4 |
| 20260830051835 | 76 | 127 | 6.1 | 9.6 | 0.00 | 0.00 | 0.00 | 79 | 1017.4 |
| 20260830051733 | 76 | 151 | 5.2 | 9.6 | 0.00 | 0.00 | 0.00 | 79 | 1017.4 |
| 20260830051707 | 76 | 133 | 5.2 | 9.6 | 0.00 | 0.00 | 0.00 | 79 | 1017.4 |
| 20260830051604 | 76 | 123 | 5.2 | 9.6 | 0.00 | 0.00 | 0.00 | 79 | 1017.4 |
| 20260830051442 | 76 | 145 | 3.5 | 9.6 | 0.00 | 0.00 | 0.00 | 79 | 1017.4 |
| 20260830051340 | 76 | 124 | 5.2 | 9.6 | 0.00 | 0.00 | 0.00 | 79 | 1017.4 |
| 20260830051224 | 76 | 130 | 4.3 | 9.6 | 0.00 | 0.00 | 0.00 | 79 | 1017.3 |
| 20260830051144 | 76 | 117 | 4.3 | 9.6 | 0.00 | 0.00 | 0.00 | 79 | 1017.3 |
| 20260830051103 | 76 | 162 | 5.2 | 9.6 | 0.00 | 0.00 | 0.00 | 79 | 1017.3 |
| 20260830050941 | 76 | 104 | 5.2 | 9.6 | 0.00 | 0.00 | 0.00 | 79 | 1017.3 |
| 20260830050841 | 76 | 151 | 5.2 | 9.6 | 0.00 | 0.00 | 0.00 | 79 | 1017.3 |
| 20260830050738 | 76 | 171 | 5.2 | 9.6 | 0.00 | 0.00 | 0.00 | 79 | 1017.3 |
| 20260830050638 | 76 | 124 | 4.3 | 9.6 | 0.00 | 0.00 | 0.00 | 79 | 1017.3 |
| 20260830050537 | 76 | 162 | 5.2 | 9.6 | 0.00 | 0.00 | 0.00 | 79 | 1017.3 |
| 20260830050440 | 76 | 144 | 5.2 | 9.6 | 0.00 | 0.00 | 0.00 | 79 | 1017.3 |
| 20260830050338 | 76 | 145 | 6.1 | 9.6 | 0.00 | 0.00 | 0.00 | 79 | 1017.3 |
| 20260830050238 | 76 | 128 | 5.2 | 8.7 | 0.00 | 0.00 | 0.00 | 79 | 1017.3 |
| 20260830050209 | 76 | 144 | 6.1 | 8.7 | 0.00 | 0.00 | 0.00 | 79 | 1017.3 |
| 20260830050044 | 76 | 128 | 4.3 | 8.7 | 0.00 | 0.00 | 0.00 | 79 | 1017.3 |
| 20260830045941 | 76 | 165 | 4.3 | 9.6 | 0.00 | 0.00 | 0.00 | 79 | 1017.3 |
| 20260830045840 | 76 | 172 | 5.2 | 9.6 | 0.00 | 0.00 | 0.00 | 79 | 1017.3 |
| 20260830045742 | 76 | 143 | 5.2 | 9.6 | 0.00 | 0.00 | 0.00 | 79 | 1017.4 |
| 20260830045641 | 76 | 155 | 4.3 | 9.6 | 0.00 | 0.00 | 0.00 | 79 | 1017.4 |
| 20260830045600 | 76 | 164 | 4.3 | 9.6 | 0.00 | 0.00 | 0.00 | 79 | 1017.4 |
| 20260830045457 | 76 | 157 | 4.3 | 9.6 | 0.00 | 0.00 | 0.00 | 79 | 1017.4 |
| 20260830045334 | 76 | 157 | 4.3 | 7.8 | 0.00 | 0.00 | 0.00 | 79 | 1017.4 |
| 20260830045232 | 76 | 158 | 5.2 | 7.8 | 0.00 | 0.00 | 0.00 | 79 | 1017.4 |
| 20260830045131 | 76 | 148 | 5.2 | 7.8 | 0.00 | 0.00 | 0.00 | 79 | 1017.4 |
| 20260830045033 | 76 | 147 | 4.3 | 8.7 | 0.00 | 0.00 | 0.00 | 79 | 1017.4 |
| 20260830044936 | 76 | 147 | 2.6 | 8.7 | 0.00 | 0.00 | 0.00 | 79 | 1017.4 |
| 20260830044835 | 76 | 151 | 4.3 | 8.7 | 0.00 | 0.00 | 0.00 | 79 | 1017.4 |
| 20260830044734 | 76 | 175 | 4.3 | 8.7 | 0.00 | 0.00 | 0.00 | 78 | 1017.4 |
| 20260830044703 | 76 | 186 | 4.3 | 8.7 | 0.00 | 0.00 | 0.00 | 78 | 1017.4 |
| 20260830044540 | 76 | 151 | 3.5 | 9.6 | 0.00 | 0.00 | 0.00 | 78 | 1017.4 |
| 20260830044439 | 76 | 155 | 3.5 | 9.6 | 0.00 | 0.00 | 0.00 | 78 | 1017.4 |
| 20260830044338 | 76 | 144 | 4.3 | 9.6 | 0.00 | 0.00 | 0.00 | 78 | 1017.4 |
| 20260830044257 | 76 | 137 | 5.2 | 9.6 | 0.00 | 0.00 | 0.00 | 78 | 1017.5 |
| 20260830044139 | 76 | 161 | 6.1 | 9.6 | 0.00 | 0.00 | 0.00 | 78 | 1017.5 |
| 20260830044039 | 76 | 157 | 4.3 | 9.6 | 0.00 | 0.00 | 0.00 | 78 | 1017.5 |
| 20260830043937 | 76 | 152 | 5.2 | 9.6 | 0.00 | 0.00 | 0.00 | 78 | 1017.5 |
| 20260830043836 | 76 | 121 | 4.3 | 9.6 | 0.00 | 0.00 | 0.00 | 77 | 1017.5 |
| 20260830043735 | 76 | 160 | 5.2 | 9.6 | 0.00 | 0.00 | 0.00 | 77 | 1017.5 |
| 20260830043635 | 76 | 145 | 7.8 | 9.6 | 0.00 | 0.00 | 0.00 | 77 | 1017.5 |
| 20260830043554 | 76 | 151 | 4.3 | 9.6 | 0.00 | 0.00 | 0.00 | 77 | 1017.5 |
| 20260830043437 | 76 | 136 | 2.6 | 10.4 | 0.00 | 0.00 | 0.00 | 77 | 1017.5 |
| 20260830043336 | 76 | 136 | 2.6 | 10.4 | 0.00 | 0.00 | 0.00 | 77 | 1017.5 |
| 20260830043235 | 76 | 134 | 4.3 | 10.4 | 0.00 | 0.00 | 0.00 | 77 | 1017.5 |
| 20260830043206 | 76 | 164 | 4.3 | 10.4 | 0.00 | 0.00 | 0.00 | 77 | 1017.5 |
| 20260830043103 | 76 | 165 | 4.3 | 10.4 | 0.00 | 0.00 | 0.00 | 77 | 1017.5 |
| 20260830042959 | 76 | 148 | 5.2 | 10.4 | 0.00 | 0.00 | 0.00 | 77 | 1017.5 |
| 20260830042837 | 76 | 137 | 5.2 | 10.4 | 0.00 | 0.00 | 0.00 | 77 | 1017.5 |
| 20260830042736 | 76 | 145 | 5.2 | 10.4 | 0.00 | 0.00 | 0.00 | 77 | 1017.4 |
| 20260830042642 | 76 | 150 | 7.0 | 10.4 | 0.00 | 0.00 | 0.00 | 77 | 1017.4 |
| 20260830042540 | 76 | 162 | 5.2 | 10.4 | 0.00 | 0.00 | 0.00 | 77 | 1017.4 |
| 20260830042459 | 76 | 162 | 2.6 | 7.8 | 0.00 | 0.00 | 0.00 | 77 | 1017.4 |
| 20260830042336 | 76 | 131 | 2.6 | 7.8 | 0.00 | 0.00 | 0.00 | 77 | 1017.4 |
| 20260830042234 | 76 | 154 | 3.5 | 7.8 | 0.00 | 0.00 | 0.00 | 77 | 1017.4 |
| 20260830042132 | 76 | 154 | 2.6 | 7.8 | 0.00 | 0.00 | 0.00 | 77 | 1017.4 |
| 20260830042030 | 76 | 138 | 4.3 | 7.0 | 0.00 | 0.00 | 0.00 | 77 | 1017.4 |
| 20260830041934 | 76 | 144 | 3.5 | 7.0 | 0.00 | 0.00 | 0.00 | 77 | 1017.4 |
| 20260830041833 | 76 | 137 | 6.1 | 7.8 | 0.00 | 0.00 | 0.00 | 77 | 1017.4 |
| 20260830041803 | 76 | 154 | 4.3 | 7.8 | 0.00 | 0.00 | 0.00 | 77 | 1017.4 |
| 20260830041651 | 76 | 147 | 5.2 | 7.8 | 0.00 | 0.00 | 0.00 | 77 | 1017.4 |
| 20260830041529 | 76 | 141 | 5.2 | 7.8 | 0.00 | 0.00 | 0.00 | 77 | 1017.4 |
| 20260830041427 | 76 | 133 | 4.3 | 7.8 | 0.00 | 0.00 | 0.00 | 77 | 1017.4 |
| 20260830041327 | 76 | 147 | 4.3 | 7.8 | 0.00 | 0.00 | 0.00 | 77 | 1017.4 |
| 20260830041230 | 76 | 131 | 6.1 | 7.8 | 0.00 | 0.00 | 0.00 | 77 | 1017.6 |
| 20260830041149 | 76 | 143 | 5.2 | 7.8 | 0.00 | 0.00 | 0.00 | 77 | 1017.6 |
| 20260830041031 | 76 | 174 | 6.1 | 7.8 | 0.00 | 0.00 | 0.00 | 77 | 1017.6 |
| 20260830040929 | 76 | 145 | 4.3 | 7.0 | 0.00 | 0.00 | 0.00 | 77 | 1017.6 |
| 20260830040827 | 76 | 133 | 6.1 | 8.7 | 0.00 | 0.00 | 0.00 | 77 | 1017.6 |
| 20260830040726 | 76 | 138 | 4.3 | 8.7 | 0.00 | 0.00 | 0.00 | 77 | 1017.6 |
| 20260830040646 | 76 | 131 | 4.3 | 8.7 | 0.00 | 0.00 | 0.00 | 77 | 1017.6 |
| 20260830040543 | 76 | 152 | 3.5 | 8.7 | 0.00 | 0.00 | 0.00 | 77 | 1017.6 |
| 20260830040427 | 76 | 144 | 5.2 | 8.7 | 0.00 | 0.00 | 0.00 | 77 | 1017.6 |
| 20260830040326 | 76 | 137 | 6.1 | 8.7 | 0.00 | 0.00 | 0.00 | 77 | 1017.6 |
| 20260830040246 | 76 | 145 | 3.5 | 8.7 | 0.00 | 0.00 | 0.00 | 77 | 1017.6 |
| 20260830040216 | 76 | 126 | 4.3 | 8.7 | 0.00 | 0.00 | 0.00 | 77 | 1017.6 |
| 20260830040031 | 76 | 138 | 5.2 | 8.7 | 0.00 | 0.00 | 0.00 | 77 | 1017.6 |
| 20260830035931 | 76 | 154 | 4.3 | 7.8 | 0.00 | 0.00 | 0.00 | 77 | 1017.6 |
| 20260830035831 | 76 | 136 | 5.2 | 7.8 | 0.00 | 0.00 | 0.00 | 77 | 1017.6 |
| 20260830035736 | 77 | 138 | 3.5 | 7.8 | 0.00 | 0.00 | 0.00 | 76 | 1017.6 |
| 20260830035638 | 77 | 119 | 3.5 | 7.8 | 0.00 | 0.00 | 0.00 | 76 | 1017.6 |
| 20260830035537 | 77 | 141 | 5.2 | 7.8 | 0.00 | 0.00 | 0.00 | 76 | 1017.6 |
| 20260830035436 | 77 | 143 | 4.3 | 7.8 | 0.00 | 0.00 | 0.00 | 77 | 1017.6 |
| 20260830035355 | 77 | 144 | 4.3 | 7.8 | 0.00 | 0.00 | 0.00 | 77 | 1017.6 |
| 20260830035233 | 77 | 141 | 3.5 | 7.8 | 0.00 | 0.00 | 0.00 | 77 | 1017.6 |
| 20260830035133 | 77 | 136 | 3.5 | 7.8 | 0.00 | 0.00 | 0.00 | 77 | 1017.6 |
| 20260830035039 | 77 | 130 | 3.5 | 7.8 | 0.00 | 0.00 | 0.00 | 77 | 1017.6 |
| 20260830034937 | 77 | 154 | 4.3 | 7.8 | 0.00 | 0.00 | 0.00 | 76 | 1017.6 |
| 20260830034836 | 77 | 113 | 5.2 | 7.8 | 0.00 | 0.00 | 0.00 | 76 | 1017.6 |
| 20260830034756 | 77 | 136 | 5.2 | 7.8 | 0.00 | 0.00 | 0.00 | 76 | 1017.6 |
| 20260830034704 | 77 | 141 | 4.3 | 9.6 | 0.00 | 0.00 | 0.00 | 76 | 1017.6 |
| 20260830034541 | 77 | 137 | 3.5 | 9.6 | 0.00 | 0.00 | 0.00 | 76 | 1017.6 |
| 20260830034440 | 77 | 126 | 3.5 | 9.6 | 0.00 | 0.00 | 0.00 | 76 | 1017.6 |
| 20260830034338 | 77 | 116 | 3.5 | 9.6 | 0.00 | 0.00 | 0.00 | 76 | 1017.6 |
| 20260830034241 | 77 | 145 | 4.3 | 9.6 | 0.00 | 0.00 | 0.00 | 76 | 1017.5 |
| 20260830034141 | 77 | 131 | 3.5 | 9.6 | 0.00 | 0.00 | 0.00 | 76 | 1017.5 |
| 20260830034039 | 77 | 131 | 3.5 | 9.6 | 0.00 | 0.00 | 0.00 | 76 | 1017.5 |
| 20260830033958 | 77 | 127 | 4.3 | 9.6 | 0.00 | 0.00 | 0.00 | 76 | 1017.5 |
| 20260830033836 | 77 | 124 | 5.2 | 9.6 | 0.00 | 0.00 | 0.00 | 76 | 1017.5 |
| 20260830033735 | 77 | 120 | 4.3 | 8.7 | 0.00 | 0.00 | 0.00 | 76 | 1017.5 |
| 20260830033633 | 77 | 119 | 3.5 | 8.7 | 0.00 | 0.00 | 0.00 | 76 | 1017.5 |
| 20260830033537 | 77 | 112 | 3.5 | 8.7 | 0.00 | 0.00 | 0.00 | 76 | 1017.5 |
| 20260830033456 | 77 | 140 | 4.3 | 8.7 | 0.00 | 0.00 | 0.00 | 76 | 1017.5 |
| 20260830033355 | 77 | 138 | 4.3 | 8.7 | 0.00 | 0.00 | 0.00 | 76 | 1017.5 |
| 20260830033314 | 77 | 143 | 3.5 | 8.7 | 0.00 | 0.00 | 0.00 | 76 | 1017.5 |
| 20260830033202 | 77 | 113 | 4.3 | 8.7 | 0.00 | 0.00 | 0.00 | 76 | 1017.5 |
| 20260830033059 | 77 | 143 | 6.1 | 8.7 | 0.00 | 0.00 | 0.00 | 76 | 1017.5 |
| 20260830032936 | 77 | 131 | 5.2 | 8.7 | 0.00 | 0.00 | 0.00 | 76 | 1017.5 |
| 20260830032835 | 77 | 126 | 5.2 | 8.7 | 0.00 | 0.00 | 0.00 | 76 | 1017.5 |
| 20260830032754 | 77 | 133 | 6.1 | 8.7 | 0.00 | 0.00 | 0.00 | 76 | 1017.4 |
| 20260830032651 | 77 | 134 | 4.3 | 8.7 | 0.00 | 0.00 | 0.00 | 76 | 1017.4 |
| 20260830032549 | 77 | 121 | 4.3 | 8.7 | 0.00 | 0.00 | 0.00 | 76 | 1017.4 |
| 20260830032451 | 77 | 131 | 5.2 | 8.7 | 0.00 | 0.00 | 0.00 | 76 | 1017.4 |
| 20260830032328 | 77 | 119 | 6.1 | 8.7 | 0.00 | 0.00 | 0.00 | 76 | 1017.4 |
| 20260830032227 | 77 | 131 | 4.3 | 8.7 | 0.00 | 0.00 | 0.00 | 76 | 1017.4 |
| 20260830032126 | 77 | 130 | 5.2 | 8.7 | 0.00 | 0.00 | 0.00 | 76 | 1017.4 |
| 20260830032043 | 77 | 113 | 6.1 | 8.7 | 0.00 | 0.00 | 0.00 | 76 | 1017.4 |
| 20260830031942 | 77 | 112 | 5.2 | 8.7 | 0.00 | 0.00 | 0.00 | 76 | 1017.4 |
| 20260830031841 | 77 | 112 | 5.2 | 8.7 | 0.00 | 0.00 | 0.00 | 76 | 1017.4 |
| 20260830031744 | 77 | 138 | 5.2 | 8.7 | 0.00 | 0.00 | 0.00 | 75 | 1017.4 |
| 20260830031714 | 77 | 128 | 5.2 | 8.7 | 0.00 | 0.00 | 0.00 | 75 | 1017.4 |
| 20260830031531 | 77 | 110 | 6.1 | 8.7 | 0.00 | 0.00 | 0.00 | 75 | 1017.4 |
| 20260830031430 | 77 | 123 | 5.2 | 7.8 | 0.00 | 0.00 | 0.00 | 75 | 1017.4 |
| 20260830031328 | 77 | 110 | 4.3 | 8.7 | 0.00 | 0.00 | 0.00 | 75 | 1017.4 |
| 20260830031229 | 77 | 128 | 4.3 | 8.7 | 0.00 | 0.00 | 0.00 | 75 | 1017.6 |
| 20260830031127 | 77 | 117 | 5.2 | 8.7 | 0.00 | 0.00 | 0.00 | 75 | 1017.6 |
| 20260830031031 | 77 | 123 | 4.3 | 8.7 | 0.00 | 0.00 | 0.00 | 75 | 1017.6 |
| 20260830030929 | 77 | 136 | 6.1 | 8.7 | 0.00 | 0.00 | 0.00 | 75 | 1017.6 |
| 20260830030828 | 77 | 134 | 6.1 | 8.7 | 0.00 | 0.00 | 0.00 | 75 | 1017.6 |
| 20260830030750 | 77 | 130 | 4.3 | 8.7 | 0.00 | 0.00 | 0.00 | 74 | 1017.6 |
| 20260830030629 | 77 | 119 | 3.5 | 9.6 | 0.00 | 0.00 | 0.00 | 75 | 1017.6 |
| 20260830030548 | 77 | 114 | 6.1 | 10.4 | 0.00 | 0.00 | 0.00 | 74 | 1017.6 |
| 20260830030426 | 77 | 151 | 5.2 | 10.4 | 0.00 | 0.00 | 0.00 | 75 | 1017.6 |
| 20260830030326 | 77 | 144 | 5.2 | 10.4 | 0.00 | 0.00 | 0.00 | 75 | 1017.6 |
| 20260830030228 | 77 | 140 | 5.2 | 10.4 | 0.00 | 0.00 | 0.00 | 75 | 1017.6 |
| 20260830030159 | 77 | 138 | 4.3 | 10.4 | 0.00 | 0.00 | 0.00 | 74 | 1017.6 |
| 20260830030035 | 77 | 123 | 5.2 | 10.4 | 0.00 | 0.00 | 0.00 | 75 | 1017.6 |
| 20260830025932 | 77 | 133 | 4.3 | 10.4 | 0.00 | 0.00 | 0.00 | 75 | 1017.6 |
| 20260830025831 | 77 | 133 | 7.0 | 10.4 | 0.00 | 0.00 | 0.00 | 75 | 1017.6 |
| 20260830025731 | 77 | 124 | 7.8 | 10.4 | 0.00 | 0.00 | 0.00 | 75 | 1017.5 |
| 20260830025631 | 77 | 140 | 4.3 | 9.6 | 0.00 | 0.00 | 0.00 | 75 | 1017.5 |
| 20260830025534 | 77 | 131 | 4.3 | 9.6 | 0.00 | 0.00 | 0.00 | 75 | 1017.5 |
| 20260830025432 | 77 | 131 | 4.3 | 9.6 | 0.00 | 0.00 | 0.00 | 74 | 1017.5 |
| 20260830025330 | 77 | 134 | 5.2 | 9.6 | 0.00 | 0.00 | 0.00 | 75 | 1017.5 |
| 20260830025228 | 77 | 117 | 5.2 | 9.6 | 0.00 | 0.00 | 0.00 | 75 | 1017.5 |
| 20260830025126 | 77 | 136 | 5.2 | 9.6 | 0.00 | 0.00 | 0.00 | 75 | 1017.5 |
| 20260830025025 | 77 | 144 | 6.1 | 9.6 | 0.00 | 0.00 | 0.00 | 75 | 1017.5 |
| 20260830024928 | 77 | 109 | 7.0 | 9.6 | 0.00 | 0.00 | 0.00 | 75 | 1017.5 |
| 20260830024826 | 77 | 114 | 5.2 | 8.7 | 0.00 | 0.00 | 0.00 | 75 | 1017.5 |
| 20260830024726 | 77 | 151 | 3.5 | 8.7 | 0.00 | 0.00 | 0.00 | 75 | 1017.5 |
| 20260830024654 | 77 | 144 | 5.2 | 8.7 | 0.00 | 0.00 | 0.00 | 76 | 1017.5 |
| 20260830024533 | 77 | 138 | 4.3 | 7.0 | 0.00 | 0.00 | 0.00 | 76 | 1017.5 |
| 20260830024452 | 77 | 124 | 5.2 | 7.0 | 0.00 | 0.00 | 0.00 | 76 | 1017.5 |
| 20260830024329 | 77 | 124 | 5.2 | 7.0 | 0.00 | 0.00 | 0.00 | 76 | 1017.5 |
| 20260830024229 | 77 | 124 | 4.3 | 7.0 | 0.00 | 0.00 | 0.00 | 76 | 1017.3 |
| 20260830024131 | 77 | 128 | 4.3 | 7.0 | 0.00 | 0.00 | 0.00 | 76 | 1017.3 |
| 20260830024030 | 77 | 119 | 5.2 | 7.0 | 0.00 | 0.00 | 0.00 | 76 | 1017.3 |
| 20260830023928 | 77 | 145 | 4.3 | 7.0 | 0.00 | 0.00 | 0.00 | 76 | 1017.3 |
| 20260830023827 | 77 | 133 | 3.5 | 7.0 | 0.00 | 0.00 | 0.00 | 76 | 1017.3 |
| 20260830023725 | 77 | 127 | 4.3 | 7.0 | 0.00 | 0.00 | 0.00 | 76 | 1017.3 |
| 20260830023625 | 77 | 133 | 5.2 | 7.0 | 0.00 | 0.00 | 0.00 | 76 | 1017.3 |
| 20260830023526 | 77 | 136 | 5.2 | 7.0 | 0.00 | 0.00 | 0.00 | 76 | 1017.3 |
| 20260830023427 | 77 | 143 | 4.3 | 7.0 | 0.00 | 0.00 | 0.00 | 76 | 1017.3 |
| 20260830023326 | 77 | 134 | 4.3 | 7.0 | 0.00 | 0.00 | 0.00 | 76 | 1017.3 |
| 20260830023226 | 77 | 136 | 4.3 | 7.0 | 0.00 | 0.00 | 0.00 | 76 | 1017.3 |
| 20260830023157 | 77 | 130 | 5.2 | 7.0 | 0.00 | 0.00 | 0.00 | 76 | 1017.3 |
| 20260830023033 | 77 | 138 | 4.3 | 7.0 | 0.00 | 0.00 | 0.00 | 76 | 1017.3 |
| 20260830022953 | 77 | 127 | 4.3 | 7.0 | 0.00 | 0.00 | 0.00 | 76 | 1017.3 |
| 20260830022832 | 77 | 124 | 5.2 | 7.0 | 0.00 | 0.00 | 0.00 | 76 | 1017.3 |
| 20260830022735 | 77 | 136 | 4.3 | 6.1 | 0.00 | 0.00 | 0.00 | 76 | 1017.1 |
| 20260830022633 | 77 | 134 | 4.3 | 6.1 | 0.00 | 0.00 | 0.00 | 76 | 1017.1 |
| 20260830022536 | 77 | 130 | 5.2 | 6.1 | 0.00 | 0.00 | 0.00 | 75 | 1017.1 |
| 20260830022435 | 77 | 143 | 5.2 | 6.1 | 0.00 | 0.00 | 0.00 | 75 | 1017.1 |
| 20260830022333 | 77 | 123 | 4.3 | 6.1 | 0.00 | 0.00 | 0.00 | 76 | 1017.1 |
| 20260830022231 | 77 | 140 | 3.5 | 6.1 | 0.00 | 0.00 | 0.00 | 76 | 1017.1 |
| 20260830022150 | 77 | 133 | 5.2 | 6.1 | 0.00 | 0.00 | 0.00 | 76 | 1017.1 |
| 20260830022034 | 77 | 143 | 4.3 | 6.1 | 0.00 | 0.00 | 0.00 | 76 | 1017.1 |
| 20260830021933 | 77 | 134 | 4.3 | 6.1 | 0.00 | 0.00 | 0.00 | 76 | 1017.1 |
| 20260830021853 | 77 | 133 | 3.5 | 6.1 | 0.00 | 0.00 | 0.00 | 76 | 1017.1 |
| 20260830021741 | 77 | 133 | 5.2 | 6.1 | 0.00 | 0.00 | 0.00 | 76 | 1017.1 |
| 20260830021649 | 77 | 134 | 3.5 | 6.1 | 0.00 | 0.00 | 0.00 | 76 | 1017.1 |
| 20260830021526 | 77 | 131 | 5.2 | 6.1 | 0.00 | 0.00 | 0.00 | 76 | 1017.1 |
| 20260830021424 | 77 | 134 | 2.6 | 5.2 | 0.00 | 0.00 | 0.00 | 76 | 1017.1 |
| 20260830021327 | 77 | 131 | 4.3 | 5.2 | 0.00 | 0.00 | 0.00 | 76 | 1017.1 |
| 20260830021225 | 77 | 133 | 3.5 | 5.2 | 0.00 | 0.00 | 0.00 | 76 | 1017.0 |
| 20260830021144 | 77 | 134 | 2.6 | 5.2 | 0.00 | 0.00 | 0.00 | 76 | 1017.0 |
| 20260830021104 | 77 | 137 | 3.5 | 5.2 | 0.00 | 0.00 | 0.00 | 75 | 1017.0 |
| 20260830020942 | 77 | 137 | 3.5 | 5.2 | 0.00 | 0.00 | 0.00 | 75 | 1017.0 |
| 20260830020843 | 77 | 133 | 4.3 | 5.2 | 0.00 | 0.00 | 0.00 | 75 | 1017.0 |
| 20260830020743 | 77 | 136 | 3.5 | 5.2 | 0.00 | 0.00 | 0.00 | 75 | 1017.0 |
| 20260830020642 | 77 | 134 | 3.5 | 6.1 | 0.00 | 0.00 | 0.00 | 75 | 1017.0 |
| 20260830020526 | 77 | 136 | 4.3 | 6.1 | 0.00 | 0.00 | 0.00 | 75 | 1017.0 |
| 20260830020447 | 77 | 136 | 3.5 | 6.1 | 0.00 | 0.00 | 0.00 | 75 | 1017.0 |
| 20260830020324 | 77 | 134 | 2.6 | 6.1 | 0.00 | 0.00 | 0.00 | 75 | 1017.0 |
| 20260830020235 | 77 | 138 | 4.3 | 6.1 | 0.00 | 0.00 | 0.00 | 75 | 1017.0 |
| 20260830020146 | 77 | 141 | 4.3 | 6.1 | 0.00 | 0.00 | 0.00 | 75 | 1017.0 |
| 20260830020043 | 77 | 138 | 3.5 | 6.1 | 0.00 | 0.00 | 0.00 | 75 | 1017.0 |
| 20260830015942 | 77 | 131 | 4.3 | 6.1 | 0.00 | 0.00 | 0.00 | 75 | 1017.0 |
| 20260830015901 | 77 | 136 | 4.3 | 6.1 | 0.00 | 0.00 | 0.00 | 75 | 1017.0 |
| 20260830015738 | 78 | 133 | 4.3 | 6.1 | 0.00 | 0.00 | 0.00 | 75 | 1016.8 |
| 20260830015641 | 78 | 124 | 3.5 | 6.1 | 0.00 | 0.00 | 0.00 | 75 | 1016.8 |
| 20260830015540 | 78 | 134 | 4.3 | 6.1 | 0.00 | 0.00 | 0.00 | 75 | 1016.8 |
| 20260830015438 | 78 | 121 | 4.3 | 6.1 | 0.00 | 0.00 | 0.00 | 75 | 1016.8 |
| 20260830015357 | 78 | 136 | 4.3 | 5.2 | 0.00 | 0.00 | 0.00 | 75 | 1016.8 |
| 20260830015236 | 78 | 137 | 3.5 | 5.2 | 0.00 | 0.00 | 0.00 | 75 | 1016.8 |
| 20260830015134 | 78 | 137 | 3.5 | 5.2 | 0.00 | 0.00 | 0.00 | 75 | 1016.8 |
| 20260830015032 | 78 | 130 | 3.5 | 5.2 | 0.00 | 0.00 | 0.00 | 75 | 1016.8 |
| 20260830014935 | 78 | 134 | 3.5 | 5.2 | 0.00 | 0.00 | 0.00 | 75 | 1016.8 |
| 20260830014835 | 78 | 134 | 4.3 | 5.2 | 0.00 | 0.00 | 0.00 | 74 | 1016.8 |
| 20260830014723 | 78 | 130 | 4.3 | 5.2 | 0.00 | 0.00 | 0.00 | 74 | 1016.8 |
| 20260830014559 | 78 | 133 | 4.3 | 6.1 | 0.00 | 0.00 | 0.00 | 75 | 1016.8 |
| 20260830014436 | 78 | 134 | 3.5 | 6.1 | 0.00 | 0.00 | 0.00 | 74 | 1016.8 |
| 20260830014335 | 78 | 137 | 2.6 | 6.1 | 0.00 | 0.00 | 0.00 | 74 | 1016.8 |
| 20260830014254 | 78 | 138 | 3.5 | 6.1 | 0.00 | 0.00 | 0.00 | 74 | 1016.5 |
| 20260830014136 | 78 | 136 | 4.3 | 6.1 | 0.00 | 0.00 | 0.00 | 74 | 1016.5 |
| 20260830014055 | 78 | 130 | 3.5 | 6.1 | 0.00 | 0.00 | 0.00 | 74 | 1016.5 |
| 20260830013932 | 78 | 136 | 3.5 | 6.1 | 0.00 | 0.00 | 0.00 | 74 | 1016.5 |
| 20260830013830 | 78 | 137 | 3.5 | 6.1 | 0.00 | 0.00 | 0.00 | 74 | 1016.5 |
| 20260830013728 | 78 | 141 | 4.3 | 6.1 | 0.00 | 0.00 | 0.00 | 74 | 1016.5 |
| 20260830013628 | 78 | 143 | 4.3 | 5.2 | 0.00 | 0.00 | 0.00 | 74 | 1016.5 |
| 20260830013527 | 78 | 136 | 2.6 | 5.2 | 0.00 | 0.00 | 0.00 | 74 | 1016.5 |
| 20260830013429 | 78 | 140 | 2.6 | 5.2 | 0.00 | 0.00 | 0.00 | 74 | 1016.5 |
| 20260830013328 | 78 | 137 | 3.5 | 5.2 | 0.00 | 0.00 | 0.00 | 74 | 1016.5 |
| 20260830013228 | 78 | 137 | 2.6 | 5.2 | 0.00 | 0.00 | 0.00 | 74 | 1016.5 |
| 20260830013158 | 78 | 141 | 3.5 | 5.2 | 0.00 | 0.00 | 0.00 | 74 | 1016.5 |
| 20260830013035 | 78 | 141 | 4.3 | 5.2 | 0.00 | 0.00 | 0.00 | 74 | 1016.5 |
| 20260830012933 | 78 | 141 | 4.3 | 5.2 | 0.00 | 0.00 | 0.00 | 74 | 1016.5 |
| 20260830012832 | 78 | 141 | 3.5 | 5.2 | 0.00 | 0.00 | 0.00 | 74 | 1016.5 |
| 20260830012736 | 78 | 145 | 3.5 | 5.2 | 0.00 | 0.00 | 0.00 | 74 | 1016.2 |
| 20260830012634 | 78 | 138 | 3.5 | 5.2 | 0.00 | 0.00 | 0.00 | 73 | 1016.2 |
| 20260830012533 | 78 | 144 | 3.5 | 5.2 | 0.00 | 0.00 | 0.00 | 73 | 1016.2 |
| 20260830012432 | 78 | 143 | 2.6 | 5.2 | 0.00 | 0.00 | 0.00 | 73 | 1016.2 |
| 20260830012332 | 78 | 143 | 3.5 | 5.2 | 0.00 | 0.00 | 0.00 | 73 | 1016.2 |
| 20260830012231 | 78 | 138 | 2.6 | 5.2 | 0.00 | 0.00 | 0.00 | 73 | 1016.2 |
| 20260830012131 | 78 | 141 | 2.6 | 5.2 | 0.00 | 0.00 | 0.00 | 73 | 1016.2 |
| 20260830012034 | 78 | 141 | 1.7 | 5.2 | 0.00 | 0.00 | 0.00 | 73 | 1016.2 |
| 20260830011934 | 78 | 141 | 3.5 | 5.2 | 0.00 | 0.00 | 0.00 | 73 | 1016.2 |
| 20260830011834 | 78 | 138 | 3.5 | 5.2 | 0.00 | 0.00 | 0.00 | 73 | 1016.2 |
| 20260830011733 | 79 | 136 | 2.6 | 5.2 | 0.00 | 0.00 | 0.00 | 73 | 1016.2 |
| 20260830011701 | 79 | 137 | 3.5 | 5.2 | 0.00 | 0.00 | 0.00 | 72 | 1016.2 |
| 20260830011539 | 79 | 136 | 3.5 | 5.2 | 0.00 | 0.00 | 0.00 | 72 | 1016.2 |
| 20260830011459 | 79 | 134 | 2.6 | 5.2 | 0.00 | 0.00 | 0.00 | 72 | 1016.2 |
| 20260830011342 | 79 | 137 | 3.5 | 5.2 | 0.00 | 0.00 | 0.00 | 72 | 1016.2 |
| 20260830011241 | 79 | 137 | 3.5 | 5.2 | 0.00 | 0.00 | 0.00 | 72 | 1016.2 |
| 20260830011200 | 79 | 136 | 3.5 | 5.2 | 0.00 | 0.00 | 0.00 | 72 | 1016.2 |
| 20260830011037 | 79 | 140 | 3.5 | 5.2 | 0.00 | 0.00 | 0.00 | 72 | 1016.2 |
| 20260830010957 | 79 | 134 | 2.6 | 5.2 | 0.00 | 0.00 | 0.00 | 72 | 1016.2 |
| 20260830010835 | 79 | 133 | 2.6 | 6.1 | 0.00 | 0.00 | 0.00 | 71 | 1016.2 |
| 20260830010735 | 79 | 134 | 3.5 | 6.1 | 0.00 | 0.00 | 0.00 | 71 | 1016.2 |
| 20260830010634 | 79 | 134 | 3.5 | 6.1 | 0.00 | 0.00 | 0.00 | 71 | 1016.2 |
| 20260830010556 | 79 | 133 | 3.5 | 6.1 | 0.00 | 0.00 | 0.00 | 71 | 1016.2 |